[[{"header":{"parameterUnit":"m.s-1","parameterCategory":1,"la1":30.6,"la2":28.766,"lo1":-90.7593,"lo2":-88.6598,"dy":0.0162,"dx":0.0183,"nx":116,"ny":114,"refTime":"2023-09-04T12:00:00:Z","depth":0,"parameterNumber":2,"parameterNumberName":"U-component_of_WINDS"},"data":[0.0,0.0,0.0,0.0,0.0,0.0,0.0,0.0,0.0,0.0,0.0,0.0,0.0,0.0,0.0,0.0,0.0,0.0,0.0,0.0,0.0,0.0,0.0,0.0,0.0,0.0,0.0,0.0,0.0,0.0,0.0,0.0,0.0,0.0,0.0,0.0,0.0,0.0,0.0,0.0,0.0,0.0,0.0,0.0,0.0,0.0,0.0,0.0,0.0,0.0,0.0,0.0,0.0,0.0,0.0,0.0,0.0,0.0,0.0,0.0,0.0,0.0,0.0,0.0,0.0,0.0,0.0,0.0,0.0,0.0,0.0,0.0,0.0,0.0,0.0,0.0,0.0,0.0,0.0,0.0,0.0,0.0,0.0,0.0,0.0,0.0,0.0,0.0,0.0,0.0,0.0,0.0,0.0,0.0,0.0,0.0,0.0,0.0,0.0,0.0,0.0,0.0,0.0,0.0,0.0,0.0,0.0,0.0,0.0,0.0,0.0,0.0,0.0,0.0,0.0,0.0,0.0,0.0,0.0,0.0,0.0,0.0,0.0,0.0,0.0,0.0,0.0,0.0,0.0,0.0,0.0,0.0,0.0,0.0,0.0,0.0,0.0,0.0,0.0,0.0,0.0,0.0,0.0,0.0,0.0,0.0,0.0,0.0,0.0,0.0,0.0,0.0,0.0,0.0,0.0,0.0,0.0,0.0,0.0,0.0,0.0,0.0,0.0,0.0,0.0,0.0,0.0,0.0,0.0,0.0,0.0,0.0,0.0,0.0,0.0,0.0,0.0,0.0,0.0,0.0,0.0,0.0,0.0,0.0,0.0,0.0,0.0,0.0,0.0,0.0,0.0,0.0,0.0,0.0,0.0,0.0,0.0,0.0,0.0,0.0,0.0,0.0,0.0,0.0,0.0,0.0,0.0,0.0,0.0,0.0,0.0,0.0,0.0,0.0,0.0,0.0,0.0,0.0,0.0,0.0,0.0,0.0,0.0,0.0,0.0,0.0,0.0,0.0,0.0,0.0,0.0,0.0,0.0,0.0,0.0,0.0,0.0,0.0,0.0,0.0,0.0,0.0,0.0,0.0,0.0,0.0,0.0,0.0,0.0,0.0,0.0,0.0,0.0,0.0,0.0,0.0,0.0,0.0,0.0,0.0,0.0,0.0,0.0,0.0,0.0,0.0,0.0,0.0,0.0,0.0,0.0,0.0,0.0,0.0,0.0,0.0,0.0,0.0,0.0,0.0,0.0,0.0,0.0,0.0,0.0,0.0,0.0,0.0,0.0,0.0,0.0,0.0,0.0,0.0,0.0,0.0,0.0,0.0,0.0,0.0,0.0,0.0,0.0,0.0,0.0,0.0,0.0,0.0,0.0,0.0,0.0,0.0,0.0,0.0,0.0,0.0,0.0,0.0,0.0,0.0,0.0,0.0,0.0,0.0,0.0,0.0,0.0,0.0,0.0,0.0,0.0,0.0,0.0,0.0,0.0,0.0,0.0,0.0,0.0,0.0,0.0,0.0,0.0,0.0,0.0,0.0,0.0,0.0,0.0,0.0,0.0,0.0,0.0,0.0,0.0,0.0,0.0,0.0,0.0,0.0,0.0,0.0,0.0,0.0,0.0,0.0,0.0,0.0,0.0,0.0,0.0,0.0,0.0,0.0,0.0,0.0,0.0,0.0,0.0,0.0,0.0,0.0,0.0,0.0,0.0,0.0,0.0,0.0,0.0,0.0,0.0,0.0,0.0,0.0,0.0,0.0,0.0,0.0,0.0,0.0,0.0,0.0,0.0,0.0,0.0,0.0,0.0,0.0,0.0,0.0,0.0,0.0,0.0,0.0,0.0,0.0,0.0,0.0,0.0,0.0,0.0,0.0,0.0,0.0,0.0,0.0,0.0,0.0,0.0,0.0,0.0,0.0,0.0,0.0,0.0,0.0,0.0,0.0,0.0,0.0,0.0,0.0,0.0,0.0,0.0,0.0,0.0,0.0,0.0,0.0,0.0,0.0,0.0,0.0,0.0,0.0,0.0,0.0,0.0,0.0,0.0,0.0,0.0,0.0,0.0,0.0,0.0,0.0,0.0,0.0,0.0,0.0,0.0,0.0,0.0,0.0,0.0,0.0,0.0,0.0,0.0,0.0,0.0,0.0,0.0,0.0,0.0,0.0,0.0,0.0,0.0,0.0,0.0,0.0,0.0,0.0,0.0,0.0,0.0,0.0,0.0,0.0,0.0,0.0,0.0,0.0,0.0,0.0,0.0,0.0,0.0,0.0,0.0,0.0,0.0,0.0,0.0,0.0,0.0,0.0,0.0,0.0,0.0,0.0,0.0,0.0,0.0,0.0,0.0,0.0,0.0,0.0,0.0,0.0,0.0,0.0,0.0,0.0,0.0,0.0,0.0,0.0,0.0,0.0,0.0,0.0,0.0,0.0,0.0,0.0,0.0,0.0,0.0,0.0,0.0,0.0,0.0,0.0,0.0,0.0,0.0,0.0,0.0,0.0,0.0,0.0,0.0,0.0,0.0,0.0,0.0,0.0,0.0,0.0,0.0,0.0,0.0,0.0,0.0,0.0,0.0,0.0,0.0,0.0,0.0,0.0,0.0,0.0,0.0,0.0,0.0,0.0,0.0,0.0,0.0,0.0,0.0,0.0,0.0,0.0,0.0,0.0,0.0,0.0,0.0,0.0,0.0,0.0,0.0,0.0,0.0,0.0,0.0,0.0,0.0,0.0,0.0,0.0,0.0,0.0,0.0,0.0,0.0,0.0,0.0,0.0,0.0,0.0,0.0,0.0,0.0,0.0,0.0,0.0,0.0,0.0,0.0,0.0,0.0,0.0,0.0,0.0,0.0,0.0,0.0,0.0,0.0,0.0,0.0,0.0,0.0,0.0,0.0,0.0,0.0,0.0,0.0,0.0,0.0,0.0,0.0,0.0,0.0,0.0,0.0,0.0,0.0,0.0,0.0,0.0,0.0,0.0,0.0,0.0,0.0,0.0,0.0,0.0,0.0,0.0,0.0,0.0,0.0,0.0,0.0,0.0,0.0,0.0,0.0,0.0,0.0,0.0,0.0,0.0,0.0,0.0,0.0,0.0,0.0,0.0,0.0,0.0,0.0,0.0,0.0,0.0,0.0,0.0,0.0,0.0,0.0,0.0,0.0,0.0,0.0,0.0,0.0,0.0,0.0,0.0,0.0,0.0,0.0,0.0,0.0,0.0,0.0,0.0,0.0,0.0,0.0,0.0,0.0,0.0,0.0,0.0,0.0,0.0,0.0,0.0,0.0,0.0,0.0,0.0,0.0,0.0,0.0,0.0,0.0,0.0,0.0,0.0,0.0,0.0,0.0,0.0,0.0,0.0,0.0,0.0,0.0,0.0,0.0,0.0,0.0,0.0,0.0,0.0,0.0,0.0,0.0,0.0,0.0,0.0,0.0,0.0,0.0,0.0,0.0,0.0,0.0,0.0,0.0,0.0,0.0,0.0,0.0,0.0,0.0,0.0,0.0,0.0,0.0,0.0,0.0,0.0,0.0,0.0,0.0,0.0,0.0,0.0,0.0,0.0,0.0,0.0,0.0,0.0,0.0,0.0,0.0,0.0,0.0,0.0,0.0,0.0,0.0,0.0,0.0,0.0,0.0,0.0,0.0,0.0,0.0,0.0,0.0,0.0,0.0,0.0,0.0,0.0,0.0,0.0,0.0,0.0,0.0,0.0,0.0,0.0,0.0,0.0,0.0,0.0,0.0,0.0,0.0,0.0,0.0,0.0,0.0,0.0,0.0,0.0,0.0,0.0,0.0,0.0,0.0,0.0,0.0,0.0,0.0,0.0,0.0,0.0,0.0,0.0,0.0,0.0,0.0,0.0,0.0,0.0,0.0,0.0,0.0,0.0,0.0,0.0,0.0,0.0,0.0,0.0,0.0,0.0,0.0,0.0,0.0,0.0,0.0,0.0,0.0,0.0,0.0,0.0,0.0,0.0,0.0,0.0,0.0,0.0,0.0,0.0,0.0,0.0,0.0,0.0,0.0,0.0,0.0,0.0,0.0,0.0,0.0,0.0,0.0,0.0,0.0,0.0,0.0,0.0,0.0,0.0,0.0,0.0,0.0,0.0,0.0,0.0,0.0,0.0,0.0,0.0,0.0,0.0,0.0,0.0,0.0,0.0,0.0,0.0,0.0,0.0,0.0,0.0,0.0,0.0,0.0,0.0,0.0,0.0,0.0,0.0,0.0,0.0,0.0,0.0,0.0,0.0,0.0,0.0,0.0,0.0,0.0,0.0,0.0,0.0,0.0,0.0,0.0,0.0,0.0,0.0,0.0,0.0,0.0,0.0,0.0,0.0,0.0,0.0,0.0,0.0,0.0,0.0,0.0,0.0,0.0,0.0,0.0,0.0,0.0,0.0,0.0,0.0,0.0,0.0,0.0,0.0,0.0,0.0,0.0,0.0,0.0,0.0,0.0,0.0,0.0,0.0,0.0,0.0,0.0,0.0,0.0,0.0,0.0,0.0,0.0,0.0,0.0,0.0,0.0,0.0,0.0,0.0,0.0,0.0,0.0,0.0,0.0,0.0,0.0,0.0,0.0,0.0,0.0,0.0,0.0,0.0,0.0,0.0,0.0,0.0,0.0,0.0,0.0,0.0,0.0,0.0,0.0,0.0,0.0,0.0,0.0,0.0,0.0,0.0,0.0,0.0,0.0,0.0,0.0,0.0,0.0,0.0,0.0,0.0,0.0,0.0,0.0,0.0,0.0,0.0,0.0,0.0,0.0,0.0,0.0,0.0,0.0,0.0,0.0,0.0,0.0,0.0,0.0,0.0,0.0,0.0,0.0,0.0,0.0,0.0,0.0,0.0,0.0,0.0,0.0,0.0,0.0,0.0,0.0,0.0,0.0,0.0,0.0,0.0,0.0,0.0,0.0,0.0,0.0,0.0,0.0,0.0,0.0,0.0,0.0,0.0,0.0,0.0,0.0,0.0,0.0,0.0,0.0,0.0,0.0,0.0,0.0,0.0,0.0,0.0,0.0,0.0,0.0,0.0,0.0,0.0,0.0,0.0,0.0,0.0,0.0,0.0,0.0,0.0,0.0,0.0,0.0,0.0,0.0,0.0,0.0,0.0,0.0,0.0,0.0,0.0,0.0,0.0,0.0,0.0,0.0,0.0,0.0,0.0,0.0,0.0,0.0,0.0,0.0,0.0,0.0,0.0,0.0,0.0,0.0,0.0,0.0,0.0,0.0,0.0,0.0,0.0,0.0,0.0,0.0,0.0,0.0,0.0,0.0,0.0,0.0,0.0,0.0,0.0,0.0,0.0,0.0,0.0,0.0,0.0,0.0,0.0,0.0,0.0,0.0,0.0,0.0,0.0,0.0,0.0,0.0,0.0,0.0,0.0,0.0,0.0,0.0,0.0,0.0,0.0,0.0,0.0,0.0,0.0,0.0,0.0,0.0,0.0,0.0,0.0,0.0,0.0,0.0,0.0,0.0,0.0,0.0,0.0,0.0,0.0,0.0,0.0,0.0,0.0,0.0,0.0,0.0,0.0,0.0,0.0,0.0,0.0,0.0,0.0,0.0,0.0,0.0,0.0,0.0,0.0,0.0,0.0,0.0,0.0,0.0,0.0,0.0,0.0,0.0,0.0,0.0,0.0,0.0,0.0,0.0,0.0,0.0,0.0,0.0,0.0,0.0,0.0,0.0,0.0,0.0,0.0,0.0,0.0,0.0,0.0,0.0,0.0,0.0,0.0,0.0,0.0,0.0,0.0,0.0,0.0,0.0,0.0,0.0,0.0,0.0,0.0,0.0,0.0,0.0,0.0,0.0,0.0,0.0,0.0,0.0,0.0,0.0,0.0,0.0,0.0,0.0,0.0,0.0,0.0,0.0,0.0,0.0,0.0,0.0,0.0,0.0,0.0,0.0,0.0,0.0,0.0,0.0,0.0,0.0,0.0,0.0,0.0,0.0,0.0,0.0,0.0,0.0,0.0,0.0,0.0,0.0,0.0,0.0,0.0,0.0,0.0,0.0,0.0,0.0,0.0,0.0,0.0,0.0,0.0,0.0,0.0,0.0,0.0,0.0,0.0,0.0,0.0,0.0,0.0,0.0,0.0,1.2589,1.3547,0.0,0.0,0.0,0.0,0.0,0.0,0.0,0.0,0.0,0.0,0.0,0.0,0.0,0.0,0.0,0.0,0.0,0.0,0.0,0.0,0.0,0.0,0.0,0.0,0.0,0.0,0.0,0.0,0.0,0.0,0.0,0.0,0.0,0.0,0.0,0.0,0.0,0.0,0.2686,0.2849,0.3152,0.3545,0.3323,0.2568,0.0,0.0,0.0,0.0,0.0,0.0,0.0,0.0,0.0,0.0,0.0,0.0,0.0,0.0,0.0,0.0,0.0,0.0,0.0,0.0,0.0,0.0,0.0,0.0,0.0,0.0,0.0,0.0,0.0,0.0,0.0,0.0,0.0,0.0,0.0,0.0,0.0,0.0,0.0,0.0,0.0,0.0,0.0,0.0,0.0,0.0,0.0,0.0,0.0,0.0,0.0,0.0,0.0,0.0,0.0,0.0,0.0,0.0,0.0,0.0,0.0,0.0,0.0,0.0,0.0,0.0,0.0,0.0,0.0,0.0,1.3305,1.3682,0.0,0.0,0.0,0.0,0.0,0.0,0.0,0.0,0.0,0.0,0.0,0.0,0.0,0.0,0.0,0.0,0.0,0.0,0.0,0.0,0.0,0.0,0.0,-0.1892,-0.1753,-0.1661,-0.0627,-0.0,0.0,0.0,0.0,0.0,0.0,0.0,0.0,0.0319,0.1187,0.2708,0.276,0.3062,0.3541,0.3763,0.3724,0.3429,0.3591,0.0,0.0,0.0,0.0,0.0,0.0,0.0,0.0,0.0,0.0,0.0,0.0,0.0,0.0,0.0,0.0,0.0,0.0,0.0,0.0,0.0,0.0,0.0,0.0,0.0,0.0,0.0,0.0,0.0,0.0,0.0,0.0,0.0,0.0,0.0,0.0,0.0,0.0,0.0,0.0,0.0,0.0,0.0,0.0,0.0,0.0,0.0,0.0,0.0,0.0,0.0,0.0,0.0,0.0,0.0,0.0,0.0,0.0,0.0,0.0,0.0,0.0,0.0,1.3335,1.3956,1.4924,1.5015,1.5104,1.5142,1.4495,1.4109,1.3999,1.4944,0.0,0.0,0.0,0.0,0.0,0.0,0.0,0.0,0.0,0.0,0.0,0.0,0.0,0.0,0.0,0.0,0.0,0.0,0.0,0.0,0.0,-0.1827,-0.1594,-0.1072,-0.0403,-0.0,-0.0,0.0,0.0,0.0,0.0,0.0,-0.0,0.153,0.2476,0.2708,0.3036,0.3256,0.3358,0.3681,0.3863,0.3907,0.3944,0.4036,0.409,0.0,0.0,0.0,0.0,0.0,0.0,0.0,0.0,0.0,0.0,0.0,0.0,0.0,0.0,0.0,0.0,0.0,0.0,0.0,0.0,0.0,0.0,0.0,0.0,0.0,0.0,0.0,0.0,0.0,0.0,0.0,0.0,0.0,0.0,0.0,0.0,0.0,0.0,0.0,0.0,0.0,1.1381,1.0957,0.0,0.0,0.0,0.0,0.0,0.0,0.0,0.0,0.0,0.0,0.0,0.0,0.0,1.1927,1.1506,1.2454,1.2817,1.2645,1.3564,1.4317,1.4982,1.5417,1.5856,1.6271,1.5711,0.0,1.4154,1.5095,0.0,0.0,0.0,0.0,0.0,0.0,0.0,0.0,0.0,0.0,0.0,0.0,0.0,0.0,0.0,0.0,0.0,0.0,0.0,0.0,0.0,-0.1797,-0.1431,-0.0485,-0.0145,-0.0,-0.0,-0.0,0.0,0.0,0.0,-0.0,-0.0,0.0785,0.167,0.2717,0.3385,0.3691,0.3645,0.3902,0.4172,0.4399,0.4399,0.4341,0.418,0.4012,0.0,0.0,0.0,0.0,0.0,0.0,0.0,0.0,0.0,0.0,0.0,0.0,0.0,0.0,0.0,0.0,0.0,0.0,0.0,0.0,0.0,0.0,0.0,0.0,0.0,0.0,0.0,0.0,0.0,0.0,0.0,0.0,0.0,0.0,0.0,0.0,0.0,0.0,0.0,1.1214,1.1528,1.1299,1.2061,1.2422,0.0,0.0,0.0,0.0,0.0,0.0,0.0,0.0,0.0,1.1312,1.1724,1.1826,1.1596,1.2284,1.284,1.326,1.4373,1.5355,1.618,1.6806,1.7237,1.7451,1.7212,1.666,1.5935,1.572,1.5774,1.6122,0.0,0.0,0.0,0.0,1.625,1.6361,0.0,0.0,0.0,0.0,0.0,0.0,0.0,0.0,0.0,0.0,0.0,0.0,-0.1798,-0.152,-0.1098,-0.0513,-0.0174,-0.0,-0.0,-0.0,-0.0,-0.0,-0.0,-0.0,-0.0,-0.0,0.0659,0.1997,0.2874,0.3506,0.3948,0.4227,0.4504,0.4755,0.4789,0.466,0.4351,0.4212,0.4046,0.389,0.0,0.0,0.0,0.0,0.0,0.0,0.0,0.0,0.0,0.0,0.0,0.0,0.0,0.0,0.0,0.0,0.0,0.0,0.0,0.0,0.0,0.0,0.0,0.0,0.0,0.0,0.0,0.0,0.0,0.0,0.0,0.0,0.0,0.0,0.0,0.0,0.0,1.1279,1.1645,1.1763,1.2412,1.2754,0.0,0.0,0.0,0.0,0.0,0.0,1.2393,1.1973,1.1881,1.2096,1.2106,1.2155,1.2217,1.2691,1.3344,1.4136,1.5158,1.6218,1.7298,1.7885,1.8323,1.8606,1.8468,1.8254,1.7915,1.6798,1.6568,1.6943,1.6822,1.709,1.7452,1.6549,1.6407,1.6537,0.0,0.0,0.0,0.0,0.0,0.0,0.0,0.0,0.0,0.0,0.0,-0.1812,-0.1808,-0.0765,-0.0514,-0.1618,-0.0654,-0.0,-0.0,-0.0,-0.0,-0.0,-0.0,-0.0,-0.0,-0.0,0.004,0.0125,0.0992,0.2299,0.4006,0.4498,0.4772,0.4806,0.4991,0.5023,0.4867,0.4568,0.4358,0.4147,0.39,0.0,0.0,0.0,0.0,0.0,0.0,0.0,0.0,0.0,0.0,0.0,0.0,0.0,0.0,0.0,0.0,0.0,0.0,0.0,0.0,0.0,0.0,0.0,0.0,0.0,0.0,0.0,0.0,0.0,0.0,0.0,0.0,0.0,0.0,0.0,0.0,0.0,0.0,1.2102,1.2607,0.0,0.0,0.0,0.0,1.2881,1.248,1.2412,1.2832,1.2432,1.2568,1.3379,1.3408,1.3603,1.3951,1.4654,1.4997,1.5018,1.5676,1.6632,1.7843,1.7906,1.859,1.9698,1.9196,1.9246,1.9597,1.853,1.8073,1.813,1.8087,1.8403,1.8604,1.7049,1.7155,1.7925,0.0,0.0,0.0,0.0,0.0,0.0,0.0,0.0,-0.1798,-0.1794,-0.1793,-0.151,-0.0716,-0.0958,-0.1031,-0.0651,-0.0269,-0.0,-0.0,-0.0,-0.0,-0.0,-0.0,-0.0,-0.0,-0.0,-0.0,-0.0,0.0303,0.0805,0.1475,0.2611,0.38,0.5011,0.5058,0.5044,0.5043,0.4843,0.4613,0.4358,0.406,0.3849,0.0,0.0,0.0,0.0,0.0,0.0,0.0,0.0,0.0,0.0,0.0,0.0,0.0,0.0,0.0,0.0,0.0,0.0,0.0,0.0,0.0,0.0,0.0,0.0,0.0,0.0,0.0,0.0,0.0,0.0,0.0,0.0,0.0,0.0,0.0,0.0,0.0,1.2598,1.2783,0.0,1.3262,1.3281,1.3281,1.3281,1.3389,1.3525,1.3682,1.3494,1.3594,1.3896,1.3916,1.3922,1.4077,1.4631,1.4934,1.4944,1.6158,1.686,1.7071,1.8638,1.9479,1.9697,2.0312,2.0715,2.0853,2.0476,1.9674,1.8703,1.8703,1.8613,1.8364,1.7785,1.7868,1.8142,0.0,0.0,0.0,0.0,0.0,0.0,0.0,0.0,-0.1569,-0.1775,-0.1442,-0.104,-0.0647,-0.0953,-0.0852,-0.0049,-0.0,-0.0,-0.0,-0.0,-0.0,-0.0,-0.0,-0.0,-0.0,-0.0,-0.0,-0.0,-0.0,-0.0,-0.0,0.1008,0.2772,0.5107,0.5219,0.5328,0.5292,0.526,0.4955,0.4521,0.4324,0.4155,0.3992,0.0,0.0,0.0,0.0,0.0,0.0,0.0,0.0,0.0,0.0,0.0,0.0,0.0,0.0,0.0,0.0,0.0,0.0,0.0,0.0,0.0,0.0,0.0,0.0,0.0,0.0,0.0,0.0,0.0,0.0,0.0,0.0,0.0,0.0,1.1928,1.2311,1.3037,1.3213,1.3408,1.3691,1.3721,1.3721,1.3721,1.3975,1.4145,1.4346,1.4355,1.4424,1.4561,1.4707,1.4717,1.4561,1.5146,1.5361,1.5282,1.6763,1.7434,1.7427,1.9391,2.0289,2.0268,2.1151,2.1594,2.1769,2.1769,2.1129,2.0087,1.951,1.9058,1.8706,1.8342,1.8317,1.848,0.0,0.0,0.0,0.0,0.0,0.0,0.0,-0.1314,-0.1116,-0.1661,-0.0723,-0.0456,-0.1621,-0.0709,-0.0,-0.0,-0.0,-0.0,-0.0,-0.0,-0.0,-0.0,-0.0,-0.0,-0.0,-0.0,-0.0,-0.0,-0.0,-0.0,-0.0,-0.0,0.1781,0.4937,0.5483,0.5698,0.5689,0.5745,0.5389,0.4724,0.4711,0.4609,0.4477,0.0,0.0,0.0,0.0,0.0,0.0,0.0,0.0,0.0,0.0,0.0,0.0,0.0,0.0,0.0,0.0,0.0,0.0,0.0,0.0,0.0,0.0,0.0,0.0,0.0,0.0,0.0,0.0,0.0,0.0,0.0,0.0,0.0,1.2024,1.1983,1.2232,1.3394,1.3854,1.4107,1.4116,1.4126,1.4136,1.4116,1.4136,1.4365,1.4785,1.4814,1.501,1.542,1.5859,1.5879,1.5459,1.6299,1.6514,1.6145,1.7369,1.8362,1.9052,1.9983,2.0758,2.145,2.1531,2.1845,2.2334,2.2334,2.2334,2.2171,2.0501,1.9849,1.9698,1.8643,1.8545,1.8995,0.0,0.0,0.0,0.0,0.0,0.0,0.0,-0.1661,-0.1296,-0.0579,-0.0196,-0.0135,-0.0457,-0.0179,-0.0,-0.0,-0.0,-0.0,-0.0,-0.0,-0.0,-0.0,-0.0,-0.0,-0.0,-0.0,-0.0,-0.0,-0.0,-0.0,-0.0,-0.0,0.0519,0.1545,0.4388,0.5741,0.5781,0.5808,0.5745,0.563,0.5148,0.4857,0.4589,0.0,0.0,0.0,0.0,0.0,0.0,0.0,0.0,0.0,0.0,0.0,0.0,0.0,0.0,0.0,0.0,0.0,0.0,0.0,0.0,0.0,0.0,0.0,0.0,0.0,0.0,0.0,0.0,0.0,0.0,0.0,1.0257,1.0817,1.2231,1.2373,1.2859,1.4291,1.3969,1.3696,1.3977,1.4328,1.4382,1.4023,1.4993,1.5449,1.5254,1.5537,1.5762,1.5879,1.6318,1.6484,1.6367,1.6548,1.667,1.6553,1.7238,1.746,1.7409,1.9552,2.0481,2.0461,2.2014,2.2761,2.2852,2.2852,2.2852,2.2786,2.1518,2.0778,2.0338,1.9623,1.9142,1.8839,0.0,0.0,0.0,0.0,0.0,0.0,0.0,-0.1794,-0.1544,-0.0843,-0.0323,-0.0,-0.0,-0.0,-0.0,-0.0,-0.0,-0.0,-0.0,-0.0,-0.0,-0.0,-0.0,-0.0,-0.0,-0.0,-0.0,-0.0,-0.0,-0.0,-0.0,-0.0,-0.0,0.007,0.2298,0.4237,0.5762,0.4969,0.4745,0.4857,0.5472,0.5488,0.5118,0.4755,0.4602,0.4555,0.4368,0.4474,0.4669,0.4803,0.0,0.0,0.0,0.0,0.0,0.0,0.0,0.0,0.0,0.0,0.0,0.0,0.0,0.0,0.0,0.0,0.0,0.0,0.0,0.0,0.0,0.0,0.0,0.0,1.0207,1.0885,1.201,1.2228,1.2666,1.3983,1.3838,1.3716,1.3939,1.4531,1.4827,1.4595,1.569,1.623,1.5977,1.6201,1.6338,1.6338,1.6777,1.6914,1.6665,1.709,1.7178,1.7012,1.7815,1.8082,1.7839,1.9759,2.0434,2.0239,2.1537,2.2051,2.2051,2.2051,2.2249,2.2555,0.0,0.0,0.0,0.0,1.9078,1.8286,0.0,0.0,0.0,0.0,0.0,0.0,0.0,-0.1791,-0.1799,-0.1806,-0.0798,-0.0069,-0.0,-0.0,-0.0,-0.0,-0.0,-0.0,-0.0,-0.0,-0.0,-0.0,-0.0,-0.0,-0.0,-0.0,-0.0,-0.0,-0.0,-0.0,-0.0,-0.0,-0.0,-0.0,-0.0,0.1908,0.5065,0.3674,0.3138,0.3275,0.5629,0.6295,0.581,0.5372,0.5281,0.5332,0.4918,0.5024,0.5314,0.5115,0.0,0.0,0.0,0.0,0.0,0.0,0.0,0.0,0.0,0.0,0.0,0.0,0.0,0.0,0.0,0.0,0.0,0.0,0.0,0.0,0.0,0.0,0.0,0.0,1.0108,1.0975,1.1714,1.1811,1.216,1.3188,1.3598,1.3816,1.3816,1.4569,1.5168,1.5189,1.6066,1.665,1.6675,1.6777,0.0,0.0,0.0,1.7266,1.6875,1.7627,1.7842,1.7529,1.8675,1.9281,1.9323,2.0172,2.0596,2.054,2.0604,2.0646,2.059,2.059,2.1037,2.1756,2.1977,2.2056,2.1766,2.0033,1.8571,1.7468,0.0,0.0,0.0,0.0,0.0,0.0,0.0,-0.1791,-0.1808,-0.1793,-0.1166,-0.0538,-0.0064,-0.0,-0.0,-0.0,-0.0,-0.0,-0.0,-0.0,-0.0,-0.0,-0.0,-0.0,-0.0,-0.0,-0.0,-0.0,-0.0,-0.0,-0.0,-0.0,-0.0,-0.0,-0.0,0.0394,0.1223,0.2539,0.3099,0.328,0.5621,0.6556,0.6384,0.5878,0.562,0.5518,0.5308,0.5342,0.5336,0.5054,0.5378,0.598,0.6179,0.645,0.0,0.0,0.0,0.0,0.0,0.0,0.0,0.0,0.0,0.0,0.0,0.0,0.0,0.0,0.0,0.0,0.0,0.0,0.0,1.0235,1.0471,1.0923,1.1765,1.1888,1.2355,1.3613,1.3437,1.3231,1.3231,1.3676,1.4205,1.4604,1.5521,1.6263,1.6685,1.7061,1.7256,1.7256,1.7666,1.7852,1.7764,1.793,1.8135,1.8389,1.8606,0.0,1.931,2.0201,2.0408,2.0037,2.0775,2.0884,2.059,2.059,2.0719,2.0819,2.0772,2.0499,1.9929,1.8504,1.7445,1.681,0.0,0.0,0.0,0.0,0.0,0.0,0.0,-0.1794,-0.1802,-0.1805,-0.1526,-0.1004,-0.0092,-0.0,-0.0,-0.0,-0.0,-0.0,-0.0,-0.0,-0.0,-0.0,-0.0,-0.0,-0.0,-0.0,-0.0,-0.0,-0.0,-0.0,-0.0,-0.0,-0.0,-0.0,-0.0,-0.0,0.0083,0.1117,0.1576,0.1679,0.2857,0.4637,0.6642,0.6388,0.616,0.5949,0.5867,0.5667,0.5443,0.5216,0.5468,0.5803,0.5887,0.611,0.6441,0.0,0.0,0.0,0.0,0.0,0.0,0.0,0.0,0.0,0.0,0.0,0.0,0.0,0.0,0.9112,0.9406,0.0,1.0094,1.0681,1.0902,1.1196,1.1784,1.1997,1.2384,1.2987,1.2835,1.2727,1.2727,1.3295,1.403,1.4759,1.5299,1.6052,1.7307,1.7292,1.7425,1.7705,1.8105,1.832,1.832,1.832,1.8428,1.8562,1.8857,1.8965,1.8965,1.9675,1.9788,1.9636,2.0048,1.9996,1.9624,1.9845,1.9944,1.9933,1.9649,1.9336,1.9019,1.8359,1.7332,1.6402,0.0,0.0,0.0,0.0,0.0,0.0,0.0,-0.1753,-0.1796,-0.179,-0.1798,-0.1376,-0.029,-0.0058,-0.0,-0.0,-0.0,-0.0,-0.0,-0.0,-0.0,-0.0,-0.0,-0.0,-0.0,-0.0,-0.0,-0.0,-0.0,-0.0,-0.0,-0.0,-0.0,-0.0,-0.0,-0.0,-0.0,-0.0,-0.0,-0.0,-0.0,0.2158,0.5479,0.5959,0.627,0.6354,0.6264,0.5905,0.5521,0.5369,0.5449,0.5599,0.5665,0.5845,0.6072,0.5862,0.5671,0.0,0.0,0.0,0.0,0.0,0.0,0.0,0.0,0.7749,0.839,0.8798,0.9252,0.9693,1.0047,1.0494,1.0994,1.1276,1.1483,1.1703,1.1997,1.2191,1.2305,1.2305,1.2305,1.2305,1.2305,1.2952,1.381,1.4807,1.4879,1.5692,1.7408,1.7293,1.7438,1.7916,1.8443,1.876,1.876,1.876,1.8809,1.8887,1.9238,1.9268,1.9023,1.9375,1.9492,1.9404,1.9316,1.9043,1.8613,1.8995,1.9116,1.9013,1.863,1.8485,1.8464,1.8288,1.7397,1.623,0.0,0.0,0.0,0.0,0.0,0.0,0.0,0.0,-0.1801,-0.1808,-0.1809,-0.155,-0.0883,-0.0325,-0.0,-0.0,-0.0,-0.0,-0.0,-0.0,-0.0,-0.0,-0.0,-0.0,-0.0,-0.0,-0.0,-0.0,-0.0,-0.0,-0.0,-0.0,-0.0,-0.0,-0.0,-0.0,-0.0,-0.0,-0.0,-0.0,-0.0,0.0274,0.0986,0.3152,0.5134,0.6637,0.6006,0.5597,0.5362,0.5209,0.505,0.5069,0.5603,0.5706,0.5698,0.5911,0.5771,0.5499,0.5474,0.5607,0.5942,0.6717,0.7132,0.7735,0.0,0.9409,0.9719,1.0528,1.0755,1.0969,1.1523,1.1683,1.1975,1.2533,1.2358,1.2305,1.2681,1.2445,1.2305,1.2305,1.2305,1.2305,1.2305,1.2372,1.2879,1.381,1.3882,1.4439,1.5763,1.6712,1.7325,1.7714,1.8661,1.9219,1.9219,1.9219,1.9404,1.9775,1.9824,2.0019,2.0352,2.04,2.0215,1.9824,1.9453,1.9043,1.8633,1.8654,1.8478,1.8134,1.8085,1.8065,1.7976,1.7209,1.6801,1.6611,0.0,0.0,0.0,0.0,0.0,0.0,0.0,0.0,0.0,-0.1806,-0.1791,-0.1705,-0.1455,-0.0579,-0.029,-0.0987,-0.0417,-0.0,-0.0,-0.0,-0.0,-0.0,-0.0,-0.0,-0.0,-0.0,-0.0,-0.0,-0.0,-0.0,-0.0,-0.0,-0.0,-0.0,-0.0,-0.0,-0.0,-0.0,-0.0,-0.0,-0.0,-0.0,0.0085,0.1141,0.2097,0.3171,0.548,0.5876,0.0,0.4896,0.4766,0.4891,0.5086,0.5147,0.5072,0.4984,0.4783,0.4646,0.4646,0.5067,0.5539,0.5553,0.7041,0.8545,0.8795,0.9806,1.0848,1.139,1.1637,1.1884,1.2305,1.2525,1.2732,1.2979,1.2759,1.2605,1.2802,1.2345,1.2051,1.2051,1.1897,1.1924,1.2271,1.2305,1.2659,1.36,1.3171,1.366,1.5528,1.6334,1.7059,1.7701,1.8993,1.9648,1.9648,1.9648,1.9736,1.9922,2.0176,2.0254,2.0195,2.0449,2.0469,2.0273,1.9834,1.9551,1.9365,1.9121,1.8769,1.8379,1.8379,1.8223,1.7969,1.7607,1.7324,1.7119,0.0,0.0,0.0,0.0,0.0,0.0,0.0,0.0,0.0,0.0,-0.1791,-0.1794,-0.1798,-0.0714,-0.0423,-0.1457,-0.0897,-0.0353,-0.0032,-0.0,-0.0,-0.0,-0.0,-0.0,-0.0,-0.0,-0.0,-0.0,-0.0,-0.0,-0.0,-0.0,-0.0,-0.0,-0.0,-0.0,-0.0,-0.0,-0.0,-0.0,-0.0,-0.0,-0.0,-0.0,-0.0,0.0449,0.368,0.479,0.465,0.4053,0.4128,0.4484,0.4608,0.4657,0.4577,0.4267,0.4111,0.4019,0.4019,0.4547,0.5108,0.4993,0.6855,0.865,0.843,0.9881,1.1384,1.1822,1.2293,1.2656,1.2635,1.3015,1.322,1.2816,1.2791,1.2822,1.2822,1.2311,1.187,1.187,1.1603,1.159,1.2017,1.2138,1.2503,1.323,1.2666,1.3047,1.4862,1.5861,1.6784,1.7558,1.9231,2.0088,2.0088,2.0088,2.0088,2.0098,2.041,2.04,2.0098,2.042,2.0566,2.0547,2.0234,2.0029,1.9893,1.959,1.9209,1.8818,1.8818,1.8633,1.835,1.8223,1.792,1.7578,0.0,0.0,0.0,0.0,0.0,0.0,0.0,0.0,0.0,0.0,0.0,0.0,0.0,-0.0714,-0.0245,-0.087,-0.1418,-0.1256,-0.0084,-0.0,-0.0,-0.0,-0.0,-0.0,-0.0,-0.0,-0.0,-0.0,-0.0,-0.0,-0.0,-0.0,-0.0,-0.0,-0.0,-0.0,-0.0,-0.0,-0.0,-0.0,-0.0,-0.0,-0.0,-0.0,-0.0,-0.0,0.0169,0.1505,0.3071,0.2468,0.2901,0.3717,0.4336,0.4481,0.4449,0.4245,0.4086,0.4019,0.4019,0.4341,0.4921,0.5894,0.6647,0.744,0.8637,0.9959,1.121,1.1793,1.2751,1.3267,1.227,1.2953,1.3202,1.195,1.2311,1.2822,1.2822,1.2311,1.187,1.187,1.1603,1.143,1.145,1.171,1.1997,1.2352,1.2298,1.2565,1.3239,1.5242,1.6704,1.7284,1.9413,2.0547,2.0547,2.0547,2.0547,2.0547,2.0557,2.0557,2.0547,2.0557,2.0566,2.0566,2.0547,2.0303,1.9912,1.9902,1.9648,1.9268,1.9268,1.9258,1.9199,1.8769,1.835,1.7784,0.0,0.0,0.0,0.0,0.0,0.0,0.0,0.0,0.0,0.0,0.0,0.0,0.0,0.0,0.0,0.0,-0.1686,-0.1467,-0.0638,-0.0225,-0.0,-0.0,-0.0,-0.0,-0.0,-0.0,-0.0,-0.0,-0.0,-0.0,-0.0,-0.0,-0.0,-0.0,-0.0,-0.0,-0.0,-0.0,-0.0,-0.0,-0.0,-0.0,-0.0,-0.0,-0.0,-0.0,0.0,0.0467,0.102,0.0799,0.1469,0.243,0.2622,0.2837,0.312,0.3973,0.4278,0.4368,0.4562,0.4945,0.5425,0.5926,0.7021,0.8128,0.8761,0.9809,1.0988,1.1832,1.1962,1.1951,1.2158,1.1821,1.1384,1.1025,1.1255,1.1476,1.159,1.1747,1.1797,1.1597,1.1316,1.1136,1.1136,1.1403,1.1697,1.1991,1.2011,1.2365,1.3166,1.4569,1.5952,1.7236,1.8789,1.9844,2.0566,2.0566,2.0566,2.0566,2.0566,2.0566,2.0576,2.0869,2.084,2.0576,2.0879,2.0752,2.0342,2.0342,2.0098,1.9707,1.9707,1.9531,1.9165,1.8065,1.7608,1.7352,0.0,0.0,0.0,0.0,0.0,0.0,0.0,0.0,0.0,0.0,0.0,0.0,0.0,0.0,0.0,0.0,0.0,-0.1643,-0.1241,-0.0442,-0.0099,-0.0325,-0.0533,-0.0535,-0.0324,-0.0333,-0.0341,-0.03,-0.0103,-0.0,-0.0,-0.0,-0.0,-0.0,-0.0,-0.0,-0.0,-0.0,-0.0,-0.0,-0.0,-0.0,-0.0,-0.0,-0.0,0.0,-0.0,-0.0,-0.0,-0.0,0.0529,0.1169,0.1137,0.1259,0.1739,0.3315,0.4257,0.4886,0.5061,0.5447,0.5915,0.6264,0.7211,0.8092,0.832,0.9196,1.0115,1.0643,1.0652,1.0523,1.0532,1.0108,0.9708,0.9361,0.9858,1.0475,1.0767,1.1237,1.1563,1.1583,1.1323,1.1149,1.1149,1.1316,1.155,1.1844,1.2136,1.2485,1.3173,1.4302,1.5699,1.7236,1.839,1.952,2.0566,2.0566,2.0566,2.0566,2.0566,2.0566,2.0576,2.0869,2.084,2.0576,2.0869,2.083,2.0566,2.0566,2.04,2.0146,2.0146,1.9744,1.9051,1.7889,1.6949,1.6275,0.0,0.0,0.0,0.0,0.0,0.0,0.0,0.0,0.0,0.0,0.0,0.0,0.0,0.0,0.0,0.0,0.0,0.0,-0.1798,-0.0721,-0.0343,-0.0883,-0.1471,-0.152,-0.0969,-0.0934,-0.0936,-0.0938,-0.0392,-0.008,-0.0,-0.0,-0.0,-0.0,-0.0,-0.0,-0.0,-0.0,-0.0,-0.0,-0.0,-0.0,-0.0,-0.0,-0.0,-0.0,-0.0,0.0084,0.0169,0.0169,0.0218,0.0227,0.0142,0.0151,0.0532,0.2568,0.4219,0.5432,0.5463,0.5919,0.641,0.6834,0.7156,0.737,0.737,0.812,0.8691,0.8235,0.8928,0.9066,0.7605,0.8019,0.821,0.7051,0.827,0.9569,1.0236,1.0744,1.1215,1.183,1.1657,1.149,1.147,1.1483,1.161,1.1897,1.2493,1.2872,1.3213,1.4504,1.5844,1.7245,1.831,1.9441,2.0566,2.0566,2.0566,2.0566,2.0566,2.0566,2.0566,2.0586,2.0586,2.0566,2.0586,2.0586,2.0566,2.0566,2.0566,2.0566,2.0537,1.9904,1.8937,1.8046,1.6464,1.4704,0.0,0.0,0.0,0.0,0.0,0.0,0.0,0.0,0.0,0.0,0.0,0.0,0.0,0.0,0.0,0.0,0.0,0.0,-0.1798,-0.1503,-0.1201,-0.0903,-0.1484,-0.1727,-0.1577,-0.1568,-0.1589,-0.1566,-0.1414,-0.087,-0.0,-0.0,-0.0,-0.0,-0.0,-0.0,-0.0,-0.0,-0.0,-0.0,-0.0,-0.0,-0.0,-0.0,-0.0,-0.0,-0.0,0.1153,0.2684,0.2685,0.297,0.3186,0.2311,0.2035,0.2404,0.4401,0.551,0.6091,0.6103,0.6464,0.6943,0.7058,0.7231,0.737,0.737,0.7249,0.7226,0.7831,0.7464,0.7163,0.7427,0.6859,0.6325,0.6214,0.699,0.7915,0.904,1.0321,1.1378,1.2125,1.2318,1.2325,1.2098,1.2278,1.252,1.2593,1.2452,1.2746,1.3494,1.3838,1.5057,1.7245,1.7585,1.863,2.0566,2.0566,2.0566,2.0566,2.0566,2.0566,2.0576,2.0908,2.0879,2.0586,2.0918,2.0869,2.0566,2.0566,2.0566,2.0527,1.9418,1.9008,1.8664,1.622,1.5117,1.4627,0.0,0.0,0.0,0.0,0.0,0.0,0.0,0.0,0.0,0.0,0.0,0.0,0.0,0.0,0.0,0.0,0.0,0.0,0.0,-0.1809,-0.1655,-0.1314,-0.1612,-0.18,-0.1806,-0.1787,-0.1798,-0.1805,-0.1795,-0.145,-0.0768,-0.0259,-0.0,-0.0,-0.0,-0.0,-0.0,-0.0,-0.0,0.0,0.0,-0.0,-0.0,-0.0,-0.0,-0.0,-0.0,0.1729,0.3982,0.3986,0.4311,0.4595,0.4209,0.4158,0.4549,0.5713,0.6386,0.6743,0.6575,0.6939,0.7343,0.7343,0.7356,0.7319,0.7122,0.6715,0.6416,0.6561,0.6094,0.5758,0.6084,0.5578,0.5119,0.5316,0.6289,0.7404,0.8456,1.009,1.1443,1.2377,1.2721,1.2732,1.2705,1.2852,1.3006,1.3133,1.2986,1.3113,1.3532,1.3768,1.4634,1.6511,1.7009,1.8381,2.0566,2.0566,2.0566,2.0566,2.0566,2.0566,2.0576,2.083,2.0801,2.0576,2.083,2.0801,2.0566,2.0566,2.0566,2.0459,1.9182,1.8522,1.7949,1.5451,1.4337,1.3967,0.0,0.0,0.0,0.0,0.0,0.0,0.0,0.0,0.0,0.0,0.0,0.0,0.0,0.0,0.0,0.0,0.0,0.0,0.0,0.0,-0.1794,-0.1806,-0.1794,-0.1794,-0.1806,-0.1794,-0.1797,-0.1802,-0.1712,-0.169,-0.1661,-0.0539,-0.0,-0.0,-0.0,-0.0,-0.0,-0.0,-0.0,-0.0,-0.0,-0.0,-0.0,0.0,0.0144,0.0363,0.0462,0.2106,0.4313,0.4435,0.4661,0.5076,0.5589,0.599,0.6328,0.651,0.6904,0.7268,0.7001,0.7258,0.7563,0.7543,0.7411,0.717,0.6739,0.6366,0.5918,0.524,0.4972,0.4775,0.4567,0.4519,0.4525,0.4543,0.5914,0.7308,0.8302,0.9892,1.1391,1.2672,1.2882,1.2926,1.324,1.3267,1.3373,1.3546,1.3681,1.3701,1.3701,1.3948,1.4657,1.5861,1.7082,1.863,2.0566,2.0566,2.0566,2.0566,2.0566,2.0566,2.0566,2.0566,2.0566,2.0566,2.0566,2.0566,2.0566,2.0566,2.0489,2.0313,1.914,1.8072,1.6855,1.5131,1.3981,1.3106,0.0,0.0,0.0,0.0,0.0,0.0,0.0,0.0,0.0,0.0,0.0224,-0.0157,0.0,0.0,0.0,0.0,0.0,0.0,0.0,0.0,0.0,-0.1794,-0.1798,-0.1798,-0.1794,-0.1798,-0.1803,-0.1811,-0.1306,-0.1064,-0.1051,-0.0339,-0.0,-0.0,-0.0,-0.0,-0.0,-0.0,-0.0,-0.0,-0.0,-0.0,-0.0,-0.0,0.0,0.0,0.2791,0.3103,0.3373,0.4008,0.4736,0.5336,0.546,0.5738,0.6122,0.6548,0.6726,0.685,0.7031,0.7255,0.738,0.7251,0.7017,0.6732,0.641,0.5813,0.5257,0.5006,0.4735,0.458,0.4529,0.4519,0.456,0.4629,0.5537,0.6748,0.8348,0.9702,1.1174,1.2935,1.3126,1.3247,1.354,1.3567,1.3587,1.3641,1.3874,1.4008,1.4008,1.4055,1.4985,1.6927,1.8948,2.0235,2.0566,2.0566,2.0566,2.0566,2.0566,2.0566,2.0566,2.0566,2.0566,2.0566,2.0566,2.0566,2.0566,2.0566,2.0079,1.9158,1.7787,1.6635,1.5458,1.3726,1.3049,1.2786,0.0,0.0,0.0,0.0,0.0,0.0,0.0,0.1547,0.1366,0.1366,0.1121,0.0694,0.0067,-0.0,-0.0111,0.0,0.0,0.0,0.0,0.0,0.0,0.0,0.0,0.0,-0.1343,-0.1639,-0.1804,-0.1807,0.0,-0.1053,-0.0418,-0.0132,-0.0,-0.0,-0.0,-0.0,-0.0,-0.0,-0.0,-0.0,-0.0,-0.0,0.0101,0.0,0.0,0.0,0.3034,0.3148,0.324,0.3859,0.4478,0.5065,0.5404,0.5789,0.6237,0.6688,0.6871,0.698,0.72,0.7316,0.7333,0.718,0.6803,0.6373,0.5996,0.5447,0.4955,0.4728,0.4565,0.4519,0.4519,0.4787,0.4919,0.4615,0.6015,0.7384,0.8201,0.9685,1.123,1.2556,1.2872,1.3086,1.3387,1.342,1.342,1.342,1.3547,1.3768,1.4075,1.4088,1.4817,1.6437,1.806,1.9195,1.9766,2.0323,2.0566,2.0566,2.0566,2.0566,2.0566,2.0566,2.0566,2.0566,2.0566,2.0566,2.0566,2.0001,1.9441,1.8859,1.6967,1.5944,1.5308,1.3666,1.2986,1.2946,0.0,0.0,0.0,0.0,0.0,0.0,0.0,0.1883,0.1861,0.1816,0.1794,0.1477,0.06,0.0311,0.0201,0.0,0.0,0.0,0.0,0.0,0.0,0.0,0.0,0.0,-0.0713,0.0,0.0,-0.1403,-0.1419,0.0,0.0,0.0,0.0,0.0,0.0317,0.0303,0.0204,0.0201,0.0181,0.0,0.0,0.0264,0.0429,0.0,0.0,0.0,0.0,0.2934,0.3232,0.3687,0.412,0.4558,0.5159,0.5722,0.6234,0.6583,0.6814,0.6993,0.7177,0.7227,0.719,0.7034,0.6552,0.6006,0.5586,0.5145,0.4752,0.4567,0.4519,0.4519,0.4677,0.5164,0.5378,0.5007,0.6729,0.8091,0.8111,0.9705,1.1156,1.2098,1.2418,1.2726,1.3166,1.3213,1.3213,1.3213,1.3267,1.3507,1.3968,1.4294,1.4817,1.5696,1.7009,1.8069,1.8957,2.0079,2.0566,2.0566,2.0401,2.0401,2.0566,2.0323,2.0401,2.0566,2.0566,2.0489,2.0157,1.9362,1.8718,1.8141,1.6347,1.5493,1.5039,1.3707,1.3166,1.3066,0.0,0.0,0.0,0.0,0.0,0.0,0.0,0.2154,0.2066,0.1828,0.1806,0.1898,0.2148,0.1361,0.0825,0.0,0.0,0.0,0.0,0.0,0.0,0.0,0.0,0.0,0.0,0.0,0.0,-0.0176,-0.0155,0.0,0.0,0.0,0.0,0.0,0.0,0.1336,0.0809,0.082,0.0,0.0,0.0,0.0,0.0,0.0,0.0,0.0,0.0,0.2867,0.285,0.3444,0.3681,0.3785,0.4433,0.5152,0.585,0.5891,0.6112,0.6403,0.6685,0.6763,0.6725,0.6573,0.6088,0.5566,0.5247,0.4826,0.4553,0.4522,0.4519,0.4677,0.5269,0.5433,0.5706,0.6312,0.7144,0.794,0.8457,0.9506,1.0621,1.1777,1.1937,1.2285,1.3126,1.3213,1.3213,1.3213,1.3454,1.3627,1.3681,1.4896,1.5621,1.5696,1.7738,1.8877,1.9036,2.0079,2.0566,2.0566,1.9599,1.9678,2.0566,1.9599,1.9678,2.0566,2.0566,2.0079,1.9116,1.9036,1.7819,1.5944,1.5779,1.4957,1.3722,1.3327,1.3033,1.2822,0.0,0.0,0.0,0.0,0.0,0.0,0.2789,0.2746,0.2644,0.2372,0.235,0.2398,0.256,0.2215,0.184,0.1469,0.0,0.0,0.0,0.0,0.0,0.0,0.0,0.0,0.0,0.0,0.087,0.1072,0.1072,0.0,0.0,0.0,0.0,0.0,0.0,0.1668,0.1444,0.1444,0.0,0.0,0.0,0.0,0.0,0.0,0.0,0.0,0.0,0.0,0.2744,0.3164,0.3364,0.3497,0.3826,0.43,0.4836,0.5379,0.5749,0.6051,0.6352,0.6566,0.662,0.6288,0.5827,0.5372,0.5074,0.4657,0.4358,0.4498,0.4842,0.5164,0.5433,0.6249,0.6794,0.6642,0.7616,0.8346,0.8381,0.9195,1.0227,1.1223,1.1496,1.1884,1.2599,1.2665,1.2739,1.2919,1.3213,1.346,1.3552,1.4324,1.4734,1.4734,1.6191,1.7001,1.7001,1.806,1.8621,1.863,1.8877,1.9204,1.9599,1.9844,2.0167,2.0566,1.9923,1.9362,1.8877,1.7568,1.6511,1.5621,1.4977,1.442,1.3854,1.3387,1.3133,1.2953,0.0,0.0,0.0,0.0,0.0,0.364,0.3376,0.3271,0.3129,0.2864,0.274,0.2719,0.281,0.2826,0.2649,0.2215,0.2118,0.0,0.0,0.0,0.0,0.0,0.0,0.0,0.0,0.0,0.1363,0.1798,0.1794,0.1794,0.0,0.0,0.1627,0.1185,0.0,0.0,0.0,0.0,0.0,0.0,0.0,0.0,0.0,0.0,0.0,0.0,0.0,0.0,0.0,0.0,0.0,0.3269,0.3463,0.3687,0.4029,0.4752,0.5206,0.5538,0.5844,0.6112,0.6227,0.5911,0.5494,0.5108,0.4897,0.4482,0.4287,0.4703,0.5164,0.5651,0.6086,0.7009,0.7616,0.7289,0.8103,0.8718,0.8416,0.9078,0.9813,1.0521,1.0862,1.1336,1.2098,1.2331,1.2599,1.2986,1.3133,1.338,1.3754,1.3975,1.4088,1.4088,1.5137,1.5696,1.5696,1.6764,1.7504,1.7827,1.831,1.8877,1.952,1.9923,2.0323,2.0566,1.9441,1.8798,1.839,1.6429,1.5538,1.5137,1.4412,1.4088,1.4015,1.3427,1.3213,1.3126,0.0,0.0,0.0,0.0,0.0,0.0,0.3935,0.3674,0.341,0.3129,0.2864,0.281,0.3068,0.3093,0.3093,0.3089,0.2853,0.0,0.0,0.0,0.0,0.0,0.0,0.0,0.0,0.0,0.1787,0.1798,0.1809,0.1803,0.1806,0.2008,0.1978,0.1809,0.0,0.0,0.0,0.0,0.0,0.0,0.0,0.0,0.0,0.0,0.0,0.0,0.0,0.0,0.0,0.0,0.0,0.0,0.0,0.3459,0.3643,0.3944,0.4351,0.4765,0.506,0.5257,0.5439,0.5435,0.503,0.4697,0.4694,0.4463,0.4442,0.5291,0.5487,0.5923,0.7396,0.767,0.7943,0.8646,0.8804,0.8804,0.8811,0.901,0.9359,0.9659,0.9953,1.0595,1.1757,1.2472,1.2993,1.3587,1.3367,1.3467,1.4048,1.4088,1.4088,1.4088,1.5137,1.5696,1.5696,1.6764,1.7908,1.8957,1.7827,1.847,2.0566,1.952,1.9599,2.0566,1.9441,1.839,1.7253,1.6191,1.5054,1.4088,1.4088,1.4088,1.4015,1.3427,1.3213,1.3126,0.0,0.0,0.0,0.0,0.0,0.0,0.0,0.4807,0.4768,0.4494,0.4395,0.4304,0.4212,0.4183,0.4111,0.3937,0.3347,0.0,0.0,0.0,0.0,0.0,0.0,0.0,0.0,0.0,0.2415,0.242,0.2415,0.2415,0.242,0.267,0.2656,0.2425,0.2674,0.2651,0.0,0.0,0.0,0.0,0.0,0.0,0.3448,0.0,0.0,0.0,0.0,0.0,0.0,0.0,0.0,0.0,0.0,0.0,0.0,0.4262,0.4328,0.4484,0.5072,0.5449,0.5736,0.5914,0.5454,0.5127,0.5601,0.5259,0.5072,0.6079,0.6632,0.7122,0.7616,0.8103,0.8533,0.8752,0.8804,0.8804,0.8804,0.8884,0.9205,0.9893,1.0588,1.1236,1.1817,1.2037,1.2392,1.2986,1.314,1.3687,1.488,1.4379,1.4088,1.4088,1.4412,1.4573,1.4573,1.4901,1.5628,1.6756,1.709,1.806,1.952,1.9923,1.9844,1.9441,1.831,1.7253,1.6108,1.5061,1.4412,1.4088,1.4088,1.4088,1.4015,1.3427,1.3213,1.3126,0.0,0.0,0.0,0.0,0.0,0.0,0.0,0.5459,0.544,0.526,0.5165,0.5049,0.4866,0.4846,0.4738,0.4469,0.409,0.0,0.0,0.0,0.0,0.0,0.0,0.0,0.2697,0.2697,0.274,0.2842,0.2842,0.2901,0.3008,0.3215,0.3157,0.2853,0.3092,0.2995,0.0,0.0,0.0,0.0,0.0,0.0,0.3715,0.0,0.0,0.0,0.0,0.0,0.0,0.0,0.0,0.0,0.0,0.0,0.0,0.0,0.4588,0.4709,0.5238,0.5561,0.5848,0.6034,0.5659,0.5376,0.5951,0.572,0.5729,0.665,0.7334,0.7777,0.8049,0.848,0.8804,0.8804,0.8804,0.8804,0.8804,0.8898,0.9212,0.9873,1.0635,1.1216,1.151,1.1737,1.2111,1.2775,1.3033,1.3798,1.5203,1.4782,1.4698,1.5304,1.4901,1.4901,1.5311,1.5311,1.5876,1.6919,1.7658,1.855,1.9599,2.0323,2.0001,1.8957,1.7827,1.6683,0.0,1.4573,1.4328,1.4727,1.4525,1.4483,1.4489,1.3794,1.3345,1.2966,0.0,0.0,0.0,0.0,0.0,0.0,0.0,0.576,0.559,0.5582,0.5373,0.5212,0.5212,0.5212,0.5097,0.4827,0.0,0.0,0.0,0.0,0.0,0.0,0.0,0.0,0.2826,0.2805,0.2928,0.3187,0.3187,0.3307,0.3557,0.37,0.3574,0.3199,0.3336,0.3175,0.0,0.0,0.0,0.0,0.0,0.0,0.0,0.0,0.0,0.0,0.0,0.0,0.0,0.0,0.0,0.0,0.0,0.0,0.0,0.0,0.0,0.0,0.0,0.5721,0.5818,0.5866,0.5721,0.5631,0.5841,0.6008,0.0,0.7188,0.7599,0.799,0.8699,0.8857,0.8857,0.8857,0.8857,0.8857,0.8857,0.9126,0.9422,0.9619,1.0248,1.0796,1.0962,1.1503,1.2078,1.2748,1.3006,1.3836,1.5287,1.5173,1.5805,1.7413,1.6359,1.6308,1.7253,1.7342,1.7908,1.9036,1.893,1.9492,2.0566,2.0498,1.9925,1.8753,1.7679,1.6619,1.5508,1.4538,1.4782,1.5636,1.5337,1.5203,1.5185,1.4478,1.3644,1.2775,0.0,0.0,0.0,0.0,0.0,0.0,0.0,0.0,0.0,0.0,0.6423,0.6416,0.6265,0.6247,0.6142,0.0,0.0,0.0,0.0,0.0,0.0,0.0,0.0,0.0,0.393,0.393,0.395,0.4012,0.4012,0.4053,0.4122,0.4401,0.4356,0.4027,0.432,0.4245,0.0,0.0,0.0,0.0,0.0,0.0,0.0,0.0,0.0,0.0,0.4634,0.4698,0.0,0.0,0.0,0.0,0.0,0.0,0.0,0.0,0.621,0.6605,0.6631,0.0,0.6223,0.6612,0.6395,0.62,0.0,0.6942,0.7073,0.7954,0.8339,0.8593,0.8752,0.9211,0.9562,0.9562,0.9562,0.9562,0.9562,1.0104,1.0228,0.9415,1.064,1.141,1.1028,1.1316,1.1777,1.2365,1.2685,1.371,1.5573,1.5081,1.5947,1.8742,1.7819,1.725,1.7334,1.7342,1.7908,1.9036,1.865,1.9214,2.0547,1.9883,1.8825,1.7361,1.6763,1.5558,1.4138,1.4777,1.5095,1.5322,1.6031,1.5677,1.4714,1.4312,1.3644,1.2775,0.0,0.0,0.0,0.0,0.0,0.0,0.0,0.0,0.0,0.0,0.0,0.6999,0.6888,0.6789,0.0,0.0,0.0,0.0,0.0,0.0,0.0,0.0,0.0,0.4609,0.4489,0.4609,0.4727,0.4854,0.4854,0.4854,0.4853,0.5034,0.4892,0.4475,0.454,0.4473,0.0,0.0,0.0,0.0,0.4358,0.0,0.0,0.0,0.0,0.0,0.5564,0.5626,0.0,0.5099,0.51,0.5312,0.0,0.0,0.0,0.0,0.6568,0.6979,0.6979,0.6768,0.6647,0.6937,0.6768,0.6685,0.7178,0.7374,0.758,0.8088,0.851,0.891,0.9211,0.9562,0.9917,1.0218,1.0012,0.9866,1.0023,1.0344,1.0621,1.0642,1.1659,1.2218,1.1815,1.2458,1.2914,1.2917,1.3673,1.4739,1.6358,1.5964,1.6828,1.9204,1.8493,1.8175,1.8243,1.8252,1.857,1.9116,1.8892,1.9212,1.9961,1.9039,1.7875,1.6508,1.5859,1.5139,1.442,1.4815,1.563,1.6599,1.6801,1.6397,1.5731,1.4941,1.4081,1.3177,0.0,0.0,0.0,0.0,0.0,0.0,0.0,0.0,0.0,0.0,0.0,0.0,0.0,0.0,0.0,0.0,0.0,0.0,0.0,0.0,0.0,0.0,0.5307,0.5136,0.4885,0.5107,0.5327,0.5563,0.5563,0.5555,0.5568,0.5568,0.5319,0.4864,0.4606,0.4507,0.0,0.4466,0.4492,0.4639,0.505,0.0,0.0,0.0,0.0,0.0,0.0,0.0,0.0,0.6098,0.6006,0.5928,0.5634,0.0,0.0,0.0,0.0,0.0,0.7231,0.7189,0.7105,0.7021,0.7054,0.7088,0.7088,0.7562,0.7996,0.7996,0.8474,0.9113,0.971,0.9969,1.0312,1.0864,1.0411,1.0053,1.0181,1.0489,1.1058,1.2107,1.2895,1.323,1.2989,1.3878,1.4359,1.3932,1.479,1.5836,1.7018,1.7018,1.7613,1.9082,1.874,1.8721,1.9092,1.9219,1.9287,1.9287,1.9219,1.9219,1.9287,1.833,1.7243,1.6062,1.5415,1.5064,1.5125,1.4995,1.619,1.8033,1.7442,1.7216,1.6965,1.578,1.4617,1.3745,0.0,0.0,0.0,0.0,0.0,0.0,0.0,0.0,0.0,0.0,0.0,0.0,0.0,0.0,0.0,0.0,0.0,0.0,0.0,0.0,0.0,0.663,0.6247,0.5939,0.5723,0.576,0.5808,0.5845,0.5845,0.5845,0.5837,0.5837,0.5789,0.5715,0.5432,0.5451,0.563,0.5175,0.5383,0.5992,0.6084,0.0,0.0,0.0,0.0,0.0,0.0,0.0,0.0,0.6427,0.6397,0.644,0.6533,0.0,0.0,0.0,0.0,0.0,0.8308,0.8111,0.7621,0.7105,0.7208,0.7446,0.7446,0.7869,0.831,0.831,0.9017,0.9666,0.9762,1.072,1.1516,1.1616,1.1336,1.0771,0.9909,1.1203,1.2109,1.167,1.3415,1.4451,1.4114,1.3742,1.3948,1.4925,1.4361,1.4816,1.6587,1.6657,1.7121,1.8203,1.8144,1.8135,1.8203,1.8926,1.9287,1.9287,1.8916,1.8936,1.9268,1.8395,1.7238,1.5905,1.6171,1.5599,1.4539,1.611,1.6934,1.7279,1.8033,1.768,1.6612,1.6002,1.4891,1.381,0.0,0.0,0.0,0.0,0.0,0.0,0.0,0.0,0.0,0.0,0.0,0.0,0.0,0.0,0.0,0.0,0.0,0.0,0.0,0.0,0.7472,0.7286,0.7066,0.6789,0.6451,0.6553,0.6592,0.6592,0.648,0.6388,0.6283,0.6027,0.5911,0.5893,0.5771,0.5789,0.5904,0.5957,0.6185,0.6561,0.0,0.0,0.0,0.0,0.0,0.0,0.0,0.0,0.0,0.0,0.6959,0.713,0.6997,0.0,0.0,0.0,0.0,0.0,0.8635,0.8521,0.8275,0.7979,0.7588,0.7314,0.7659,0.802,0.849,0.8981,0.9614,1.0192,1.078,1.1366,1.1737,1.1541,1.1956,1.194,1.1046,1.2003,1.2989,1.3239,1.4621,1.5337,1.4897,1.5475,1.5739,1.5558,1.5635,1.5967,1.6637,1.6628,1.6835,1.7249,1.7324,1.7432,1.7666,1.8066,1.8369,1.8594,1.8398,1.8398,1.8584,1.7672,1.6885,1.6253,1.5938,1.58,1.5846,1.6581,1.7266,1.7887,1.817,1.7754,1.691,1.5942,1.5167,1.4637,0.0,0.0,0.0,0.0,0.0,0.0,0.0,0.0,0.0,0.0,0.0,0.0,0.0,0.0,0.0,0.0,0.0,0.0,0.0,0.0,0.7994,0.7724,0.7841,0.7611,0.6986,0.7116,0.714,0.6987,0.6978,0.6898,0.6722,0.6376,0.6201,0.6201,0.6201,0.6254,0.6371,0.679,0.7076,0.7327,0.0,0.0,0.0,0.0,0.0,0.0,0.0,0.0,0.0,0.0,0.0,0.0,0.0,0.0,0.0,0.8434,0.8689,0.8918,0.9039,0.8999,0.8878,0.8878,0.8198,0.7645,0.82,0.8524,0.8989,0.9782,1.0306,1.0833,1.1661,1.1922,1.1959,1.1572,1.2385,1.2784,1.2131,1.2785,1.3746,1.4678,1.5605,1.5975,1.5679,1.6694,1.7006,1.6129,1.66,1.6876,1.6685,1.6665,1.6665,1.6665,1.6665,1.6894,1.7227,1.7227,1.7441,1.7861,1.7861,1.7812,1.7648,1.7098,1.6638,1.6432,1.6044,1.6325,1.708,1.6982,1.7486,1.8311,1.7988,1.7539,1.6977,1.5735,1.5396,1.546,0.0,0.0,0.0,0.0,0.0,0.0,0.0,0.0,0.0,0.0,0.0,0.0,0.0,0.0,0.0,0.0,0.0,0.0,0.0,0.0,0.8088,0.8061,0.853,0.8295,0.7193,0.7195,0.6932,0.6366,0.6916,0.7178,0.7148,0.7116,0.7101,0.7101,0.7101,0.731,0.7658,0.7698,0.8196,0.8941,0.8992,0.0,0.0,0.0,0.0,0.0,0.0,0.0,0.0,0.0,0.0,0.0,0.0,0.0,0.8344,0.9178,0.9412,0.9558,1.004,0.9843,0.9439,0.9439,0.9214,0.9036,0.9493,0.9807,1.0165,1.0615,1.1256,1.1729,1.1805,1.2344,1.2712,1.2279,1.2618,1.277,1.2448,1.3371,1.4336,1.4857,1.559,1.624,1.6553,1.5909,1.5799,1.6577,1.59,1.5827,1.6665,1.6665,1.6665,1.6665,1.6665,1.6748,1.6777,1.6777,1.7002,1.7432,1.7432,1.7217,1.6836,1.7171,1.6855,1.6035,1.7262,1.7373,1.6682,1.752,1.7726,1.7471,1.7441,1.6904,1.614,1.5524,1.5612,1.5969,0.0,0.0,0.0,0.0,0.0,0.0,0.0,0.0,0.0,0.0,0.0,0.0,0.0,0.0,0.0,0.0,0.0,0.0,0.0,0.8335,0.824,0.8102,0.8771,0.8958,0.8515,0.793,0.7315,0.6664,0.6785,0.6757,0.6655,0.7014,0.7195,0.7195,0.7195,0.7521,0.8068,0.8444,0.9009,0.9676,0.9839,0.9966,0.0,0.0,0.0,0.0,0.0,0.0,0.0,0.0,0.8545,0.8511,0.8931,0.9066,0.9177,0.9829,1.0,1.004,1.0244,1.0157,1.0,1.0,0.9916,0.9885,0.9934,1.0039,1.0347,1.115,1.1687,1.2139,1.2404,1.2928,1.3068,1.2428,1.3312,1.3858,1.3208,1.4203,1.4989,1.521,1.5708,1.6133,1.6299,1.6229,1.6214,1.6338,1.599,1.5804,1.5867,1.5908,1.5908,1.5908,1.5908,1.6045,1.6309,1.6318,1.6396,1.6562,1.6846,1.6894,1.6738,1.6904,1.677,1.6448,1.729,1.7407,1.7121,1.7474,1.7529,1.7324,1.6777,1.6419,1.6045,1.5565,1.5482,1.5624,0.0,0.0,0.0,0.0,0.0,0.0,0.0,0.0,0.0,0.0,0.0,0.0,0.0,0.0,0.0,0.0,0.0,0.0,0.8563,0.853,0.8438,0.829,0.9195,0.9575,0.9369,0.8507,0.7751,0.7111,0.6678,0.6586,0.6815,0.7226,0.754,0.7725,0.7725,0.8175,0.8921,0.9337,0.9807,1.0311,1.0491,1.0556,0.0,0.0,0.0,0.0,0.0,0.0,0.0,0.0,0.8928,0.8967,0.9433,0.9603,0.9685,1.0155,1.0283,1.0283,1.0283,1.0283,1.0283,1.0283,1.0283,1.0312,1.0349,1.0452,1.0794,1.1635,1.2129,1.2529,1.2832,1.3115,1.315,1.2582,1.358,1.4212,1.3654,1.4401,1.501,1.501,1.5273,1.5459,1.5459,1.5732,1.5781,1.5478,1.5459,1.5322,1.5019,1.501,1.501,1.501,1.5137,1.5361,1.5713,1.5664,1.5664,1.5664,1.583,1.5994,1.6318,1.6455,1.6523,1.6543,1.6982,1.7178,1.7178,1.7178,1.709,1.6894,1.6152,1.5859,1.582,1.5527,1.5322,1.5215,0.0,0.0,0.0,0.0,0.0,0.0,0.0,0.0,0.0,0.0,0.0,0.0,0.0,0.0,0.0,0.0,0.0,0.0,0.8891,0.8771,0.8705,0.8705,0.9861,1.019,0.9527,0.8794,0.815,0.757,0.6663,0.6778,0.7899,0.7899,0.8274,0.8905,0.8905,0.9463,1.0384,1.0384,1.0604,1.0897,1.0897,1.0897,1.0897,0.0,0.0,0.0,0.0,0.0,0.0,0.0,0.9155,0.8911,0.9467,0.9599,0.9708,1.018,1.0283,1.0283,1.0283,1.0283,1.0283,1.0283,1.0283,1.0391,1.0811,1.125,1.1724,1.2139,1.2578,1.2871,1.2881,1.2881,1.2881,1.2881,1.3232,1.3506,1.3506,1.3867,1.4077,1.4077,1.4077,1.4077,1.4077,1.4077,1.4077,1.4077,1.4077,1.4077,1.4077,1.4077,1.4077,1.4077,1.4551,1.4775,1.4775,1.4775,1.4775,1.4775,1.4336,1.4525,1.541,1.585,1.6115,1.6135,1.6533,1.6719,1.6719,1.6719,1.6455,1.6066,1.5576,1.541,1.541,1.541,1.5146,1.4785,0.0,0.0,0.0,0.0,0.0,0.0,0.0,0.0,0.0,0.0,0.0,0.0,0.0,0.0,0.0,0.0,0.0,0.0,0.8902,0.8771,0.8724,0.8779,1.0073,1.0737,1.062,1.0494,0.8943,0.5832,0.6229,0.7023,0.8195,0.8573,0.9126,0.9805,0.9665,0.9999,1.0677,1.0677,1.1005,1.1505,1.1265,1.1173,1.115,0.0,0.0,0.0,0.0,0.0,0.0,0.0,0.0,0.0,1.0801,1.0388,0.9776,1.0572,1.0544,1.0283,1.0283,1.0283,1.0283,1.0283,1.0283,1.0391,1.0811,1.1006,1.1318,1.2034,1.2334,1.252,1.2822,1.2881,1.2881,1.2881,1.3232,1.3506,1.3506,1.3867,1.4077,1.4077,1.4077,1.4077,1.4077,1.4077,1.4077,1.4077,1.4077,1.4077,1.4077,1.4077,1.4077,1.4077,1.4258,1.4326,1.4326,1.4326,1.4326,1.4326,1.4199,1.4214,1.4476,1.4971,1.5166,1.5205,1.5937,1.6084,1.5801,1.5801,1.5557,1.5176,1.5342,1.541,1.5381,1.5078,1.4893,1.4746,0.0,0.0,0.0,0.0,0.0,0.0,0.0,0.0,0.0,0.0,0.0,0.0,0.0,0.0,0.0,0.0,0.0,0.0,0.0,0.9275,0.9281,0.9019,1.0051,1.0633,1.0656,1.1087,0.9875,0.6975,0.756,0.8319,0.9221,0.9544,1.0081,1.0743,1.0512,1.0822,1.1512,1.1288,1.1493,1.1918,1.1623,1.149,1.149,0.0,0.0,0.0,0.0,0.0,0.0,0.0,0.0,0.0,1.1728,1.1256,1.0542,1.114,1.1132,1.084,1.0659,1.0572,1.0584,1.0567,1.0537,1.0645,1.1074,1.1299,1.1631,1.2344,1.249,1.2568,1.2832,1.2881,1.2881,1.2881,1.3096,1.3262,1.3262,1.3477,1.3633,1.3633,1.3633,1.3633,1.3633,1.3633,1.3633,1.3633,1.3633,1.3633,1.3633,1.3633,1.3633,1.3633,1.3799,1.3887,1.3887,1.3887,1.3887,1.3887,1.3721,1.3633,1.3652,1.4258,1.4521,1.4551,1.5068,1.5146,1.4902,1.4902,1.4756,1.4551,1.4805,1.4902,1.4873,1.4619,1.4424,1.4238,0.0,0.0,0.0,0.0,0.0,0.0,0.0,0.0,0.0,0.0,0.0,0.0,0.0,0.0,0.0,0.0,0.0,0.0,0.0,0.0,1.0255,0.9463,1.0016,1.0306,1.0229,1.1069,1.1057,1.0137,0.9983,1.0208,1.0735,1.0719,1.1011,1.1525,1.1388,1.1719,1.2377,1.2025,1.2003,1.2169,1.1961,1.1854,1.1848,1.1908,0.0,0.0,0.0,0.0,0.0,0.0,0.0,0.0,1.2418,1.2119,1.1785,1.1845,1.1811,1.17,1.1207,1.1088,1.1061,1.1014,1.1008,1.1133,1.1577,1.1973,1.2393,1.2754,1.2852,1.2881,1.2881,1.2881,1.2881,1.2881,1.2881,1.2881,1.2881,1.2881,1.2881,1.2881,1.2881,1.2881,1.2881,1.2881,1.2881,1.2881,1.2881,1.2881,1.2881,1.2881,1.2881,1.2881,1.3252,1.3447,1.3447,1.3447,1.3447,1.3447,1.3066,1.2881,1.291,1.3711,1.4048,1.4077,1.4038,1.4029,1.4029,1.4029,1.4029,1.4029,1.4068,1.4077,1.4077,1.4038,1.3838,1.3496,0.0,0.0,0.0,0.0,0.0,0.0,0.0,0.0,0.0,0.0,0.0,0.0,0.0,0.0,0.0,0.0,0.0,0.0,0.0,0.0,1.1137,1.0437,1.1077,1.16,1.1881,1.269,1.2952,1.2637,1.0958,1.0669,1.1711,1.1646,1.1401,1.1009,1.1889,1.1766,1.0938,1.1996,1.2336,1.221,1.2356,1.2296,1.2169,1.2706,1.2847,0.0,0.0,0.0,0.0,0.0,0.0,0.0,1.3517,1.2922,1.2181,1.2307,1.2102,1.1774,1.1664,1.1599,1.1556,1.153,1.1727,1.1973,1.207,1.2422,1.2666,1.2422,1.2646,1.2881,1.2881,1.2881,1.2881,1.2881,1.2881,1.2881,1.2881,1.2881,1.2881,1.2881,1.2881,1.2881,1.2881,1.2881,1.2881,1.2881,1.2881,1.2881,1.2881,1.2881,1.2881,1.2881,1.2969,1.3018,1.3018,1.3018,1.3018,1.3018,1.293,1.2881,1.29,1.3408,1.3818,1.4058,1.3789,1.3643,1.3643,1.3643,1.3643,1.3672,1.4004,1.4077,1.4038,1.3769,1.3584,1.3457,0.0,0.0,0.0,0.0,0.0,0.0,0.0,0.0,0.0,0.0,0.0,0.0,0.0,0.0,0.0,0.0,0.0,0.0,0.0,0.0,1.2115,1.1308,1.1982,1.2436,1.2589,1.3248,1.3572,1.351,1.2304,1.204,1.2673,1.2623,1.2406,1.2073,1.2562,1.2445,1.1876,1.238,1.2591,1.2588,1.2591,1.2435,1.2288,1.312,1.3261,1.3107,1.3971,0.0,0.0,0.0,0.0,0.0,0.0,0.0,1.309,1.3162,1.2849,1.2437,1.221,1.2102,1.2064,1.2003,1.2115,1.2239,1.249,1.2715,1.2812,1.2588,1.2725,1.2881,1.2881,1.2881,1.2881,1.2881,1.2881,1.2881,1.2881,1.2881,1.2881,1.2881,1.2881,1.2881,1.2881,1.2881,1.2881,1.2881,1.2881,1.2881,1.2881,1.2881,1.2881,1.2881,1.2881,1.2881,1.2881,1.2881,1.2881,1.2881,1.2881,1.2881,1.2891,1.3105,1.333,1.3525,1.3301,1.3203,1.3203,1.3203,1.3203,1.3232,1.3447,1.3535,1.3506,1.3291,1.3203,1.3224,0.0,0.0,0.0,0.0,0.0,0.0,0.0,0.0,0.0,0.0,0.0,0.0,0.0,0.0,0.0,0.0,0.0,0.0,0.0,0.0,0.0,1.2175,1.2724,1.2986,1.2827,1.3412,1.3693,1.3646,1.3542,1.3495,1.3495,1.343,1.3261,1.299,1.3039,1.3041,1.2991,1.2811,1.2834,1.2995,1.2946,1.2764,1.2659,1.3716,1.382,1.3566,1.4974,1.5281,1.5119,1.5647,0.0,0.0,0.0,0.0,1.4084,1.4019,1.3682,1.3254,1.2849,1.2674,1.2559,1.2339,1.226,1.2319,1.2666,1.2773,1.2793,1.2861,1.2881,1.2881,1.2881,1.2881,1.2881,1.2881,1.2881,1.2881,1.2881,1.2881,1.2881,1.2881,1.2881,1.2881,1.2881,1.2881,1.2881,1.2881,1.2881,1.2881,1.2881,1.2881,1.2881,1.2881,1.2881,1.2881,1.2881,1.2881,1.2881,1.2881,1.2881,1.2881,1.2881,1.2881,1.2881,1.2881,1.2881,1.2881,1.2881,1.2881,1.2881,1.2881,1.2881,1.2881,1.2881,1.2881,1.2978,1.3152,0.0,0.0,0.0,0.0,0.0,0.0,0.0,0.0,0.0,0.0,1.2262,0.0,0.0,0.0,0.0,0.0,0.0,0.0,1.4187,0.0,0.0,1.3112,1.3222,1.3165,1.2986,1.3723,1.4024,1.387,1.3842,1.3827,1.3827,1.3527,1.2685,1.1451,1.2771,1.2619,1.1485,1.2756,1.3173,1.3063,1.3911,1.4086,1.3992,1.5332,1.5811,1.5794,1.6051,1.6134,1.6068,1.5883,1.577,0.0,0.0,0.0,1.4876,1.4533,1.4117,1.3802,1.3735,1.338,1.2912,1.2414,1.2307,1.2266,1.2299,1.2268,1.2422,1.2803,1.2881,1.2881,1.2881,1.2881,1.2881,1.2881,1.2881,1.2881,1.2881,1.2881,1.2881,1.2881,1.2881,1.2881,1.2881,1.2881,1.2881,1.2881,1.2881,1.2881,1.2881,1.2881,1.2881,1.2881,1.2881,1.2881,1.2881,1.2881,1.2881,1.2881,1.2881,1.2881,1.2881,1.2881,1.2881,1.2881,1.2881,1.2881,1.2881,1.2881,1.2881,1.2881,1.2881,1.2881,1.2881,1.2881,1.3238,1.3684,0.0,0.0,0.0,0.0,0.0,0.0,0.0,0.0,0.0,0.0,0.0,1.3512,0.0,0.0,0.0,1.468,1.4645,1.4571,1.4499,1.4169,1.3967,1.3967,1.3967,1.3933,1.3846,1.4076,1.4162,1.4065,1.3955,1.3913,1.3899,1.3756,1.3255,1.253,1.3123,1.3024,1.2431,1.3108,1.3564,1.3895,1.4323,1.4582,1.4854,1.6042,1.6518,1.6678,1.7265,1.75,1.7415,1.6868,1.6529,1.6219,1.5654,0.0,0.0,0.0,1.4406,1.3835,1.3581,1.3126,1.2775,1.276,1.2564,1.2328,1.2256,1.2473,1.2624,1.2518,1.2715,1.2881,1.2881,1.2881,1.2881,1.2881,1.2881,1.2881,1.2881,1.2881,1.2881,1.2881,1.2881,1.2881,1.2881,1.2881,1.2881,1.2881,1.2881,1.2881,1.2881,1.2881,1.2881,1.2881,1.2881,1.2881,1.2881,1.2881,1.2881,1.2881,1.2881,1.2881,1.2881,1.2881,1.2881,1.2881,1.2881,1.2881,1.2881,1.2881,1.2881,1.2881,1.2881,1.2881,1.2929,1.3286,1.3552,1.3909,0.0,0.0,0.0,0.0,0.0,0.0,0.0,0.0,0.0,0.0,0.0,0.0,0.0,0.0,0.0,0.0,1.4756,1.4707,1.4611,1.4611,1.4611,1.4611,1.4578,1.4556,1.4556,1.4368,1.4282,1.4282,1.4136,1.4051,1.4051,1.3997,1.3899,1.3736,1.3542,1.3684,1.4042,1.3786,1.4107,1.48,1.4986,1.5258,1.5704,1.6817,1.7309,1.751,1.8358,1.8669,1.8598,1.8003,1.7527,1.7061,1.6592,1.601,0.0,0.0,0.0,1.4117,1.3648,1.3263,1.3027,1.3095,1.2845,1.2517,1.2347,1.2701,1.295,1.268,1.303,1.3296,1.3152,1.3017,1.2881,1.2881,1.2881,1.2881,1.2881,1.2881,1.2881,1.2881,1.2881,1.2881,1.2881,1.2881,1.2881,1.2881,1.2881,1.2881,1.2881,1.2881,1.2881,1.2881,1.2881,1.2881,1.2881,1.2881,1.2881,1.2881,1.2881,1.2881,1.2881,1.2881,1.2881,1.2881,1.2881,1.2881,1.2881,1.2881,1.2881,1.2929,1.3065,1.3152,1.32,1.3826,1.4143,1.4411,0.0,0.0,0.0,0.0,0.0,0.0,0.0,0.0,0.0,0.0,0.0,0.0,1.5183,1.5075,1.4962,1.4904,1.4895,1.4895,1.4886,1.4886,1.4886,1.4886,1.4756,0.0,1.4697,1.4549,1.4476,1.4476,1.4476,1.4464,1.4464,1.427,1.4175,1.4149,1.3751,1.4449,1.58,1.4843,1.4868,1.5595,1.6309,1.6593,1.6779,1.8234,1.8785,1.8855,1.9299,1.9431,1.9383,1.9058,1.8657,1.8315,1.8284,1.7517,1.6636,0.0,0.0,0.0,1.4533,1.4406,1.42,1.3315,1.3076,1.2946,1.2517,1.2825,1.3315,1.3739,1.4227,1.4422,1.3873,1.3286,1.2881,1.2881,1.2881,1.2881,1.2881,1.2881,1.2881,1.2881,1.2881,1.2881,1.2881,1.2881,1.2881,1.2881,1.2881,1.2881,1.2881,1.2881,1.2881,1.2881,1.2881,1.2881,1.2881,1.2881,1.2881,1.2881,1.2881,1.2881,1.2881,1.2881,1.2881,1.2881,1.2881,1.2881,1.2881,1.2881,1.2881,1.2978,1.3552,1.3732,1.3826,1.4422,1.5017,1.5543,0.0,0.0,0.0,0.0,0.0,0.0,0.0,0.0,0.0,0.0,0.0,0.0,0.0,1.5121,1.5033,1.4794,1.4776,1.4804,1.4895,1.4904,1.4904,1.4904,1.4841,1.4822,1.4822,1.4697,1.4624,1.4624,1.4545,1.4488,1.4488,1.4441,1.4672,1.5116,1.4197,1.4333,1.5211,1.4848,1.5323,1.6377,1.7101,1.7693,1.8217,1.9232,1.9925,2.0399,2.0548,2.07,2.0772,2.0209,1.9774,1.9213,1.8106,1.7494,1.6937,1.5964,1.5413,1.5013,1.4596,1.431,1.4117,1.4011,1.3596,1.3116,1.2913,1.3014,1.3214,1.3387,1.3837,1.4239,1.4367,1.3873,1.3324,1.2968,1.2881,1.2881,1.2881,1.2881,1.2881,1.2881,1.2881,1.2881,1.2881,1.2881,1.2881,1.2881,1.2881,1.2881,1.2881,1.2881,1.2881,1.2881,1.2881,1.2881,1.2881,1.2881,1.2881,1.2881,1.2881,1.2881,1.2881,1.2881,1.2881,1.2929,1.3334,1.3238,1.2881,1.2881,1.3152,1.3505,1.3732,1.405,1.4468,1.505,1.541,1.5676,0.0,0.0,0.0,0.0,0.0,0.0,0.0,0.0,0.0,1.5638,0.0,0.0,0.0,0.0,1.5047,1.4821,1.4776,1.4841,1.4984,1.4992,1.4992,1.4992,1.496,1.4925,1.4925,1.5047,1.4976,1.4707,1.4836,1.4756,1.4488,1.4488,1.494,1.5674,1.4859,1.4976,1.5745,1.5433,1.618,1.7608,1.812,1.8699,1.935,2.0111,2.0737,2.1237,2.1465,2.167,2.1757,2.1333,2.0891,2.034,1.9183,1.8316,1.7434,1.5802,1.5329,1.5313,1.527,1.4907,1.462,1.4942,1.4428,1.3756,1.3437,1.3501,1.3616,1.3513,1.4052,1.4549,1.4719,1.454,1.419,1.361,1.3515,1.3515,1.3515,1.3334,1.32,1.32,1.3017,1.2881,1.2881,1.2881,1.2881,1.2881,1.2881,1.2881,1.2881,1.2881,1.2881,1.2881,1.2881,1.2881,1.2881,1.2881,1.2881,1.2881,1.2881,1.3017,1.32,1.32,1.3286,1.3525,1.392,1.3779,1.3238,1.343,1.3742,1.4143,1.4318,1.4641,1.5062,1.5688,1.5908,1.5952,0.0,0.0,0.0,0.0,0.0,0.0,0.0,0.0,1.6503,1.6522,0.0,0.0,0.0,0.0,0.0,1.5071,1.5009,1.5052,1.526,1.5266,1.5266,1.5266,1.5158,1.5071,1.5071,1.563,1.5535,1.4792,1.5372,1.527,1.4543,1.4543,1.4958,1.5692,1.571,1.6465,1.7651,1.6722,1.7502,1.9317,1.9329,1.9613,2.0128,2.0923,2.1237,2.1339,2.204,2.231,2.231,2.231,2.2003,2.1612,2.1595,2.0106,1.8083,1.6394,1.5887,1.5993,0.0,0.0,0.0,1.6053,1.561,1.4876,1.4117,1.4337,1.4572,1.4181,1.4941,1.548,1.4911,1.5231,1.5431,1.4812,1.4687,1.4698,1.4698,1.419,1.3815,1.3815,1.3334,1.2978,1.2978,1.2978,1.2929,1.2929,1.2929,1.2929,1.2881,1.2881,1.2881,1.2881,1.2881,1.2881,1.2881,1.2929,1.2929,1.2929,1.2929,1.3238,1.3815,1.3815,1.4143,1.4698,1.4709,1.4376,1.3909,1.4468,1.4698,1.4789,1.5365,1.5632,1.572,1.6281,1.6522,1.6522,0.0,0.0,0.0,0.0,0.0,1.5407,1.6042,1.6349,1.6715,0.0,0.0,0.0,1.756,1.698,1.6649,1.6804,1.6706,1.6732,1.6997,1.7003,1.7003,1.7003,1.6964,1.6957,1.6957,1.6459,1.6319,1.6581,1.55,1.511,1.5362,1.5362,1.549,1.5729,1.6316,1.7101,1.7957,1.7521,1.8217,1.9688,1.9968,2.0504,2.1231,2.1793,2.2006,2.2023,2.2243,2.231,2.231,2.231,2.2209,2.1977,2.1135,1.9939,1.8741,1.8273,1.7919,1.7715,1.7884,0.0,0.0,0.0,0.0,0.0,1.4752,1.4657,1.4546,1.4542,1.4774,1.494,1.4898,1.5286,1.5615,1.5447,1.501,1.4698,1.4698,1.4571,1.4468,1.4468,1.4294,1.4201,1.4201,1.4201,1.4014,1.36,1.3552,1.3372,1.2929,1.2881,1.2881,1.2881,1.2881,1.2881,1.2881,1.3324,1.3552,1.3552,1.3967,1.4294,1.4468,1.4468,1.4514,1.4698,1.5141,1.5276,1.5084,1.4789,1.4971,1.5365,1.5543,1.5864,1.6281,1.6423,1.6522,1.6522,0.0,0.0,0.0,0.0,0.0,1.5907,1.6426,1.7046,1.7631,0.0,0.0,0.0,1.7444,1.7494,1.7527,1.7435,1.7349,1.7415,1.7689,1.7702,1.7702,1.7702,1.7653,1.7634,1.7696,1.7328,1.7197,1.731,1.6515,1.6147,1.6206,1.6206,1.639,1.672,1.7183,1.7858,1.8592,1.8419,1.9163,2.0467,2.0668,2.1364,2.2262,2.2409,2.2554,2.2634,2.2405,2.236,2.2436,2.2349,2.231,2.2102,2.096,2.0188,1.9565,1.9115,1.8821,1.8695,1.901,1.8069,1.7176,1.7697,0.0,0.0,1.4471,1.3912,1.3258,1.2271,1.2971,1.3749,1.3766,1.4935,1.5867,1.5867,1.5555,1.5248,1.5112,1.4896,1.4763,1.4763,1.4722,1.4698,1.4698,1.4698,1.456,1.419,1.419,1.392,1.3334,1.3286,1.3286,1.3286,1.3525,1.3658,1.3658,1.3732,1.392,1.419,1.4283,1.4606,1.5062,1.5062,1.5197,1.5466,1.582,1.5964,1.5964,1.5599,1.5656,1.5964,1.5964,1.6194,1.6522,1.6522,1.6522,1.6522,0.0,0.0,1.5349,1.5349,1.6061,1.6657,1.674,1.7933,1.8848,0.0,1.878,1.8347,1.746,1.7913,1.8077,1.7619,1.7574,1.7681,1.7977,1.7984,1.7984,1.7984,1.7868,1.786,1.7984,1.8237,1.8113,1.7594,1.7882,1.7679,1.7077,1.705,1.7403,1.8096,1.8188,1.8629,1.9305,1.9305,2.0094,2.1348,2.1309,2.2031,2.3106,2.2863,2.2947,2.3117,2.2598,2.2554,2.2738,2.248,2.2405,2.2214,2.1156,2.0827,2.0638,1.967,1.9333,1.9422,2.0008,1.9386,1.8702,1.9201,1.8084,0.0,1.4214,1.3165,1.2017,0.9801,1.1132,1.2643,1.2484,1.4384,1.6022,1.6022,1.6022,1.5949,1.5718,1.5274,1.4935,1.4905,1.4896,1.4892,1.4892,1.4892,1.488,1.4789,1.4744,1.4468,1.3909,1.3909,1.3862,1.3815,1.4376,1.4652,1.4606,1.419,1.4283,1.4789,1.4329,1.4675,1.572,1.572,1.6008,1.6522,1.6522,1.6522,1.6509,1.6459,1.6459,1.6522,1.6522,1.6522,1.6522,1.6522,1.6522,1.6522,0.0,1.5753,1.6253,1.6253,1.6926,1.7668,1.8272,1.8704,1.9161,1.9697,1.9735,1.9566,1.9156,1.922,1.9306,1.9307,1.93,1.9447,1.9777,1.9792,1.9792,1.9792,1.9769,1.9769,1.9792,1.9183,1.9066,1.9459,1.8122,1.7685,1.8099,1.7928,1.795,1.8133,1.8775,1.9143,1.9305,1.9305,2.0228,2.1679,2.1404,2.1846,2.2661,2.2982,2.3141,2.3165,2.3063,2.3063,2.3093,2.3038,2.3014,2.2947,2.2444,2.2288,2.2219,2.1771,2.1408,2.1128,2.1245,2.0485,1.9587,1.911,1.8321,0.0,1.7097,1.62,1.5433,1.522,1.4863,1.4461,1.4125,1.4831,1.5442,1.5442,1.5442,1.5486,1.5526,1.5815,1.5898,1.5558,1.5874,1.6151,1.6151,1.6151,1.5964,1.5454,1.4971,1.4652,1.4514,1.4514,1.4283,1.3815,1.4376,1.4468,1.3956,1.4812,1.5309,1.541,1.5788,1.6107,1.6337,1.6337,1.638,1.6522,1.6522,1.6522,1.6484,1.6032,1.612,1.6522,1.6522,1.6522,1.6522,1.6522,1.6522,1.6522,1.5189,1.5907,1.6503,1.6503,1.7461,1.8365,1.8744,1.9087,1.9414,1.9764,1.9712,1.9587,1.9467,1.9456,1.9532,1.9767,1.979,1.9931,2.0277,2.0312,2.0312,2.0312,2.0205,2.0197,2.0304,1.9715,1.9602,1.9993,1.896,1.864,1.8994,1.8804,1.8904,1.9311,1.973,2.0134,2.0554,2.0554,2.1031,2.1785,2.1625,2.2281,2.3351,2.3422,2.3544,2.3631,2.3323,2.3189,2.3189,2.3189,2.3189,2.3165,2.2996,2.2947,2.2923,2.2798,2.2449,2.2158,2.2158,2.1508,2.0638,1.9877,1.905,0.0,0.0,1.6239,1.5367,1.4499,1.4711,1.4814,1.4009,1.4921,1.5721,1.5564,1.5533,1.5489,1.5324,1.5608,1.5838,1.5979,1.6229,1.653,1.6854,1.668,1.638,1.6051,1.5499,1.5141,1.5141,1.5141,1.5005,1.4732,1.5287,1.5466,1.5141,1.5454,1.5644,1.5648,1.566,1.5664,1.5706,1.5982,1.6107,1.6107,1.6107,1.6107,1.607,1.5517,1.5442,1.5731,1.6007,1.6107,1.6187,1.6693,1.671,1.6552,1.5676,1.6388,1.6984,1.6984,1.8141,1.9067,1.8993,1.9424,1.9713,1.9649,1.9467,1.939,1.9525,1.9528,1.9715,2.0176,2.022,2.038,2.0696,2.0713,2.074,2.0792,2.0631,2.0535,2.0534,2.0279,2.0104,2.006,1.9774,1.9711,1.986,1.9649,1.9968,2.0721,2.0081,2.0556,2.1766,2.1106,2.1308,2.2024,2.2024,2.2813,2.3969,2.3842,2.3958,2.4132,2.3588,2.3392,2.3392,2.3392,2.3392,2.3392,2.3323,2.33,2.3282,2.3212,2.3021,2.2797,2.2797,2.2258,2.1523,2.0883,1.9937,1.8779,0.0,0.0,0.0,1.3634,1.4504,1.5218,1.4107,1.5246,1.6254,1.5829,1.6026,1.6019,1.5492,1.569,1.6017,1.6277,1.6389,1.6718,1.7369,1.6951,1.6637,1.6637,1.6083,1.5764,1.5764,1.5764,1.572,1.5588,1.6194,1.6423,1.6324,1.5855,1.5642,1.5693,1.5186,1.5008,1.5079,1.5492,1.5693,1.568,1.558,1.5542,1.5492,1.5056,1.4828,1.4802,1.5329,1.5674,1.5922,1.6689,1.6816,1.6658,1.7426,1.8119,1.8708,1.8722,1.9496,2.0028,1.9725,2.0003,2.0098,1.9821,1.9656,1.9777,2.0315,2.0356,2.0747,2.1671,2.1742,2.1896,2.2231,2.2253,2.2334,2.2504,2.2496,2.213,2.1389,2.1325,2.0952,2.0269,1.995,2.0132,2.0835,2.0507,2.0831,2.1528,1.8595,1.8977,2.1619,1.8702,1.9549,2.2868,2.2868,2.2978,2.3198,2.3876,2.417,2.419,2.4113,2.4094,2.4094,2.4094,2.4094,2.4036,2.3753,2.3631,2.3588,2.33,2.3165,2.3141,2.3141,2.2576,2.1866,2.1579,2.0845,2.0294,2.0551,0.0,1.8904,1.8682,0.0,1.7332,1.654,0.0,0.0,1.5819,1.6807,1.7422,1.6712,1.7444,1.7597,1.6424,1.6725,1.7276,1.7918,1.7504,1.7188,1.7188,1.671,1.638,1.638,1.638,1.6139,1.5632,1.6194,1.6238,1.572,1.5714,1.5715,1.5693,1.5652,1.5615,1.5605,1.5668,1.5693,1.5668,1.5218,1.5004,1.4992,1.4792,1.4524,1.4236,1.479,1.5556,1.6362,1.5877,1.6251,1.697,1.7888,1.8388,1.9004,1.8992,1.9611,2.0088,1.9943,2.0304,2.0508,2.0238,2.06,2.0965,2.1233,2.133,2.1535,2.1971,2.2111,2.2273,2.2486,2.2498,2.2592,2.2793,2.2793,2.262,2.2254,2.2254,2.2081,2.1754,2.1415,2.1431,2.1758,2.1411,2.1694,2.2446,2.1035,2.1473,2.3088,2.173,2.2134,2.3694,2.3694,2.3694,2.3731,2.4061,2.419,2.419,2.419,2.419,2.419,2.419,2.419,2.417,2.4036,2.3996,2.3958,2.3816,2.3649,2.35,2.35,2.2959,2.2321,2.1978,2.1361,2.096,2.137,2.0925,2.0485,2.0485,0.0,0.0,0.0,0.0,0.0,0.0,1.7225,1.7797,1.7482,1.8199,1.8577,1.813,1.7769,1.7567,1.7515,1.731,1.7193,1.7193,1.697,1.6875,1.698,1.6951,1.6697,1.6139,1.6069,1.5907,1.5672,1.5359,1.5092,1.4777,1.5104,1.4877,1.4287,1.4927,1.5079,1.4765,1.4525,1.4437,1.4387,1.4011,1.3895,1.4025,1.4223,1.4807,1.5538,1.6091,1.639,1.6533,1.8657,1.8907,1.9357,1.9357,1.9748,2.0155,2.0384,2.0627,2.0856,2.097,2.1465,2.1894,2.2097,2.2231,2.2367,2.2578,2.2738,2.291,2.3132,2.3125,2.3214,2.3391,2.3467,2.3352,2.3093,2.3121,2.3043,2.2793,2.2525,2.247,2.2626,2.2343,2.2609,2.329,2.2391,2.2813,2.4135,2.3235,2.3382,2.419,2.419,2.419,2.419,2.419,2.419,2.419,2.419,2.419,2.419,2.419,2.419,2.419,2.419,2.419,2.419,2.419,2.3958,2.3714,2.3816,2.3254,2.2634,2.2553,2.2048,2.1616,2.1846,2.166,2.1327,2.0959,2.0297,0.0,0.0,0.0,1.7361,1.7117,0.0,1.8414,1.8202,1.9077,1.9686,1.9594,1.8812,1.8083,1.7441,1.7202,1.707,1.707,1.6922,1.6957,1.7237,1.7115,1.687,1.6536,1.5976,1.5618,1.5467,1.4966,1.4488,1.4121,1.46,1.4359,1.3483,1.4422,1.4574,1.4109,1.4065,1.406,1.4034,1.3817,1.3868,1.4084,1.4342,1.4583,1.4938,1.6018,1.6369,1.6312,2.0235,2.0235,2.0254,2.0254,2.0285,2.0554,2.1323,2.1077,2.1143,2.2128,2.1975,2.2097,2.2887,2.2978,2.3272,2.4062,2.4135,2.4318,2.4714,2.4728,2.4793,2.4915,2.5126,2.4772,2.3778,2.3966,2.3648,2.2793,2.2661,2.2897,2.346,2.3322,2.3577,2.4025,2.0831,2.1198,2.3988,2.0794,2.129,2.419,2.419,2.419,2.419,2.419,2.419,2.419,2.419,2.419,2.419,2.419,2.419,2.419,2.419,2.419,2.419,2.419,2.3958,2.3774,2.4094,2.3353,2.2695,2.3455,2.3037,2.2489,2.2638,2.2328,2.1616,2.0322,1.9651,1.8994,1.8003,1.7805,1.7789,1.7766,1.8981,0.0,0.0,2.0406,2.1133,2.0092,1.9594,1.9043,1.8238,1.7408,1.6898,1.6898,1.6431,1.6418,1.7081,1.6624,1.6402,1.652,1.5964,1.5442,1.4941,1.4387,1.4097,1.4085,1.4505,1.4492,1.4096,1.4505,1.4469,1.4083,1.3976,1.3894,1.396,1.4735,1.4814,1.4564,1.5418,1.5463,1.5102,1.5147,1.5812,1.659,2.11,2.1562,2.1773,2.1196,2.1562,2.2017,2.2192,2.2426,2.2684,2.2926,2.3209,2.3492,2.3768,2.3915,2.4043,2.419,2.4321,2.4444,2.4591,2.4731,2.4814,2.4869,2.5149,2.5069,2.461,2.4781,2.4755,2.4447,2.4277,2.4258,2.4356,2.4179,2.4133,2.4153,2.3033,2.3162,2.4135,2.3015,2.318,2.419,2.419,2.419,2.419,2.419,2.419,2.419,2.419,2.419,2.419,2.419,2.419,2.419,2.419,2.419,2.419,2.419,2.4113,2.4054,2.417,2.3755,2.341,2.3903,2.3494,2.3025,2.3298,2.265,2.1872,2.1424,2.0381,1.9461,1.9115,1.8662,1.833,1.833,1.9586,2.0516,0.0,2.1642,2.2082,2.0518,1.9971,1.917,1.7742,1.6128,1.5619,1.6701,1.5417,1.5289,1.686,1.7208,1.7232,1.6905,1.6829,1.6658,1.6494,1.5951,1.531,1.4563,1.5394,1.513,1.4002,1.4747,1.4823,1.4366,1.4341,1.431,1.431,1.4596,1.4783,1.4937,1.5225,1.5418,1.5551,1.5551,1.5787,1.6069,2.1908,2.2658,2.2985,2.21,2.2427,2.2853,2.2991,2.331,2.3554,2.3708,2.3989,2.419,2.419,2.4321,2.4339,2.4209,2.4321,2.4444,2.4591,2.4654,2.4731,2.4804,2.5019,2.5037,2.4831,2.5065,2.5171,2.5126,2.5118,2.4968,2.4685,2.4623,2.4461,2.419,2.419,2.419,2.419,2.419,2.419,2.419,2.419,2.419,2.419,2.419,2.419,2.419,2.419,2.419,2.419,2.419,2.419,2.419,2.419,2.419,2.419,2.419,2.4132,2.4054,2.417,2.3955,2.3774,2.4132,2.3876,2.3566,2.3671,2.2995,2.2203,2.1724,2.0702,1.9765,1.9381,1.9153,1.91,1.9383,2.0501,2.1423,0.0,2.2362,2.2276,2.0805,2.0219,1.9248,1.7463,1.6013,1.5614,1.6644,1.5449,1.5377,1.6951,1.7369,1.7398,1.7096,1.7232,1.7209,1.7037,1.6669,1.5993,1.5073,1.5868,1.5488,1.413,1.4902,1.4957,1.4501,1.4658,1.4721,1.4721,1.4876,1.5134,1.5359,1.5359,1.5551,1.5799,1.5799,1.5799,1.5799,2.2697,2.3571,2.3898,2.3062,2.2908,2.3132,2.3763,2.3676,2.3798,2.4416,2.4321,2.419,2.419,2.419,2.419,2.419,2.4153,2.4301,2.4689,2.4535,2.4519,2.4704,2.4771,2.47,2.4512,2.4831,2.4924,2.4804,2.5126,2.5024,2.4512,2.47,2.4594,2.419,2.419,2.419,2.419,2.419,2.419,2.419,2.419,2.419,2.419,2.419,2.419,2.419,2.419,2.419,2.419,2.419,2.419,2.419,2.419,2.419,2.419,2.419,2.3958,2.3795,2.4113,2.3976,2.3795,2.4113,2.419,2.4113,2.3741,2.3282,2.2556,2.1161,2.0492,1.9849,1.8875,1.9317,2.0083,2.0827,2.1608,2.2389,2.3147,2.2638,2.1874,2.1036,2.0414,1.9358,1.7484,1.6929,1.6703,1.6773,1.6438,1.6545,1.7277,1.7116,1.7049,1.7166,1.7333,1.718,1.6642,1.6677,1.6285,1.5574,1.5984,1.5609,1.4533,1.4937,1.4937,1.4596,1.4968,1.5134,1.5165,1.561,1.5799,1.5799,1.5799,1.5799,1.5799,1.5799,1.5799,1.5799,2.361,2.4428,2.4928,2.4697,2.4659,2.4667,2.4679,2.4555,2.4471,2.4491,2.4321,2.419,2.419,2.419,2.419,2.419,2.3657,2.3364,2.3451,2.3552,2.3568,2.3469,2.432,2.47,2.4512,2.4831,2.4924,2.4804,2.4981,2.4872,2.4495,2.4543,2.4426,2.419,2.419,2.419,2.419,2.419,2.419,2.419,2.419,2.419,2.419,2.419,2.419,2.419,2.419,2.419,2.419,2.419,2.419,2.419,2.419,2.419,2.419,2.419,2.4151,2.4094,2.417,2.4151,2.4094,2.417,2.419,2.4024,2.3343,2.2612,2.1824,2.0824,2.0021,1.9634,1.9951,2.0187,2.0588,2.1425,2.2244,2.3045,2.3828,2.3773,2.3079,2.1452,2.1135,2.0128,1.7822,1.6025,1.5518,1.6703,1.5831,1.586,1.7215,1.8237,1.8619,1.8312,1.8815,1.9045,1.8868,1.8868,1.8153,1.6694,1.7089,1.6471,1.4968,1.5418,1.5551,1.5477,1.558,1.561,1.5639,1.5741,1.5799,1.5799,1.5799,1.5799,1.5799,1.5799,1.5799,1.5858,2.4466,2.4986,2.5303,2.5303,2.5224,2.5118,2.4943,2.4855,2.47,2.441,2.4266,2.419,2.419,2.419,2.419,2.419,2.3786,2.3548,2.3638,2.3358,2.3321,2.3637,2.3884,2.4106,2.4356,2.4632,2.4693,2.4545,2.478,2.4723,2.4375,2.4461,2.4393,2.419,2.419,2.419,2.4098,2.2666,2.2813,2.3868,2.2594,2.2738,0.0,2.3917,2.3976,2.3976,2.3976,2.4074,2.419,2.419,2.419,2.419,2.419,2.419,2.419,2.419,2.419,2.419,2.419,2.419,2.419,2.419,2.419,2.408,2.3639,2.3162,2.2501,2.1308,2.0703,2.0409,2.0484,2.0813,2.1455,2.2648,2.3235,2.3676,2.4135,2.3896,2.3162,2.1753,2.117,2.0187,1.8443,1.6932,1.6382,1.7166,1.6741,1.6694,1.7263,1.8503,1.8983,1.8503,1.9122,1.9416,1.9256,1.9256,1.8495,1.6913,1.7154,1.6619,1.5418,1.5668,1.5799,1.5799,1.5799,1.5799,1.5799,1.5799,1.5799,1.5799,1.5799,1.5799,1.5829,1.6099,1.6189,1.6293,2.5139,2.5303,2.5303,2.5303,2.5122,2.4949,2.4814,2.4775,2.4623,2.4247,2.419,2.419,2.419,2.419,2.419,2.419,2.4098,2.4118,2.4295,2.3491,2.3381,2.4258,2.3565,2.3492,2.4171,2.4393,2.441,2.419,2.4594,2.4578,2.419,2.4375,2.4357,2.419,2.419,2.419,2.4006,2.1143,2.1425,2.3542,2.0966,2.1278,2.33,2.3588,2.3671,2.3649,2.3692,2.3917,2.419,2.419,2.419,2.419,2.419,2.419,2.419,2.419,2.419,2.419,2.419,2.419,2.419,2.419,2.419,2.4171,2.4061,2.4043,2.3621,2.2115,2.1803,2.1602,2.0943,2.1528,2.2574,2.4026,2.4209,2.4209,2.4266,2.3529,2.2703,2.191,2.0896,0.0,1.9091,1.8547,1.8146,1.7927,1.8313,1.8236,1.7517,1.8459,1.8805,1.8299,1.8841,1.9019,1.8736,1.8669,1.802,1.6773,1.6712,1.6368,1.5799,1.5799,1.5799,1.5799,1.5799,1.5799,1.5799,1.5799,1.5799,1.5799,1.5799,1.5799,1.5888,1.6577,1.6831,1.6936,2.5139,2.5303,2.5303,2.5303,2.5122,2.4949,2.4814,2.4654,2.4461,2.4228,2.419,2.419,2.419,2.419,2.419,2.419,2.3602,2.3235,2.3253,2.3107,2.3088,2.3253,2.3731,2.4061,2.419,2.4393,2.441,2.419,2.4445,2.4426,2.419,2.4247,2.4228,2.419,2.419,2.419,2.4153,2.3584,2.3639,2.4077,2.3547,2.3466,2.3628,2.3671,2.3522,2.3305,2.3588,2.3917,2.419,2.419,2.419,2.419,2.419,2.419,2.419,2.419,2.419,2.419,2.419,2.419,2.419,2.419,2.419,2.4025,2.3364,2.3217,2.2942,2.1987,2.1803,2.1951,2.2483,2.3235,2.3934,2.4372,2.4303,2.4321,2.4639,2.3705,2.2737,2.2046,2.1076,2.0076,1.9073,1.8715,1.8508,1.8469,1.9094,1.9169,1.8488,1.9211,1.935,1.872,1.8817,1.8821,1.8791,1.8439,1.7915,1.7207,1.6849,1.6368,1.5799,1.5799,1.5799,1.5799,1.5799,1.5799,1.5799,1.5799,1.5799,1.5799,1.5799,1.5799,1.5948,1.7116,1.7518,1.7608,2.5207,2.5303,2.5303,2.5303,2.5122,2.4949,2.4814,2.4623,2.4296,2.3658,2.3933,2.4043,2.3621,2.3951,2.419,2.419,2.3859,2.3621,2.3621,2.3235,2.3199,2.3602,2.3602,2.3768,2.419,2.4303,2.4303,2.419,2.4303,2.4303,2.419,2.419,2.419,2.419,2.419,2.419,2.408,2.2373,2.2446,2.3548,2.2059,2.2046,2.2975,2.3135,2.3069,2.2996,2.3323,2.3671,2.3976,2.4151,2.419,2.419,2.419,2.419,2.419,2.419,2.419,2.419,2.419,2.419,2.419,2.419,2.419,2.4098,2.3712,2.3621,2.34,2.2593,2.2428,2.2573,2.3064,2.3905,2.4526,2.4639,2.4559,2.4409,2.4157,2.3259,2.2346,2.1582,2.061,1.9837,1.936,1.9178,1.8963,1.8623,1.9273,1.9318,1.8488,1.9149,1.9244,1.8561,1.8534,1.8451,1.8282,1.8095,1.7663,1.7031,1.6668,1.6344,1.6067,1.5885,1.5799,1.5799,1.5799,1.5799,1.5799,1.5799,1.5799,1.5829,1.6144,1.6278,1.6443,1.7745,1.8223,1.8328,2.5303,2.5303,2.5303,2.5303,2.5122,2.4949,2.4814,2.4473,2.3962,2.3107,2.3547,2.3639,2.2832,2.3456,2.3933,2.3933,2.4098,2.419,2.419,2.3621,2.3547,2.4171,2.3602,2.3547,2.419,2.419,2.419,2.419,2.419,2.419,2.419,2.419,2.419,2.419,2.419,2.419,2.4025,2.1437,2.1534,2.32,2.0928,2.1043,2.2624,2.284,2.2873,2.2848,2.3189,2.3477,2.3735,2.4094,2.419,2.419,2.419,2.419,2.419,2.419,2.419,2.419,2.419,2.419,2.419,2.419,2.419,2.419,2.419,2.4228,2.4081,2.3456,2.3344,2.343,2.3593,2.4268,2.4818,2.4842,2.4832,2.4535,2.3752,2.2867,2.1979,2.1166,2.022,1.9636,1.9596,1.9623,1.9419,1.886,1.9344,1.9301,1.8426,1.8909,1.8965,1.8376,1.8302,1.8153,1.788,1.7765,1.7438,1.6917,1.6581,1.6367,1.6301,1.6039,1.5885,1.5799,1.5799,1.5799,1.5799,1.5799,1.5799,1.5858,1.6458,1.6712,1.6876,1.8223,1.8702,1.8807,2.5303,2.5303,2.5303,2.5303,2.5122,2.4949,2.4814,2.402,2.3312,2.3033,2.307,2.2813,2.1987,2.263,2.3125,2.3125,2.3786,2.419,2.419,2.4135,2.4116,2.419,2.4135,2.4116,2.419,2.419,2.419,2.419,2.419,2.419,2.419,2.419,2.419,2.419,2.419,2.419,2.4171,2.3859,2.3877,2.4095,2.3821,2.3662,2.3584,2.3606,2.3414,2.3189,2.3544,2.3671,2.3735,2.4094,2.419,2.419,2.419,2.419,2.419,2.419,2.419,2.419,2.419,2.419,2.419,2.419,2.419,2.419,2.419,2.4339,2.4459,2.4385,2.4495,2.4633,2.4662,2.4733,2.4842,2.4962,2.4877,2.4612,2.411,2.3046,2.2048,2.1344,2.0399,1.9726,1.9609,1.972,1.9701,1.9509,1.9569,1.9412,1.8949,1.8986,1.8896,1.8594,1.8353,1.8207,1.8147,1.7616,1.7314,1.7248,1.6901,1.6581,1.6301,1.6274,1.6095,1.5799,1.5799,1.5799,1.5799,1.5799,1.5799,1.5858,1.6458,1.6712,1.6876,1.8223,1.8702,1.8807,2.5303,2.5303,2.5303,2.5303,2.5224,2.513,2.4956,2.4516,2.3764,2.2553,2.233,2.1951,2.1106,2.1767,2.2464,2.296,2.329,2.3676,2.4171,2.419,2.419,2.419,2.419,2.419,2.419,2.419,2.419,2.419,2.419,2.419,2.419,2.419,2.419,2.419,2.419,2.419,2.419,2.419,2.4094,2.3896,2.3896,2.3692,2.3392,2.3392,2.3323,2.3236,2.3566,2.3692,2.3735,2.4094,2.419,2.419,2.419,2.419,2.419,2.419,2.419,2.4098,2.3621,2.3823,2.408,2.3602,2.3841,2.4228,2.4339,2.4426,2.4526,2.4654,2.4814,2.493,2.493,2.5024,2.5126,2.5163,2.5138,2.4689,2.3495,2.2901,2.2124,2.0851,2.0231,1.9901,1.9847,1.989,1.9869,1.9726,1.9713,1.954,1.9143,1.9127,1.8963,1.8604,1.8489,1.8371,1.8208,1.7958,1.776,1.7612,1.7248,1.7027,1.6885,1.6696,1.6436,1.608,1.608,1.6182,1.6353,1.6353,1.6593,1.7012,1.767,1.7891,1.7996,1.8957,1.9286,1.9331,2.4986,2.5139,2.5303,2.5303,2.5303,2.5224,2.5034,2.4721,2.3992,2.2563,2.2076,2.1502,2.0611,2.1272,2.2116,2.2942,2.3235,2.3602,2.4153,2.419,2.419,2.419,2.419,2.419,2.419,2.419,2.419,2.419,2.419,2.419,2.419,2.419,2.419,2.419,2.419,2.419,2.419,2.419,2.4074,2.3855,2.3855,2.3714,2.3482,2.3482,2.3482,2.3522,2.3774,2.3855,2.3896,2.4113,2.419,2.419,2.419,2.419,2.419,2.419,2.419,2.408,2.3511,2.3602,2.3768,2.3437,2.3602,2.3971,2.4388,2.4561,2.4654,2.4896,2.5018,2.5088,2.5088,2.5203,2.5303,2.5303,2.5101,2.4447,2.3004,2.2581,2.1889,2.0465,2.038,2.0317,2.0031,2.027,2.0279,1.9888,1.992,1.9748,1.9339,1.9324,1.9157,1.8807,1.8753,1.8641,1.843,1.827,1.8103,1.7905,1.7595,1.7392,1.7296,1.6952,1.6659,1.6448,1.6448,1.6589,1.6879,1.6879,1.721,1.7757,1.8448,1.8702,1.8777,1.9435,1.969,1.969,2.4264,2.4755,2.5303,2.5303,2.5303,2.5224,2.5034,2.4316,2.3695,2.3344,2.2532,2.1618,2.0609,2.1272,2.2116,2.2942,2.3731,2.419,2.419,2.419,2.419,2.419,2.419,2.419,2.419,2.419,2.419,2.419,2.419,2.419,2.419,2.419,2.419,2.419,2.419,2.419,2.419,2.419,2.4208,2.419,2.419,2.419,2.419,2.419,2.419,2.419,2.419,2.419,2.419,2.419,2.419,2.419,2.419,2.419,2.419,2.419,2.419,2.419,2.419,2.3621,2.3199,2.3988,2.3602,2.3272,2.4258,2.4654,2.4902,2.5233,2.5303,2.5303,2.5303,2.5303,2.5303,2.5303,2.462,2.3821,2.2908,2.2062,2.1216,2.0408,2.1004,2.1097,2.0098,2.0898,2.1078,2.0079,2.0188,2.0098,1.9609,1.9601,1.9499,1.9289,1.9084,1.8984,1.8984,1.8469,1.8187,1.8187,1.7927,1.7618,1.7296,1.6952,1.6789,1.6789,1.6789,1.6975,1.7279,1.7279,1.7456,1.7757,1.8448,1.8702,1.8777,1.9435,1.969,1.969,2.4149,2.4755,2.5303,2.5303,2.5303,2.5274,2.5214,2.487,2.4328,2.354,2.3113,2.2718,2.2243,2.1951,2.2116,2.2942,2.3235,2.3621,2.4153,2.419,2.419,2.419,2.419,2.419,2.419,2.419,2.419,2.419,2.419,2.419,2.419,2.419,2.419,2.419,2.419,2.419,2.419,2.419,2.419,2.419,2.419,2.419,2.419,2.419,2.419,2.419,2.419,2.419,2.419,2.419,2.419,2.419,2.419,2.419,2.419,2.419,2.419,2.408,2.3529,2.3252,2.3208,2.352,2.347,2.3607,2.4615,2.4993,2.516,2.5293,2.5303,2.5303,2.5303,2.5303,2.5303,2.5303,2.5101,2.4428,2.3004,2.2592,2.191,2.0458,2.0542,2.0557,2.0248,2.0491,2.0776,2.1011,2.1084,2.0718,1.9788,1.9738,1.986,2.0097,2.0052,1.9952,1.9831,1.9479,1.8918,1.8187,1.7927,1.7726,1.7635,1.7542,1.7361,1.715,1.715,1.763,1.8387,1.8387,1.8826,1.9495,1.9725,1.9611,1.9405,1.9615,1.969,1.969,2.3186,2.3746,2.4282,2.4282,2.4232,2.4181,2.4181,2.4319,2.4195,2.3507,2.3621,2.3667,2.3474,2.2997,2.2905,2.3419,2.3456,2.3657,2.4171,2.419,2.419,2.419,2.419,2.419,2.419,2.419,2.419,2.419,2.419,2.419,2.419,2.419,2.419,2.419,2.419,2.419,2.419,2.419,2.419,2.419,2.419,2.419,2.419,2.419,2.419,2.419,2.419,2.419,2.419,2.419,2.419,2.419,2.419,2.4266,2.4303,2.4228,2.4247,2.4118,2.3289,2.3201,2.3322,2.3356,2.3427,2.3755,2.4784,2.5152,2.5303,2.5303,2.5303,2.5303,2.5303,2.5303,2.5303,2.5303,2.5063,2.4485,2.3437,2.2765,2.1968,2.0889,2.0754,2.0631,2.0337,2.0565,2.0831,2.1023,2.1062,2.0716,1.9928,2.0183,2.0446,2.0609,2.0612,2.0517,2.0316,2.0082,1.9463,1.8489,1.8125,1.7949,1.7949,1.7856,1.7681,1.7502,1.7502,1.8094,1.9095,1.9095,1.9681,2.055,2.0382,2.0158,1.9909,1.9747,1.969,1.969,2.1658,2.2096,2.2609,2.2598,2.2486,2.2388,2.2376,2.3062,2.354,2.3406,2.4046,2.4409,2.4228,2.419,2.419,2.419,2.419,2.419,2.419,2.419,2.419,2.419,2.419,2.419,2.419,2.419,2.419,2.419,2.419,2.419,2.419,2.419,2.419,2.419,2.419,2.419,2.419,2.419,2.419,2.419,2.419,2.419,2.419,2.419,2.419,2.419,2.419,2.419,2.419,2.419,2.419,2.419,2.4209,2.4339,2.4461,2.4266,2.4357,2.4325,2.3529,2.3401,2.3515,2.3582,2.3609,2.3878,2.4796,2.5163,2.5303,2.5303,2.5303,2.5303,2.5303,2.5303,2.5303,2.5303,2.4678,2.4168,2.411,2.2697,2.1658,2.16,2.16,2.1312,2.0562,2.11,2.1216,2.0523,2.0427,2.0301,2.0108,2.0852,2.1149,2.0807,2.0792,2.0704,2.0503,2.0299,1.9777,1.8966,1.8469,1.8208,1.8187,1.7949,1.7833,1.7811,1.7811,1.8408,1.9443,1.9443,2.0053,2.0975,2.0516,2.0314,2.0212,1.9839,1.969,1.969,2.1543,2.2179,2.271,2.262,2.308,2.3391,2.3239,2.3936,2.4429,2.423,2.4364,2.4409,2.4228,2.419,2.419,2.419,2.419,2.419,2.419,2.419,2.419,2.419,2.419,2.419,2.419,2.419,2.419,2.419,2.419,2.419,2.419,2.419,2.419,2.419,2.419,2.419,2.419,2.419,2.419,2.419,2.419,2.419,2.419,2.419,2.419,2.419,2.419,2.419,2.419,2.419,2.419,2.4228,2.4375,2.4461,2.4495,2.4444,2.4559,2.4674,2.4471,2.4085,2.3871,2.4492,2.4748,2.4943,2.5175,2.5264,2.5303,2.5303,2.5303,2.5303,2.5303,2.5303,2.5303,2.5303,2.5139,2.4793,2.4187,2.3736,2.3256,2.2637,2.2573,2.2506,2.2378,2.1831,2.1713,2.2246,2.1617,2.1207,2.1144,2.1244,2.1149,2.0807,2.0792,2.0704,2.0503,2.0299,1.9687,1.8697,1.8566,1.8391,1.8187,1.8125,1.7992,1.7811,1.7811,1.8569,1.9857,1.9857,2.0311,2.0991,2.0862,2.0431,1.9839,1.9762,1.969,1.969,2.0946,2.125,2.1493,2.1425,2.1981,2.2394,2.2281,2.3229,2.3955,2.3819,2.4135,2.4321,2.4209,2.419,2.419,2.419,2.419,2.419,2.419,2.419,2.419,2.419,2.419,2.419,2.419,2.419,2.419,2.419,2.419,2.419,2.419,2.419,2.419,2.419,2.419,2.419,2.419,2.419,2.419,2.419,2.419,2.419,2.419,2.419,2.419,2.419,2.419,2.419,2.4209,2.4303,2.4339,2.4375,2.4559,2.4682,2.4737,2.4737,2.4809,2.4815,2.4441,2.4415,2.4585,2.5026,2.5214,2.5303,2.5303,2.5303,2.5303,2.5303,2.5303,2.5303,2.5303,2.5303,2.5303,2.5303,2.5303,2.5159,2.4716,2.4322,2.3938,2.3503,2.3101,2.2707,2.235,2.1812,2.1551,2.1691,2.1251,2.0946,2.0946,2.0804,2.0755,2.0894,2.0835,2.0704,2.0503,2.0038,1.9501,1.8912,1.8698,1.8528,1.8371,1.8125,1.8137,1.8302,1.8302,1.9164,2.0525,2.0334,2.0636,2.1244,2.0829,2.0398,1.9929,1.9782,1.969,1.969,2.0312,2.0161,2.0031,2.0012,2.0469,2.0849,2.0807,2.1974,2.2831,2.2832,2.3419,2.3841,2.3841,2.3841,2.3878,2.4006,2.4025,2.4061,2.419,2.419,2.419,2.419,2.419,2.419,2.419,2.419,2.419,2.419,2.419,2.419,2.419,2.419,2.419,2.419,2.4061,2.408,2.4171,2.3933,2.3969,2.419,2.4061,2.408,2.419,2.419,2.419,2.419,2.419,2.4209,2.4266,2.4444,2.4528,2.4575,2.4771,2.4917,2.501,2.5034,2.5046,2.4901,2.4213,2.4645,2.5303,2.5303,2.5303,2.5303,2.5303,2.5303,2.5303,2.5303,2.5303,2.5303,2.5303,2.5303,2.5303,2.5303,2.5303,2.5303,2.5303,2.4716,2.4283,2.4283,2.3533,2.2716,2.1985,2.1658,2.1216,2.0542,2.0369,2.0312,2.0312,2.0115,2.0247,2.0797,2.0685,2.0519,2.0335,1.9638,1.9305,1.9289,1.8878,1.8694,1.8743,1.8254,1.8415,1.9063,1.9063,1.9875,2.1177,2.0783,2.0982,2.1521,2.0797,2.0416,2.0246,1.9909,1.9747,1.969,2.0312,2.0277,2.0197,2.0031,2.0638,2.1053,2.0835,2.1566,2.2117,2.2004,2.2079,2.217,2.217,2.217,2.2446,2.3144,2.3199,2.3474,2.4153,2.419,2.419,2.419,2.419,2.419,2.419,2.419,2.419,2.419,2.419,2.419,2.419,2.419,2.419,2.4171,2.3492,2.3566,2.4116,2.274,2.296,2.4135,2.3456,2.3602,2.419,2.419,2.419,2.419,2.419,2.4321,2.4461,2.4495,2.4607,2.479,2.4911,2.4986,2.5034,2.5203,2.5253,2.5234,2.51,2.5178,2.5303,2.5303,2.5303,2.5303,2.5303,2.5303,2.5303,2.5303,2.5303,2.5303,2.5303,2.5303,2.5303,2.5303,2.5303,2.5303,2.5303,2.5187,2.512,2.512,2.4389,2.3879,2.3783,2.2389,2.1474,2.1394,2.0723,2.0312,2.0312,2.0115,2.0,1.9979,1.9856,1.9685,1.9491,1.9344,1.9305,1.9289,1.9051,1.9146,1.952,1.9208,1.935,1.9816,1.9816,2.0348,2.1177,2.1107,2.1289,2.1582,2.146,2.0959,2.028,2.0212,2.0,1.969,2.0312,2.0312,2.0277,2.0188,2.0728,2.1157,2.1029,2.1583,2.1977,2.1916,2.1835,2.1803,2.1803,2.1803,2.2116,2.2942,2.2997,2.3345,2.4153,2.419,2.419,2.419,2.419,2.419,2.419,2.419,2.419,2.419,2.419,2.419,2.419,2.419,2.419,2.4171,2.3804,2.3621,2.3511,2.2845,2.3007,2.3691,2.3268,2.3618,2.4357,2.4357,2.4357,2.4375,2.4478,2.4575,2.467,2.4752,2.4818,2.4943,2.5118,2.5163,2.5173,2.5274,2.5303,2.5303,2.5303,2.5303,2.5303,2.5303,2.5303,2.5303,2.5303,2.5303,2.5303,2.5303,2.5303,2.5303,2.5303,2.5303,2.5303,2.5303,2.5303,2.5303,2.5303,2.5303,2.5303,2.5303,2.4582,2.3937,2.3494,2.2274,2.1331,2.0924,2.0523,2.0485,2.0927,2.0345,2.0143,2.0493,2.0229,1.9841,1.9323,1.973,1.995,1.995,1.9754,1.99,2.0336,2.0075,2.0185,2.0653,2.0653,2.1075,2.1786,2.1513,2.1361,2.1244,2.1007,2.0516,1.9965,1.9965,1.9874,1.969,2.0312,2.0312,2.0312,2.0312,2.0679,2.0975,2.0925,2.1268,2.1512,2.1488,2.1374,2.1299,2.1299,2.125,2.162,2.263,2.2721,2.3144,2.4135,2.419,2.419,2.419,2.419,2.419,2.419,2.4025,2.4006,2.419,2.4006,2.4025,2.419,2.419,2.4228,2.4266,2.4082,2.3768,2.3396,2.2914,2.3067,2.3606,2.3164,2.3612,2.4559,2.4559,2.4559,2.4591,2.4746,2.4832,2.4869,2.4962,2.5034,2.5099,2.5253,2.5303,2.5264,2.5082,2.5024,2.5063,2.5245,2.5303,2.5303,2.5303,2.5303,2.5303,2.5303,2.5303,2.5303,2.5303,2.5303,2.5303,2.5303,2.5303,2.5303,2.5303,2.5303,2.5303,2.5303,2.5303,2.5226,2.5043,2.4293,2.3456,2.2581,2.1716,2.1043,2.0619,2.0581,2.085,2.1466,2.0774,2.0497,2.0788,2.0589,2.0207,1.9583,2.0391,2.0813,2.0796,2.0571,2.0727,2.1153,2.0882,2.1,2.1448,2.1448,2.1786,2.2282,2.1899,2.1507,2.1086,2.0748,2.0296,1.9839,1.9839,1.9782,1.969,2.0312,2.0312,2.0312,2.0312,2.0342,2.0301,2.0117,2.0126,2.0104,1.9979,1.9843,1.9755,1.9755,1.9612,2.0131,2.1766,2.1894,2.2538,2.4098,2.419,2.419,2.419,2.419,2.419,2.419,2.3474,2.3456,2.419,2.3456,2.3474,2.419,2.419,2.4303,2.4459,2.3696,2.3846,2.4515,2.2224,2.2582,2.4549,2.2989,2.3328,2.4775,2.4775,2.4775,2.4775,2.479,2.4877,2.4986,2.4998,2.5111,2.5274,2.5303,2.5303,2.5149,2.4409,2.4187,2.436,2.5101,2.5303,2.5303,2.5303,2.5303,2.5303,2.5303,2.5303,2.5303,2.5303,2.5303,2.5303,2.5303,2.5303,2.5303,2.5303,2.5303,2.5303,2.5303,2.5303,2.5024,2.4283,2.3417,2.2543,2.1677,2.0869,2.0677,2.137,2.1408,2.1446,2.1504,2.1438,2.0929,1.9934,2.0296,2.0466,2.0411,2.1272,2.1711,2.1694,2.1443,2.1516,2.19,2.1644,2.179,2.2226,2.2226,2.226,2.231,2.2254,2.1957,2.1552,2.1521,2.0991,2.0246,2.0246,2.0035,1.969,2.0331,2.0312,2.0312,2.0312,2.0312,2.0277,2.0197,2.0078,1.9974,1.9943,1.9726,1.9614,1.9614,1.9871,2.0519,2.1711,2.2263,2.3015,2.4135,2.419,2.419,2.419,2.419,2.419,2.419,2.3896,2.3657,2.3456,2.3233,2.3026,2.2841,2.2936,2.2992,2.3068,2.3322,2.3361,2.3237,2.2918,2.3327,2.4125,2.3486,2.3923,2.4911,2.4911,2.4911,2.4886,2.4488,2.4413,2.4436,2.4436,2.4485,2.4639,2.5139,2.5303,2.5245,2.4928,2.4101,2.3475,2.4332,2.4562,2.4562,2.4562,2.4562,2.4697,2.5187,2.5303,2.5303,2.5341,2.5322,2.5303,2.5341,2.537,2.5341,2.5303,2.5322,2.5178,2.462,2.4562,2.4235,2.3398,2.2524,2.187,2.1523,2.1216,2.1177,2.1485,2.2004,2.2312,2.2312,2.1703,2.0929,1.9952,2.09,2.1129,2.0503,2.1859,2.2538,2.2538,2.2447,2.2622,2.3052,2.2963,2.2757,2.2537,2.2537,2.2436,2.231,2.231,2.2032,2.1582,2.1582,2.107,2.0314,2.0314,2.007,1.969,2.0325,2.0335,2.035,2.0312,2.0312,2.0312,2.0312,2.0169,2.0087,2.0087,1.9888,1.9732,1.9732,2.0247,2.0947,2.1795,2.2555,2.3345,2.4153,2.3951,2.3933,2.419,2.419,2.419,2.419,2.3694,2.3327,2.3068,2.2908,2.2558,2.2081,2.2436,2.2499,2.2325,2.2918,2.2918,2.2498,2.319,2.3492,2.3503,2.3779,2.4219,2.4736,2.5004,2.5099,2.5015,2.4341,2.411,2.411,2.411,2.411,2.4245,2.5063,2.4937,2.4505,2.4505,2.3505,2.2524,2.3129,2.3293,2.337,2.3629,2.3687,2.3918,2.4736,2.4947,2.5043,2.5351,2.5369,2.5365,2.5399,2.5428,2.5409,2.5341,2.537,2.5101,2.4245,2.411,2.3687,2.2524,2.187,2.1408,2.1158,2.135,2.162,2.1889,2.2716,2.309,2.2812,2.1589,2.0623,2.0031,2.1362,2.1726,2.0986,2.2556,2.3382,2.3382,2.3382,2.3487,2.3692,2.3692,2.3392,2.2848,2.2746,2.2599,2.2426,2.2321,2.2032,2.1582,2.146,2.0975,2.028,2.0158,1.9929,1.969,2.0349,2.0418,2.0465,2.0312,2.0312,2.0312,2.0312,2.0312,2.0312,2.0312,2.0124,1.9993,1.9993,2.0483,2.1127,2.1934,2.2606,2.3345,2.4135,2.3437,2.3364,2.4153,2.4171,2.4171,2.4171,2.2611,2.2256,2.318,2.2387,2.2065,2.2195,2.3069,2.312,2.2479,2.2498,2.2602,2.2793,2.2793,2.2812,2.2889,2.3744,2.411,2.4187,2.4986,2.5284,2.5168,2.4379,2.4091,2.411,2.4091,2.4091,2.4245,2.5043,2.4139,2.2793,2.2793,2.2177,2.1485,2.1504,2.1554,2.1776,2.2581,2.2793,2.3032,2.3898,2.4149,2.4437,2.5236,2.5452,2.5485,2.5418,2.5447,2.5466,2.5409,2.539,2.5101,2.4302,2.4129,2.3437,2.1696,2.1504,2.1196,2.0389,2.1043,2.1889,2.2754,2.361,2.3706,2.2831,2.1024,2.0012,2.0012,2.1498,2.221,2.2009,2.3473,2.419,2.419,2.419,2.4016,2.3692,2.3692,2.3522,2.3189,2.2848,2.2695,2.2669,2.2398,2.2032,2.1552,2.115,2.0715,2.0246,1.9839,1.969,1.969,2.0402,2.0444,2.0472,2.0394,2.0321,2.0312,2.0312,2.0312,2.0312,2.0312,2.0124,1.9993,1.9993,2.0573,2.1218,2.195,2.2704,2.3195,2.3345,2.3144,2.2868,2.252,2.2537,2.2537,2.2537,2.206,2.1636,2.1318,2.1293,2.1029,2.0533,2.102,2.1149,2.0983,2.1559,2.1835,2.1966,2.3186,2.3706,2.3725,2.3995,2.411,2.4052,2.3697,2.3928,2.4274,2.2793,2.3071,2.4014,2.3398,2.359,2.4149,2.4379,2.3697,2.2812,2.2852,2.1823,2.0804,2.1468,2.1199,2.0938,2.1765,2.1993,2.226,2.3129,2.3784,2.4284,2.4572,2.5084,2.5507,2.5545,2.5066,2.483,2.5383,2.4525,2.3698,2.3408,2.2815,2.2006,2.0869,2.1227,2.1477,2.1246,2.2485,2.3437,2.3687,2.3398,2.2812,2.1927,2.0817,2.0474,2.1031,2.1967,2.2721,2.3259,2.4036,2.4339,2.419,2.419,2.4151,2.4054,2.4054,2.3876,2.3522,2.3189,2.2923,2.2669,2.2398,2.2209,2.2049,2.1598,2.1181,2.0731,2.0296,1.9929,1.969,2.0467,2.0499,2.0517,2.0426,2.0366,2.034,2.0339,2.0331,2.0312,2.0312,2.0197,2.0115,2.0115,2.0684,2.1249,2.1661,2.2309,2.2523,2.2042,2.2006,2.1657,2.0866,2.0811,2.1123,2.1803,2.1455,2.1066,2.0612,2.0826,2.054,1.9821,2.0403,2.0514,2.0208,2.0776,2.1023,2.1119,2.2485,2.2889,2.2639,2.3321,2.3379,2.3043,2.287,2.334,2.3879,2.212,2.262,2.3975,2.309,2.3379,2.3975,2.3312,2.2754,2.2265,2.1987,2.1166,2.0457,2.1023,2.0827,2.0562,2.1034,2.1181,2.1404,2.2288,2.2871,2.3457,2.414,2.4703,2.5174,2.5527,2.5191,2.5001,2.546,2.4729,2.3957,2.36,2.3082,2.2395,2.1492,2.1813,2.21,2.2081,2.3293,2.4225,2.4543,2.3793,2.3081,2.2562,2.1735,2.1504,2.2004,2.2738,2.3356,2.3797,2.4393,2.4572,2.4321,2.4247,2.419,2.4208,2.4074,2.3896,2.3671,2.3212,2.2898,2.2669,2.2398,2.218,2.1974,2.1538,2.1102,2.0665,2.0227,1.9909,1.969,2.0527,2.0566,2.0563,2.0438,2.0402,2.04,2.04,2.0358,2.03,2.0292,2.0312,2.0312,2.0312,2.0786,2.1135,2.12,2.169,2.1594,2.0588,2.0519,2.0152,1.9341,1.9305,2.0021,2.1545,2.0794,2.047,2.0685,2.0672,2.0375,1.9797,2.0741,2.0756,2.0012,2.0205,2.0312,2.035,2.1158,2.1081,2.0542,2.2062,2.2216,2.1581,2.2293,2.3109,2.3648,2.1985,2.2504,2.386,2.3071,2.3331,2.3716,2.2111,2.16,2.1455,2.0639,2.0411,2.0418,2.0426,2.0468,2.0504,2.0504,2.046,2.0639,2.1422,2.1715,2.2257,2.3867,2.43,2.4648,2.5469,2.5605,2.559,2.56,2.5485,2.5156,2.4492,2.4288,2.3884,2.3017,2.2985,2.2984,2.2917,2.3697,2.4485,2.5139,2.4505,2.4072,2.3995,2.3225,2.2831,2.2908,2.3687,2.4053,2.3954,2.4648,2.4845,2.4528,2.4321,2.4228,2.4228,2.3878,2.3714,2.3671,2.3021,2.2721,2.2669,2.2398,2.2032,2.1628,2.1213,2.0781,2.0382,1.998,1.9782,1.9747,2.0586,2.0586,2.0586,2.0563,2.0504,2.0477,2.048,2.0379,2.0302,2.03,2.0312,2.0312,2.0312,2.0414,2.0679,2.1154,2.169,2.164,2.079,2.0581,2.0152,1.9341,1.9305,1.947,1.9837,1.9656,1.9577,1.9641,1.9769,1.9791,1.9662,2.008,2.0184,2.0012,2.0205,2.0312,2.035,2.1158,2.1408,2.1273,2.1639,2.1677,2.1446,2.1004,2.135,2.1927,2.0927,2.1658,2.3043,2.2851,2.2957,2.2987,2.1929,2.1647,2.1512,2.0716,2.0477,2.0482,2.0541,2.0571,2.0589,2.0589,2.0569,2.0601,2.0797,2.1378,2.2153,2.3164,2.3902,2.4668,2.5527,2.5137,2.4901,2.557,2.4527,2.3828,2.4336,2.3807,2.328,2.3086,2.3571,2.3898,2.3823,2.4563,2.4851,2.4389,2.4206,2.3802,2.3129,2.2889,2.3109,2.3802,2.3995,2.438,2.4974,2.4992,2.4911,2.4731,2.4545,2.4426,2.4445,2.4191,2.3937,2.3671,2.3259,2.2947,2.2669,2.2398,2.2237,2.2106,2.1628,2.1399,2.1259,2.0862,2.0499,2.0124,2.0488,2.0527,2.0605,2.0605,2.0547,2.0503,2.0535,2.0428,2.036,2.0354,2.0331,2.0312,2.0312,2.0312,2.0397,2.0603,2.0887,2.0828,2.0351,2.022,1.995,1.9456,1.9438,1.9438,1.9438,1.935,1.9305,1.9305,1.9413,1.9471,1.9452,1.9767,1.9893,1.9922,2.018,2.0312,2.0331,2.0754,2.0927,2.0927,2.0927,2.0927,2.0889,2.0465,2.0812,2.1389,2.06,2.1119,2.2177,2.2216,2.2237,2.2141,2.1323,2.1104,2.1055,2.0657,2.0558,2.055,2.0594,2.0597,2.0581,2.0561,2.0586,2.0605,2.0605,2.0939,2.1597,2.2889,2.3477,2.418,2.5469,2.5305,2.5138,2.5624,2.4902,2.4453,2.4941,2.4629,2.433,2.4301,2.463,2.4851,2.4774,2.513,2.5178,2.4755,2.4697,2.4466,2.4024,2.3985,2.4197,2.4659,2.4678,2.487,2.5303,2.5203,2.5107,2.5024,2.4666,2.4495,2.4495,2.4135,2.3774,2.3437,2.3117,2.2789,2.25,2.2377,2.218,2.1928,2.1688,2.1491,2.1275,2.1086,2.0829,2.055,2.0308,2.0427,2.0546,2.0586,2.0547,2.0527,2.0586,2.051,2.0428,2.0419,2.035,2.0312,2.0312,2.0312,2.0233,2.0069,2.0022,1.9944,1.9836,1.9802,1.975,1.9649,1.9636,1.9636,1.9636,1.9438,1.935,1.935,1.932,1.932,1.935,1.9657,1.9802,1.9847,2.0162,2.0312,2.0312,2.0312,2.0312,2.0312,2.0312,2.0312,2.0312,2.0312,2.0716,2.1216,2.0542,2.0735,2.1331,2.138,2.1391,2.1304,2.0696,2.0518,2.0518,2.0578,2.0583,2.0576,2.0576,2.0583,2.0579,2.0501,2.0642,2.0809,2.0796,2.075,2.119,2.2825,2.3237,2.3786,2.5368,2.5629,2.5599,2.5659,2.5619,2.5604,2.5664,2.5684,2.5666,2.5611,2.5597,2.5551,2.5513,2.5455,2.5418,2.5409,2.5341,2.5303,2.5303,2.5303,2.5303,2.5303,2.5303,2.5303,2.5303,2.5303,2.5303,2.5284,2.4809,2.4575,2.4526,2.402,2.3588,2.3259,2.2996,2.2678,2.236,2.236,2.2101,2.1718,2.1718,2.1507,2.1229,2.1118,2.1086,2.1023,2.0196,2.0234,2.0314,2.0487,2.0508,2.0527,2.0586,2.0546,2.0482,2.0499,2.0389,2.0312,2.0312,2.0312,2.0285,2.0249,2.0106,1.9984,1.9964,1.9869,1.9778,1.9774,1.9774,1.9774,1.9774,1.963,1.9555,1.9555,1.9398,1.938,1.9555,1.9726,1.9858,1.9993,2.0197,2.0312,2.0312,2.0312,2.0312,2.0312,2.0312,2.0312,2.0312,2.0312,2.0369,2.0446,2.035,2.0408,2.0542,2.0562,2.06,2.0639,2.0523,2.0531,2.0582,2.0605,2.0552,2.0508,2.0508,2.0506,2.0505,2.0437,2.1024,2.1629,2.1566,2.1584,2.1885,2.2829,2.3564,2.4358,2.534,2.5527,2.5531,2.5526,2.5511,2.5545,2.5605,2.5605,2.5605,2.5599,2.5547,2.5502,2.5502,2.5482,2.546,2.5399,2.539,2.537,2.5303,2.5303,2.5303,2.5303,2.5303,2.5303,2.5303,2.5303,2.5303,2.5303,2.5053,2.4858,2.4746,2.4321,2.3937,2.3628,2.3588,2.323,2.2634,2.2634,2.2456,2.2209,2.2209,2.218,2.2077,2.1658,2.1521,2.1399,2.0146,2.0227,2.0338,2.0439,2.0488,2.0508,2.0547,2.0547,2.0543,2.0497,2.0456,2.0389,2.0312,2.0312,2.0312,2.0312,2.0233,2.0161,2.0161,2.0116,2.0031,1.9922,1.9922,1.9922,1.9922,1.9786,1.975,1.9824,1.9572,1.9513,1.9596,1.9813,2.02,2.0718,2.0436,2.0831,2.1639,2.0696,2.0562,2.0927,2.0485,2.0312,2.0312,2.0312,2.0331,2.0366,2.0372,2.0363,2.041,2.0446,2.0485,2.0504,2.0545,2.0588,2.0605,2.0605,2.0554,2.0504,2.0504,2.0469,2.0531,2.0965,2.1421,2.1835,2.2226,2.2376,2.2527,2.2928,2.3647,2.4319,2.4757,2.517,2.5456,2.5486,2.5462,2.5478,2.5587,2.5563,2.5568,2.5605,2.5619,2.5607,2.5607,2.5588,2.5535,2.5453,2.5425,2.537,2.5303,2.5303,2.5303,2.5303,2.5303,2.5303,2.5303,2.5303,2.5303,2.5303,2.5099,2.4943,2.479,2.4495,2.4116,2.3692,2.3692,2.3414,2.2972,2.2972,2.2789,2.2527,2.2527,2.2426,2.2265,2.2077,2.1823,2.1521]},{"header":{"parameterUnit":"m.s-1","parameterCategory":1,"la1":30.6,"la2":28.766,"lo1":-90.7593,"lo2":-88.6598,"dy":0.0162,"dx":0.0183,"nx":116,"ny":114,"refTime":"2023-09-04T12:00:00:Z","depth":0,"parameterNumber":3,"parameterNumberName":"V-component_of_WINDS"},"data":[0.0,0.0,0.0,0.0,0.0,0.0,0.0,0.0,0.0,0.0,0.0,0.0,0.0,0.0,0.0,0.0,0.0,0.0,0.0,0.0,0.0,0.0,0.0,0.0,0.0,0.0,0.0,0.0,0.0,0.0,0.0,0.0,0.0,0.0,0.0,0.0,0.0,0.0,0.0,0.0,0.0,0.0,0.0,0.0,0.0,0.0,0.0,0.0,0.0,0.0,0.0,0.0,0.0,0.0,0.0,0.0,0.0,0.0,0.0,0.0,0.0,0.0,0.0,0.0,0.0,0.0,0.0,0.0,0.0,0.0,0.0,0.0,0.0,0.0,0.0,0.0,0.0,0.0,0.0,0.0,0.0,0.0,0.0,0.0,0.0,0.0,0.0,0.0,0.0,0.0,0.0,0.0,0.0,0.0,0.0,0.0,0.0,0.0,0.0,0.0,0.0,0.0,0.0,0.0,0.0,0.0,0.0,0.0,0.0,0.0,0.0,0.0,0.0,0.0,0.0,0.0,0.0,0.0,0.0,0.0,0.0,0.0,0.0,0.0,0.0,0.0,0.0,0.0,0.0,0.0,0.0,0.0,0.0,0.0,0.0,0.0,0.0,0.0,0.0,0.0,0.0,0.0,0.0,0.0,0.0,0.0,0.0,0.0,0.0,0.0,0.0,0.0,0.0,0.0,0.0,0.0,0.0,0.0,0.0,0.0,0.0,0.0,0.0,0.0,0.0,0.0,0.0,0.0,0.0,0.0,0.0,0.0,0.0,0.0,0.0,0.0,0.0,0.0,0.0,0.0,0.0,0.0,0.0,0.0,0.0,0.0,0.0,0.0,0.0,0.0,0.0,0.0,0.0,0.0,0.0,0.0,0.0,0.0,0.0,0.0,0.0,0.0,0.0,0.0,0.0,0.0,0.0,0.0,0.0,0.0,0.0,0.0,0.0,0.0,0.0,0.0,0.0,0.0,0.0,0.0,0.0,0.0,0.0,0.0,0.0,0.0,0.0,0.0,0.0,0.0,0.0,0.0,0.0,0.0,0.0,0.0,0.0,0.0,0.0,0.0,0.0,0.0,0.0,0.0,0.0,0.0,0.0,0.0,0.0,0.0,0.0,0.0,0.0,0.0,0.0,0.0,0.0,0.0,0.0,0.0,0.0,0.0,0.0,0.0,0.0,0.0,0.0,0.0,0.0,0.0,0.0,0.0,0.0,0.0,0.0,0.0,0.0,0.0,0.0,0.0,0.0,0.0,0.0,0.0,0.0,0.0,0.0,0.0,0.0,0.0,0.0,0.0,0.0,0.0,0.0,0.0,0.0,0.0,0.0,0.0,0.0,0.0,0.0,0.0,0.0,0.0,0.0,0.0,0.0,0.0,0.0,0.0,0.0,0.0,0.0,0.0,0.0,0.0,0.0,0.0,0.0,0.0,0.0,0.0,0.0,0.0,0.0,0.0,0.0,0.0,0.0,0.0,0.0,0.0,0.0,0.0,0.0,0.0,0.0,0.0,0.0,0.0,0.0,0.0,0.0,0.0,0.0,0.0,0.0,0.0,0.0,0.0,0.0,0.0,0.0,0.0,0.0,0.0,0.0,0.0,0.0,0.0,0.0,0.0,0.0,0.0,0.0,0.0,0.0,0.0,0.0,0.0,0.0,0.0,0.0,0.0,0.0,0.0,0.0,0.0,0.0,0.0,0.0,0.0,0.0,0.0,0.0,0.0,0.0,0.0,0.0,0.0,0.0,0.0,0.0,0.0,0.0,0.0,0.0,0.0,0.0,0.0,0.0,0.0,0.0,0.0,0.0,0.0,0.0,0.0,0.0,0.0,0.0,0.0,0.0,0.0,0.0,0.0,0.0,0.0,0.0,0.0,0.0,0.0,0.0,0.0,0.0,0.0,0.0,0.0,0.0,0.0,0.0,0.0,0.0,0.0,0.0,0.0,0.0,0.0,0.0,0.0,0.0,0.0,0.0,0.0,0.0,0.0,0.0,0.0,0.0,0.0,0.0,0.0,0.0,0.0,0.0,0.0,0.0,0.0,0.0,0.0,0.0,0.0,0.0,0.0,0.0,0.0,0.0,0.0,0.0,0.0,0.0,0.0,0.0,0.0,0.0,0.0,0.0,0.0,0.0,0.0,0.0,0.0,0.0,0.0,0.0,0.0,0.0,0.0,0.0,0.0,0.0,0.0,0.0,0.0,0.0,0.0,0.0,0.0,0.0,0.0,0.0,0.0,0.0,0.0,0.0,0.0,0.0,0.0,0.0,0.0,0.0,0.0,0.0,0.0,0.0,0.0,0.0,0.0,0.0,0.0,0.0,0.0,0.0,0.0,0.0,0.0,0.0,0.0,0.0,0.0,0.0,0.0,0.0,0.0,0.0,0.0,0.0,0.0,0.0,0.0,0.0,0.0,0.0,0.0,0.0,0.0,0.0,0.0,0.0,0.0,0.0,0.0,0.0,0.0,0.0,0.0,0.0,0.0,0.0,0.0,0.0,0.0,0.0,0.0,0.0,0.0,0.0,0.0,0.0,0.0,0.0,0.0,0.0,0.0,0.0,0.0,0.0,0.0,0.0,0.0,0.0,0.0,0.0,0.0,0.0,0.0,0.0,0.0,0.0,0.0,0.0,0.0,0.0,0.0,0.0,0.0,0.0,0.0,0.0,0.0,0.0,0.0,0.0,0.0,0.0,0.0,0.0,0.0,0.0,0.0,0.0,0.0,0.0,0.0,0.0,0.0,0.0,0.0,0.0,0.0,0.0,0.0,0.0,0.0,0.0,0.0,0.0,0.0,0.0,0.0,0.0,0.0,0.0,0.0,0.0,0.0,0.0,0.0,0.0,0.0,0.0,0.0,0.0,0.0,0.0,0.0,0.0,0.0,0.0,0.0,0.0,0.0,0.0,0.0,0.0,0.0,0.0,0.0,0.0,0.0,0.0,0.0,0.0,0.0,0.0,0.0,0.0,0.0,0.0,0.0,0.0,0.0,0.0,0.0,0.0,0.0,0.0,0.0,0.0,0.0,0.0,0.0,0.0,0.0,0.0,0.0,0.0,0.0,0.0,0.0,0.0,0.0,0.0,0.0,0.0,0.0,0.0,0.0,0.0,0.0,0.0,0.0,0.0,0.0,0.0,0.0,0.0,0.0,0.0,0.0,0.0,0.0,0.0,0.0,0.0,0.0,0.0,0.0,0.0,0.0,0.0,0.0,0.0,0.0,0.0,0.0,0.0,0.0,0.0,0.0,0.0,0.0,0.0,0.0,0.0,0.0,0.0,0.0,0.0,0.0,0.0,0.0,0.0,0.0,0.0,0.0,0.0,0.0,0.0,0.0,0.0,0.0,0.0,0.0,0.0,0.0,0.0,0.0,0.0,0.0,0.0,0.0,0.0,0.0,0.0,0.0,0.0,0.0,0.0,0.0,0.0,0.0,0.0,0.0,0.0,0.0,0.0,0.0,0.0,0.0,0.0,0.0,0.0,0.0,0.0,0.0,0.0,0.0,0.0,0.0,0.0,0.0,0.0,0.0,0.0,0.0,0.0,0.0,0.0,0.0,0.0,0.0,0.0,0.0,0.0,0.0,0.0,0.0,0.0,0.0,0.0,0.0,0.0,0.0,0.0,0.0,0.0,0.0,0.0,0.0,0.0,0.0,0.0,0.0,0.0,0.0,0.0,0.0,0.0,0.0,0.0,0.0,0.0,0.0,0.0,0.0,0.0,0.0,0.0,0.0,0.0,0.0,0.0,0.0,0.0,0.0,0.0,0.0,0.0,0.0,0.0,0.0,0.0,0.0,0.0,0.0,0.0,0.0,0.0,0.0,0.0,0.0,0.0,0.0,0.0,0.0,0.0,0.0,0.0,0.0,0.0,0.0,0.0,0.0,0.0,0.0,0.0,0.0,0.0,0.0,0.0,0.0,0.0,0.0,0.0,0.0,0.0,0.0,0.0,0.0,0.0,0.0,0.0,0.0,0.0,0.0,0.0,0.0,0.0,0.0,0.0,0.0,0.0,0.0,0.0,0.0,0.0,0.0,0.0,0.0,0.0,0.0,0.0,0.0,0.0,0.0,0.0,0.0,0.0,0.0,0.0,0.0,0.0,0.0,0.0,0.0,0.0,0.0,0.0,0.0,0.0,0.0,0.0,0.0,0.0,0.0,0.0,0.0,0.0,0.0,0.0,0.0,0.0,0.0,0.0,0.0,0.0,0.0,0.0,0.0,0.0,0.0,0.0,0.0,0.0,0.0,0.0,0.0,0.0,0.0,0.0,0.0,0.0,0.0,0.0,0.0,0.0,0.0,0.0,0.0,0.0,0.0,0.0,0.0,0.0,0.0,0.0,0.0,0.0,0.0,0.0,0.0,0.0,0.0,0.0,0.0,0.0,0.0,0.0,0.0,0.0,0.0,0.0,0.0,0.0,0.0,0.0,0.0,0.0,0.0,0.0,0.0,0.0,0.0,0.0,0.0,0.0,0.0,0.0,0.0,0.0,0.0,0.0,0.0,0.0,0.0,0.0,0.0,0.0,0.0,0.0,0.0,0.0,0.0,0.0,0.0,0.0,0.0,0.0,0.0,0.0,0.0,0.0,0.0,0.0,0.0,0.0,0.0,0.0,0.0,0.0,0.0,0.0,0.0,0.0,0.0,0.0,0.0,0.0,0.0,0.0,0.0,0.0,0.0,0.0,0.0,0.0,0.0,0.0,0.0,0.0,0.0,0.0,0.0,0.0,0.0,0.0,0.0,0.0,0.0,0.0,0.0,0.0,0.0,0.0,0.0,0.0,0.0,0.0,0.0,0.0,0.0,0.0,0.0,0.0,0.0,0.0,0.0,0.0,0.0,0.0,0.0,0.0,0.0,0.0,0.0,0.0,0.0,0.0,0.0,0.0,0.0,0.0,0.0,0.0,0.0,0.0,0.0,0.0,0.0,0.0,0.0,0.0,0.0,0.0,0.0,0.0,0.0,0.0,0.0,0.0,0.0,0.0,0.0,0.0,0.0,0.0,0.0,0.0,0.0,0.0,0.0,0.0,0.0,0.0,0.0,0.0,0.0,0.0,0.0,0.0,0.0,0.0,0.0,0.0,0.0,0.0,0.0,0.0,0.0,0.0,0.0,0.0,0.0,0.0,0.0,0.0,0.0,0.0,0.0,0.0,0.0,0.0,0.0,0.0,0.0,0.0,0.0,0.0,0.0,0.0,0.0,0.0,0.0,0.0,0.0,0.0,0.0,0.0,0.0,0.0,0.0,0.0,0.0,0.0,0.0,0.0,0.0,0.0,0.0,0.0,0.0,0.0,0.0,0.0,0.0,0.0,0.0,0.0,0.0,0.0,0.0,0.0,0.0,0.0,0.0,0.0,0.0,0.0,0.0,0.0,0.0,0.0,0.0,0.0,0.0,0.0,0.0,0.0,0.0,0.0,0.0,0.0,0.0,0.0,0.0,0.0,0.0,0.0,0.0,0.0,0.0,0.0,0.0,0.0,0.0,0.0,0.0,0.0,0.0,0.0,0.0,0.0,0.0,0.0,0.0,0.0,0.0,0.0,0.0,0.0,0.0,0.0,0.0,0.0,0.0,0.0,0.0,0.0,0.0,0.0,0.0,0.0,0.0,0.0,0.0,0.0,0.0,0.0,0.0,0.0,0.0,0.0,0.0,0.0,0.0,0.0,0.0,0.0,0.0,0.0,0.0,0.0,0.0,0.0,0.0,0.0,0.0,0.0,0.0,0.0,0.0,0.0,0.0,0.0,0.0,0.0,0.0,0.0,0.0,0.0,0.0,0.0,0.0,0.0,0.0,0.0,0.0,0.0,0.0,0.0,0.0,0.0,0.0,0.0,0.0,0.0,0.0,0.0,0.0,0.0,0.0,0.0,0.0,0.0,0.0,0.0,0.0,0.0,0.0,0.0,0.0,0.0,0.0,0.0,0.0,0.0,0.0,0.0,0.0,0.0,0.0,0.0,0.0,0.0,0.0,0.0,0.0,0.0,0.0,0.0,0.0,0.0,0.0,0.0,0.0,0.0,0.0,0.0,0.0,0.0,0.0,0.0,0.0,0.0,0.0,0.0,0.0,0.0,0.0,0.0,0.0,0.0,0.0,0.0,0.0,0.0,0.0,-1.4805,-1.5448,0.0,0.0,0.0,0.0,0.0,0.0,0.0,0.0,0.0,0.0,0.0,0.0,0.0,0.0,0.0,0.0,0.0,0.0,0.0,0.0,0.0,0.0,0.0,0.0,0.0,0.0,0.0,0.0,0.0,0.0,0.0,0.0,0.0,0.0,0.0,0.0,0.0,0.0,-1.432,-1.5562,-1.7214,-1.8452,-1.9088,-1.9184,0.0,0.0,0.0,0.0,0.0,0.0,0.0,0.0,0.0,0.0,0.0,0.0,0.0,0.0,0.0,0.0,0.0,0.0,0.0,0.0,0.0,0.0,0.0,0.0,0.0,0.0,0.0,0.0,0.0,0.0,0.0,0.0,0.0,0.0,0.0,0.0,0.0,0.0,0.0,0.0,0.0,0.0,0.0,0.0,0.0,0.0,0.0,0.0,0.0,0.0,0.0,0.0,0.0,0.0,0.0,0.0,0.0,0.0,0.0,0.0,0.0,0.0,0.0,0.0,0.0,0.0,0.0,0.0,0.0,0.0,-1.5374,-1.5329,0.0,0.0,0.0,0.0,0.0,0.0,0.0,0.0,0.0,0.0,0.0,0.0,0.0,0.0,0.0,0.0,0.0,0.0,0.0,0.0,0.0,0.0,0.0,-1.0594,-1.0202,-1.0198,-1.0254,-1.0293,0.0,0.0,0.0,0.0,0.0,0.0,0.0,-1.4606,-1.4679,-1.4098,-1.526,-1.6932,-1.9108,-2.006,-1.9849,-1.8732,-2.0111,0.0,0.0,0.0,0.0,0.0,0.0,0.0,0.0,0.0,0.0,0.0,0.0,0.0,0.0,0.0,0.0,0.0,0.0,0.0,0.0,0.0,0.0,0.0,0.0,0.0,0.0,0.0,0.0,0.0,0.0,0.0,0.0,0.0,0.0,0.0,0.0,0.0,0.0,0.0,0.0,0.0,0.0,0.0,0.0,0.0,0.0,0.0,0.0,0.0,0.0,0.0,0.0,0.0,0.0,0.0,0.0,0.0,0.0,0.0,0.0,0.0,0.0,0.0,-1.7537,-1.7624,-1.7945,-1.7894,-1.7921,-1.7966,-1.6383,-1.5601,-1.5412,-1.5679,0.0,0.0,0.0,0.0,0.0,0.0,0.0,0.0,0.0,0.0,0.0,0.0,0.0,0.0,0.0,0.0,0.0,0.0,0.0,0.0,0.0,-1.0229,-1.0208,-1.0198,-1.0265,-1.0293,-1.0293,0.0,0.0,0.0,0.0,0.0,-1.3047,-1.3173,-1.3525,-1.4098,-1.6381,-1.8009,-1.9042,-2.0611,-2.163,-2.2158,-2.237,-2.2889,-2.3494,0.0,0.0,0.0,0.0,0.0,0.0,0.0,0.0,0.0,0.0,0.0,0.0,0.0,0.0,0.0,0.0,0.0,0.0,0.0,0.0,0.0,0.0,0.0,0.0,0.0,0.0,0.0,0.0,0.0,0.0,0.0,0.0,0.0,0.0,0.0,0.0,0.0,0.0,0.0,0.0,0.0,-1.9613,-1.8978,0.0,0.0,0.0,0.0,0.0,0.0,0.0,0.0,0.0,0.0,0.0,0.0,0.0,-1.8454,-1.9631,-1.8996,-1.8824,-1.9104,-1.8415,-1.8408,-1.9004,-1.8703,-1.8897,-1.939,-1.8559,0.0,-1.6499,-1.6764,0.0,0.0,0.0,0.0,0.0,0.0,0.0,0.0,0.0,0.0,0.0,0.0,0.0,0.0,0.0,0.0,0.0,0.0,0.0,0.0,0.0,-1.1343,-1.1867,-1.2354,-1.3319,-1.3281,-1.1855,-1.2637,0.0,0.0,0.0,-1.2969,-1.2891,-1.3825,-1.4946,-1.6239,-1.8263,-1.9915,-2.1213,-2.2417,-2.3658,-2.4947,-2.4947,-2.462,-2.4014,-2.2754,0.0,0.0,0.0,0.0,0.0,0.0,0.0,0.0,0.0,0.0,0.0,0.0,0.0,0.0,0.0,0.0,0.0,0.0,0.0,0.0,0.0,0.0,0.0,0.0,0.0,0.0,0.0,0.0,0.0,0.0,0.0,0.0,0.0,0.0,0.0,0.0,0.0,0.0,0.0,-1.9326,-1.9866,-1.957,-2.0889,-2.1515,0.0,0.0,0.0,0.0,0.0,0.0,0.0,0.0,0.0,-1.9495,-1.9227,-1.9393,-1.9985,-2.0144,-2.035,-2.0615,-2.0431,-2.0563,-2.0992,-2.057,-2.0543,-2.0797,-2.0513,-1.9854,-1.8907,-1.8244,-1.7519,-1.6768,0.0,0.0,0.0,0.0,-1.5899,-1.6148,0.0,0.0,0.0,0.0,0.0,0.0,0.0,0.0,0.0,0.0,0.0,0.0,-1.1679,-1.2604,-1.3569,-1.4679,-1.5956,-1.5801,-1.3672,-1.4316,-1.4004,-1.2305,-1.3242,-1.3711,-1.3535,-1.5176,-1.6764,-1.8231,-2.0128,-2.183,-2.3281,-2.4283,-2.5543,-2.6967,-2.7159,-2.6428,-2.4995,-2.3889,-2.2947,-2.2062,0.0,0.0,0.0,0.0,0.0,0.0,0.0,0.0,0.0,0.0,0.0,0.0,0.0,0.0,0.0,0.0,0.0,0.0,0.0,0.0,0.0,0.0,0.0,0.0,0.0,0.0,0.0,0.0,0.0,0.0,0.0,0.0,0.0,0.0,0.0,0.0,0.0,-1.9536,-2.0069,-2.0272,-2.1498,-2.209,0.0,0.0,0.0,0.0,0.0,0.0,-2.1465,-2.0737,-2.0475,-2.0846,-2.0863,-2.0948,-2.116,-2.1653,-2.1991,-2.2188,-2.2263,-2.2426,-2.2645,-2.2285,-2.2129,-2.2173,-2.2009,-2.1754,-2.135,-2.0019,-1.9059,-1.8409,-1.852,-1.8247,-1.7682,-1.7062,-1.7064,-1.7426,0.0,0.0,0.0,0.0,0.0,0.0,0.0,0.0,0.0,0.0,0.0,-1.0826,-1.2467,-1.3474,-1.4718,-1.6424,-1.6647,-1.6289,-1.5332,-1.3867,-1.3301,-1.3945,-1.332,-1.3691,-1.5234,-1.6914,-1.8223,-1.9121,-2.1637,-2.3344,-2.4261,-2.5842,-2.7063,-2.7969,-2.867,-2.8486,-2.7601,-2.5909,-2.4716,-2.3821,-2.212,0.0,0.0,0.0,0.0,0.0,0.0,0.0,0.0,0.0,0.0,0.0,0.0,0.0,0.0,0.0,0.0,0.0,0.0,0.0,0.0,0.0,0.0,0.0,0.0,0.0,0.0,0.0,0.0,0.0,0.0,0.0,0.0,0.0,0.0,0.0,0.0,0.0,0.0,-2.1068,-2.1837,0.0,0.0,0.0,0.0,-2.231,-2.1617,-2.1498,-2.2226,-2.1532,-2.1769,-2.3173,-2.3224,-2.3562,-2.4286,-2.3914,-2.377,-2.3803,-2.3351,-2.3211,-2.3359,-2.3336,-2.3371,-2.3475,-2.2877,-2.2936,-2.3355,-2.2084,-2.0882,-1.9785,-1.9825,-1.9478,-1.8932,-1.8124,-1.8639,-1.9734,0.0,0.0,0.0,0.0,0.0,0.0,0.0,0.0,-1.0194,-1.0175,-1.1165,-1.2526,-1.4259,-1.6241,-1.8154,-1.9892,-2.0526,-1.998,-1.8047,-1.6836,-1.5566,-1.416,-1.3828,-1.4746,-1.7012,-1.8203,-1.9785,-2.1777,-2.3162,-2.4577,-2.5974,-2.6512,-2.7473,-2.8786,-2.9055,-2.8978,-2.8602,-2.7467,-2.6159,-2.4716,-2.3024,-2.1831,0.0,0.0,0.0,0.0,0.0,0.0,0.0,0.0,0.0,0.0,0.0,0.0,0.0,0.0,0.0,0.0,0.0,0.0,0.0,0.0,0.0,0.0,0.0,0.0,0.0,0.0,0.0,0.0,0.0,0.0,0.0,0.0,0.0,0.0,0.0,0.0,0.0,-2.182,-2.2141,0.0,-2.297,-2.3004,-2.3004,-2.3004,-2.319,-2.3427,-2.3697,-2.349,-2.3545,-2.4069,-2.4103,-2.4235,-2.4506,-2.4839,-2.4977,-2.4994,-2.5485,-2.5473,-2.5072,-2.5302,-2.5157,-2.4762,-2.4641,-2.4687,-2.4852,-2.4403,-2.324,-2.1706,-2.1706,-2.1318,-2.0757,-2.046,-2.0646,-2.1055,0.0,0.0,0.0,0.0,0.0,0.0,0.0,0.0,-1.0192,-1.0198,-1.1748,-1.3593,-1.5612,-1.8178,-2.0549,-2.2578,-2.2715,-2.1738,-1.9453,-1.793,-1.6211,-1.4199,-1.4668,-1.5937,-1.7969,-1.9434,-2.1172,-2.3203,-2.4258,-2.5508,-2.6934,-2.7169,-2.8145,-2.9721,-2.9979,-3.0217,-3.0402,-2.9833,-2.8102,-2.564,-2.4524,-2.3562,-2.2639,0.0,0.0,0.0,0.0,0.0,0.0,0.0,0.0,0.0,0.0,0.0,0.0,0.0,0.0,0.0,0.0,0.0,0.0,0.0,0.0,0.0,0.0,0.0,0.0,0.0,0.0,0.0,0.0,0.0,0.0,0.0,0.0,0.0,0.0,-2.119,-2.1983,-2.2581,-2.2885,-2.3224,-2.3714,-2.3765,-2.3765,-2.3765,-2.4205,-2.4625,-2.4847,-2.4864,-2.4983,-2.522,-2.5473,-2.549,-2.522,-2.6234,-2.6607,-2.6336,-2.7088,-2.7104,-2.6455,-2.6446,-2.6086,-2.5481,-2.5544,-2.5734,-2.5944,-2.5944,-2.5181,-2.3939,-2.3251,-2.2712,-2.2293,-2.1859,-2.1829,-2.2024,0.0,0.0,0.0,0.0,0.0,0.0,0.0,-1.015,-1.0193,-1.0198,-1.1814,-1.3938,-1.6463,-1.9108,-2.168,-2.418,-2.2871,-2.1172,-1.9453,-1.6875,-1.5019,-1.418,-1.5801,-1.7168,-1.8105,-2.0625,-2.2383,-2.3281,-2.4902,-2.6152,-2.7012,-2.7851,-2.9125,-3.0739,-3.1499,-3.2314,-3.3108,-3.3,-3.0564,-2.6794,-2.6717,-2.614,-2.5072,0.0,0.0,0.0,0.0,0.0,0.0,0.0,0.0,0.0,0.0,0.0,0.0,0.0,0.0,0.0,0.0,0.0,0.0,0.0,0.0,0.0,0.0,0.0,0.0,0.0,0.0,0.0,0.0,0.0,0.0,0.0,0.0,0.0,-2.136,-2.2185,-2.3005,-2.3435,-2.4117,-2.4557,-2.4574,-2.4591,-2.4608,-2.4574,-2.4608,-2.4881,-2.5609,-2.5659,-2.5998,-2.6708,-2.7469,-2.7503,-2.6776,-2.823,-2.8602,-2.7823,-2.8068,-2.7874,-2.7336,-2.6761,-2.6214,-2.5676,-2.5659,-2.6033,-2.6617,-2.6617,-2.6617,-2.6422,-2.4433,-2.3655,-2.3475,-2.2218,-2.2199,-2.2739,0.0,0.0,0.0,0.0,0.0,0.0,0.0,-1.0198,-1.0191,-1.0198,-1.2831,-1.5468,-1.7435,-2.0507,-2.2949,-2.4277,-2.2871,-2.1426,-2.0312,-1.7207,-1.5293,-1.5059,-1.6719,-1.8633,-2.0781,-2.2148,-2.3555,-2.5019,-2.5469,-2.6152,-2.7031,-2.8516,-2.9741,-3.0762,-3.2242,-3.2981,-3.3211,-3.3801,-3.3,-3.1136,-2.9198,-2.7544,-2.6024,0.0,0.0,0.0,0.0,0.0,0.0,0.0,0.0,0.0,0.0,0.0,0.0,0.0,0.0,0.0,0.0,0.0,0.0,0.0,0.0,0.0,0.0,0.0,0.0,0.0,0.0,0.0,0.0,0.0,0.0,0.0,-2.4311,-2.3875,-2.3248,-2.3394,-2.3932,-2.4879,-2.5463,-2.6031,-2.6567,-2.7089,-2.7192,-2.6653,-2.6771,-2.6759,-2.642,-2.6911,-2.73,-2.7503,-2.8264,-2.8552,-2.8349,-2.8808,-2.8873,-2.867,-2.9265,-2.9202,-2.8548,-2.8581,-2.8189,-2.7525,-2.7185,-2.7126,-2.7355,-2.7355,-2.7355,-2.7156,-2.5644,-2.4762,-2.4238,-2.3385,-2.3428,-2.3897,0.0,0.0,0.0,0.0,0.0,0.0,0.0,-1.0175,-1.0334,-1.0709,-1.3453,-1.6055,-1.7812,-2.043,-2.2266,-2.2754,-2.0918,-1.9199,-1.7969,-1.5977,-1.5332,-1.6445,-1.8164,-2.0137,-2.2344,-2.3262,-2.4355,-2.5703,-2.5703,-2.6328,-2.7578,-2.8574,-3.0059,-3.1875,-3.2869,-3.3896,-3.4899,-3.5356,-3.5445,-3.5115,-3.3145,-3.1121,-2.9025,-2.6967,-2.6101,-2.5832,-2.4774,-2.4438,-2.4302,-2.284,0.0,0.0,0.0,0.0,0.0,0.0,0.0,0.0,0.0,0.0,0.0,0.0,0.0,0.0,0.0,0.0,0.0,0.0,0.0,0.0,0.0,0.0,0.0,0.0,-2.5262,-2.5488,-2.5755,-2.5782,-2.6114,-2.7005,-2.7604,-2.8122,-2.8579,-2.883,-2.8789,-2.8337,-2.8305,-2.8112,-2.7672,-2.8061,-2.8298,-2.8298,-2.9059,-2.9296,-2.9011,-2.96,-2.9753,-2.9465,-2.9945,-2.9945,-2.9543,-2.9432,-2.9182,-2.877,-2.8451,-2.8352,-2.8352,-2.8352,-2.8222,-2.7853,0.0,0.0,0.0,0.0,-2.4528,-2.4712,0.0,0.0,0.0,0.0,0.0,0.0,0.0,-1.0156,-1.0472,-1.1243,-1.3531,-1.5722,-1.7383,-1.9121,-2.0195,-2.0293,-1.8008,-1.5898,-1.4355,-1.4336,-1.5566,-1.8184,-1.9961,-2.1621,-2.3203,-2.4102,-2.4922,-2.5703,-2.5703,-2.6543,-2.8164,-2.8359,-3.0176,-3.3262,-3.3496,-3.4948,-3.7215,-3.73,-3.776,-3.8396,-3.7668,-3.5699,-3.2949,-3.0467,-2.9948,-3.0237,-2.789,-2.6461,-2.5547,-2.4591,0.0,0.0,0.0,0.0,0.0,0.0,0.0,0.0,0.0,0.0,0.0,0.0,0.0,0.0,0.0,0.0,0.0,0.0,0.0,0.0,0.0,0.0,0.0,0.0,-2.6162,-2.6995,-2.8634,-2.8869,-2.8999,-2.9276,-3.0012,-3.0493,-3.0493,-3.0205,-2.9931,-2.981,-2.9436,-2.9132,-2.9028,-2.9059,0.0,0.0,0.0,-2.9905,-2.9228,-3.0531,-3.0903,-3.0362,-3.0475,-3.0558,-3.0625,-3.0048,-2.9688,-2.9608,-2.9563,-2.9486,-2.9406,-2.9406,-2.9088,-2.8481,-2.7139,-2.6519,-2.6404,-2.5641,-2.5327,-2.5297,0.0,0.0,0.0,0.0,0.0,0.0,0.0,-1.0156,-1.0252,-1.0433,-1.2112,-1.37,-1.4746,-1.6406,-1.7734,-1.8437,-1.6758,-1.5508,-1.5176,-1.5801,-1.7363,-1.998,-2.1777,-2.3144,-2.4121,-2.5,-2.5527,-2.5703,-2.5703,-2.623,-2.7285,-2.8691,-3.0449,-3.2519,-3.457,-3.615,-3.7363,-3.8745,-3.937,-3.9473,-3.9997,-3.8152,-3.487,-3.2917,-3.1872,-3.1295,-3.0102,-2.954,-2.9144,-2.7607,-2.673,-2.5901,-2.368,-2.2309,0.0,0.0,0.0,0.0,0.0,0.0,0.0,0.0,0.0,0.0,0.0,0.0,0.0,0.0,0.0,0.0,0.0,0.0,0.0,-2.793,-2.8384,-2.9216,-3.1466,-3.1796,-3.1365,-3.022,-3.1088,-3.1748,-3.1748,-3.2218,-3.2094,-3.114,-3.0627,-2.9952,-2.9045,-2.955,-2.9888,-2.9888,-3.0598,-3.092,-3.0768,-3.1055,-3.141,-3.185,-3.1904,0.0,-3.2782,-3.2172,-3.1577,-3.1002,-3.0513,-2.9964,-2.9406,-2.9406,-2.9316,-2.9053,-2.7193,-2.612,-2.5623,-2.5352,-2.5502,-2.5762,0.0,0.0,0.0,0.0,0.0,0.0,0.0,-1.0175,-1.0352,-1.0787,-1.1993,-1.3126,-1.4004,-1.4883,-1.541,-1.5449,-1.3848,-1.3398,-1.4668,-1.5977,-1.8066,-2.1113,-2.2891,-2.4199,-2.5039,-2.5488,-2.5703,-2.5703,-2.5703,-2.6367,-2.7676,-2.8535,-3.0332,-3.2871,-3.459,-3.6328,-3.8047,-3.9359,-4.0106,-4.0473,-4.0857,-3.9927,-3.8157,-3.6694,-3.5386,-3.4173,-3.3276,-3.2141,-3.0871,-2.9583,-2.8464,-2.73,-2.5501,-2.4282,-2.3225,0.0,0.0,0.0,0.0,0.0,0.0,0.0,0.0,0.0,0.0,0.0,0.0,0.0,0.0,-2.5034,-2.5841,0.0,-2.7732,-2.9347,-2.9953,-3.076,-3.2375,-3.2963,-3.2903,-3.2144,-3.2583,-3.2939,-3.2939,-3.3114,-3.2852,-3.2016,-3.1718,-3.1168,-3.0129,-3.1035,-3.1274,-3.0666,-3.136,-3.1732,-3.1732,-3.1732,-3.1918,-3.2313,-3.2662,-3.2848,-3.2848,-3.2907,-3.277,-3.236,-3.2083,-3.1539,-3.0803,-3.0125,-2.9848,-2.9691,-2.8324,-2.7614,-2.7288,-2.7219,-2.7076,-2.6897,0.0,0.0,0.0,0.0,0.0,0.0,0.0,-1.0202,-1.0452,-1.1146,-1.1857,-1.2562,-1.3278,-1.334,-1.3086,-1.2441,-1.127,-1.1621,-1.4199,-1.5977,-1.8496,-2.1973,-2.375,-2.498,-2.5684,-2.5703,-2.5703,-2.5703,-2.5879,-2.6836,-2.8555,-2.873,-3.0547,-3.3691,-3.4746,-3.6465,-3.8672,-3.9883,-4.0781,-4.1426,-4.1328,-4.1174,-4.0924,-3.987,-3.8497,-3.6978,-3.5526,-3.3487,-3.1314,-3.0448,-2.9044,-2.7522,-2.6651,-2.5831,-2.4815,-2.2874,-2.1733,0.0,0.0,0.0,0.0,0.0,0.0,0.0,0.0,-2.2347,-2.3052,-2.4171,-2.5419,-2.6631,-2.7603,-2.8833,-3.0002,-3.098,-3.1549,-3.2155,-3.2963,-3.3495,-3.3807,-3.3807,-3.3807,-3.3807,-3.3807,-3.3522,-3.3136,-3.2681,-3.2648,-3.2352,-3.173,-3.2524,-3.2624,-3.1827,-3.2269,-3.2493,-3.2493,-3.2493,-3.2577,-3.2713,-3.3322,-3.3372,-3.2949,-3.3558,-3.3761,-3.3609,-3.3457,-3.2983,-3.2239,-3.1149,-3.0593,-3.0427,-2.9814,-2.9582,-2.9549,-2.9268,-2.867,-2.8112,0.0,0.0,0.0,0.0,0.0,0.0,0.0,0.0,-1.0214,-1.0252,-1.0391,-1.0531,-1.0627,-1.064,-1.0625,-1.0586,-1.1113,-1.2539,-1.5098,-1.6894,-1.9375,-2.2812,-2.4629,-2.5605,-2.5703,-2.5703,-2.5703,-2.5703,-2.6484,-2.7754,-2.9473,-3.0254,-3.2012,-3.4629,-3.6269,-3.7598,-3.875,-4.1113,-4.2187,-4.2266,-4.2246,-4.1815,-4.1062,-4.0052,-3.8999,-3.7642,-3.4501,-3.2153,-3.041,-2.9544,-2.864,-2.7684,-2.6644,-2.6282,-2.5704,-2.3063,-2.1727,-2.1072,-2.0977,-2.1487,-2.1984,-2.1801,-2.2449,-2.363,0.0,-2.6027,-2.6704,-2.8925,-2.9549,-3.0136,-3.1659,-3.21,-3.268,-3.4202,-3.3954,-3.3807,-3.4605,-3.4192,-3.3807,-3.3807,-3.3807,-3.3807,-3.3807,-3.3762,-3.355,-3.3136,-3.3105,-3.3208,-3.3422,-3.3155,-3.328,-3.3848,-3.3492,-3.3288,-3.3288,-3.3288,-3.3609,-3.4252,-3.4336,-3.4675,-3.525,-3.5334,-3.5013,-3.4336,-3.3694,-3.2983,-3.2273,-3.2148,-3.1685,-3.1095,-3.101,-3.0977,-3.0825,-2.9509,-2.8955,-2.8772,0.0,0.0,0.0,0.0,0.0,0.0,0.0,0.0,0.0,-1.0113,-1.0156,-1.019,-1.019,-1.0198,-1.0211,-1.0246,-1.0617,-1.2148,-1.5195,-1.7031,-1.9531,-2.2949,-2.4766,-2.5703,-2.5703,-2.5703,-2.5703,-2.5703,-2.6562,-2.7637,-2.8867,-3.0254,-3.1992,-3.4023,-3.5762,-3.7031,-3.7988,-4.0059,-4.0644,-4.0234,-4.0742,-4.0137,-3.8769,-3.7346,-3.5563,-3.3699,-3.2748,-3.0951,0.0,-2.7418,-2.7381,-2.7736,-2.6787,-2.6477,-2.6094,-2.396,-2.2745,-2.2095,-2.2095,-2.2623,-2.3296,-2.3814,-2.5389,-2.7103,-2.8109,-2.8889,-2.9806,-3.1292,-3.1971,-3.2651,-3.3807,-3.4412,-3.4981,-3.5661,-3.5055,-3.4633,-3.4935,-3.3917,-3.3109,-3.3109,-3.2687,-3.2761,-3.3715,-3.3807,-3.3634,-3.3243,-3.3437,-3.3599,-3.3683,-3.3864,-3.403,-3.4185,-3.4089,-3.4032,-3.4032,-3.4032,-3.4184,-3.4506,-3.4945,-3.5081,-3.4979,-3.5419,-3.5453,-3.5115,-3.4353,-3.3863,-3.3541,-3.3119,-3.251,-3.1833,-3.1833,-3.1562,-3.1123,-3.0497,-3.0006,-2.9651,0.0,0.0,0.0,0.0,0.0,0.0,0.0,0.0,0.0,0.0,-1.0156,-1.0175,-1.0194,-1.0209,-1.0206,-1.0209,-1.0254,-1.1557,-1.4492,-1.6543,-1.9062,-2.2266,-2.4297,-2.5449,-2.5684,-2.5703,-2.5703,-2.5703,-2.6562,-2.7578,-2.8691,-3.0195,-3.1797,-3.3476,-3.5215,-3.6348,-3.7051,-3.8809,-3.918,-3.8613,-3.8769,-3.793,-3.6348,-3.4121,-3.1641,-2.9391,-2.997,-2.8625,-2.637,-2.4887,-2.535,-2.6439,-2.5803,-2.5754,-2.563,-2.4197,-2.3312,-2.2793,-2.2793,-2.3669,-2.4831,-2.599,-2.8283,-3.0415,-3.0922,-3.1821,-3.2828,-3.3854,-3.4475,-3.5009,-3.568,-3.625,-3.657,-3.6445,-3.5625,-3.499,-3.499,-3.3597,-3.2614,-3.2614,-3.188,-3.1843,-3.3018,-3.3348,-3.3442,-3.3372,-3.3652,-3.3988,-3.4386,-3.4604,-3.4796,-3.5025,-3.4873,-3.4793,-3.4793,-3.4793,-3.4793,-3.481,-3.5351,-3.5334,-3.481,-3.5368,-3.5622,-3.5588,-3.5047,-3.4692,-3.4455,-3.3931,-3.3271,-3.2594,-3.2594,-3.2273,-3.1782,-3.1562,-3.1038,-3.0446,0.0,0.0,0.0,0.0,0.0,0.0,0.0,0.0,0.0,0.0,0.0,0.0,0.0,-1.0209,-1.0192,-1.0197,-1.0254,-1.1022,-1.2773,-1.5293,-1.793,-2.0566,-2.3086,-2.4844,-2.5684,-2.5703,-2.5703,-2.5703,-2.6562,-2.7871,-2.957,-3.0488,-3.1797,-3.3476,-3.5215,-3.6016,-3.6152,-3.7891,-3.8613,-3.8457,-3.6797,-3.5586,-3.4414,-3.1035,-2.8125,-2.5859,-2.58,-2.4602,-2.294,-2.2089,-2.2411,-2.3141,-2.3112,-2.3602,-2.4005,-2.3189,-2.288,-2.2793,-2.2793,-2.462,-2.6877,-2.8339,-3.0615,-3.288,-3.4321,-3.5018,-3.5826,-3.7403,-3.7563,-3.7466,-3.7764,-3.7618,-3.7282,-3.6779,-3.5752,-3.499,-3.499,-3.3597,-3.2614,-3.2614,-3.188,-3.1403,-3.1458,-3.2173,-3.2963,-3.3707,-3.3788,-3.4523,-3.6127,-3.5265,-3.5419,-3.7066,-3.613,-3.5588,-3.5588,-3.5588,-3.5588,-3.5588,-3.5605,-3.5605,-3.5588,-3.5605,-3.5622,-3.5622,-3.5588,-3.5165,-3.4489,-3.4472,-3.4032,-3.3372,-3.3372,-3.3355,-3.3254,-3.251,-3.1782,-3.1116,0.0,0.0,0.0,0.0,0.0,0.0,0.0,0.0,0.0,0.0,0.0,0.0,0.0,0.0,0.0,0.0,-1.0213,-1.0957,-1.2699,-1.4705,-1.6758,-1.8789,-2.1367,-2.3125,-2.3965,-2.4531,-2.5117,-2.5703,-2.6562,-2.7305,-2.791,-2.9355,-3.0332,-3.0937,-3.2109,-3.2949,-3.3555,-3.4668,-3.5156,-3.5059,-3.3926,-3.2617,-3.0937,-2.7461,-2.4902,-2.3027,0.0,-2.1401,-2.1245,-2.0336,-2.1003,-2.2191,-2.215,-2.2301,-2.2559,-2.2821,-2.3659,-2.4774,-2.587,-2.8044,-3.0379,-3.1975,-3.4129,-3.6288,-3.7947,-3.8275,-3.8319,-3.87,-3.737,-3.5977,-3.5309,-3.433,-3.3778,-3.4184,-3.3883,-3.3808,-3.4388,-3.3405,-3.2412,-3.1861,-3.1091,-3.0595,-3.0595,-3.1329,-3.2137,-3.2944,-3.2999,-3.3972,-3.6174,-3.5612,-3.5828,-3.7175,-3.6481,-3.5985,-3.5622,-3.5622,-3.5622,-3.5622,-3.5622,-3.5622,-3.5639,-3.6146,-3.6096,-3.5639,-3.6163,-3.5943,-3.5233,-3.5233,-3.481,-3.4134,-3.4134,-3.3829,-3.3363,-3.2929,-3.2599,-3.2294,0.0,0.0,0.0,0.0,0.0,0.0,0.0,0.0,0.0,0.0,0.0,0.0,0.0,0.0,0.0,0.0,0.0,-1.0675,-1.181,-1.3508,-1.5117,-1.654,-1.8801,-2.0423,-2.1228,-2.1794,-2.2341,-2.2908,-2.3496,-2.3945,-2.4277,-2.5703,-2.6543,-2.6914,-2.8398,-2.9355,-2.9922,-3.0762,-3.0937,-3.0586,-2.9746,-2.8379,-2.6562,-2.4004,-2.2187,0.0,-1.9707,-1.9668,-2.0039,-1.9434,-2.0188,-2.1413,-2.1689,-2.2171,-2.2726,-2.3222,-2.4774,-2.6685,-2.8341,-3.0891,-3.3545,-3.5526,-3.7536,-3.9332,-4.0442,-4.0232,-3.9467,-3.8376,-3.6546,-3.4689,-3.3152,-3.2057,-3.1507,-3.1856,-3.1747,-3.2001,-3.3138,-3.2404,-3.177,-3.1825,-3.1109,-3.0632,-3.0632,-3.1091,-3.1733,-3.254,-3.312,-3.4302,-3.6193,-3.6077,-3.6323,-3.7175,-3.6684,-3.6139,-3.5622,-3.5622,-3.5622,-3.5622,-3.5622,-3.5622,-3.5639,-3.6146,-3.6096,-3.5639,-3.6146,-3.6079,-3.5622,-3.5622,-3.5334,-3.4895,-3.4895,-3.472,-3.437,-3.3645,-3.3626,-3.3741,0.0,0.0,0.0,0.0,0.0,0.0,0.0,0.0,0.0,0.0,0.0,0.0,0.0,0.0,0.0,0.0,0.0,0.0,-1.0194,-1.1794,-1.3101,-1.3937,-1.5634,-1.6944,-1.7747,-1.7827,-1.7866,-1.7905,-1.7964,-1.8418,-1.9258,-2.0078,-2.0918,-2.1816,-2.4238,-2.5352,-2.5488,-2.6328,-2.623,-2.5488,-2.457,-2.3242,-2.1738,-2.0762,-1.9902,-1.9238,-1.918,-1.9219,-1.9316,-1.9355,-1.994,-2.0819,-2.1679,-2.3066,-2.4369,-2.4436,-2.6265,-2.861,-3.0213,-3.3147,-3.6353,-3.8757,-4.0585,-4.1797,-4.1797,-4.0821,-3.9204,-3.6765,-3.5153,-3.3542,-3.1377,-3.0729,-3.0375,-2.9943,-2.9568,-2.9893,-3.1504,-3.0983,-3.1023,-3.2504,-3.2027,-3.1568,-3.1513,-3.1549,-3.1898,-3.2687,-3.4092,-3.5367,-3.6303,-3.6585,-3.6877,-3.7193,-3.6724,-3.6182,-3.5622,-3.5622,-3.5622,-3.5622,-3.5622,-3.5622,-3.5622,-3.5656,-3.5656,-3.5622,-3.5656,-3.5656,-3.5622,-3.5622,-3.5622,-3.5622,-3.5571,-3.5907,-3.6184,-3.4666,-3.4711,-3.5281,0.0,0.0,0.0,0.0,0.0,0.0,0.0,0.0,0.0,0.0,0.0,0.0,0.0,0.0,0.0,0.0,0.0,0.0,-1.0194,-1.1228,-1.1932,-1.2154,-1.3827,-1.5156,-1.6016,-1.6665,-1.729,-1.79,-1.7972,-1.8104,-1.834,-1.8555,-1.8789,-1.9023,-1.9668,-2.0684,-2.1914,-2.2148,-2.2812,-2.3633,-2.2168,-2.1309,-2.0684,-1.8516,-1.7969,-1.8242,-1.7598,-1.8206,-1.9405,-2.0055,-2.0805,-2.1642,-2.2459,-2.3859,-2.5551,-2.7403,-2.9728,-3.2083,-3.3749,-3.6661,-3.9373,-4.0027,-4.1008,-4.1797,-4.1797,-3.9596,-3.7175,-3.5694,-3.2654,-2.9836,-2.8461,-2.7256,-2.6863,-2.803,-2.9114,-3.0332,-3.1786,-3.3239,-3.4006,-3.354,-3.3844,-3.3862,-3.3238,-3.3733,-3.4165,-3.4367,-3.4211,-3.5018,-3.7074,-3.7259,-3.7268,-3.7193,-3.7076,-3.6563,-3.5622,-3.5622,-3.5622,-3.5622,-3.5622,-3.5622,-3.5639,-3.6214,-3.6163,-3.5656,-3.6231,-3.6146,-3.5622,-3.5622,-3.5622,-3.5554,-3.5394,-3.5749,-3.6238,-3.4783,-3.4766,-3.5313,0.0,0.0,0.0,0.0,0.0,0.0,0.0,0.0,0.0,0.0,0.0,0.0,0.0,0.0,0.0,0.0,0.0,0.0,0.0,-1.0668,-1.091,-1.0898,-1.1844,-1.2607,-1.3059,-1.3574,-1.3888,-1.3946,-1.4361,-1.44,-1.4061,-1.4822,-1.5195,-1.5215,-1.5957,-1.6836,-1.7773,-1.8164,-1.8633,0.0,0.0,-1.8086,-1.7676,-1.6973,-1.6992,-1.7422,-1.7305,-1.8376,-2.0018,-2.125,-2.2441,-2.364,-2.4821,-2.663,-2.8724,-3.0823,-3.324,-3.5518,-3.682,-3.9354,-4.1643,-4.1643,-4.172,-4.1508,-4.0392,-3.8084,-3.5479,-3.2986,-3.0291,-2.7988,-2.6618,-2.569,-2.5447,-2.6424,-2.7513,-2.889,-3.0753,-3.2247,-3.3469,-3.4238,-3.4715,-3.4981,-3.4908,-3.5312,-3.5734,-3.6083,-3.5679,-3.6028,-3.7434,-3.7826,-3.7877,-3.7524,-3.7323,-3.6666,-3.5622,-3.5622,-3.5622,-3.5622,-3.5622,-3.5622,-3.5639,-3.6079,-3.6028,-3.5639,-3.6079,-3.6028,-3.5622,-3.5622,-3.5622,-3.5616,-3.57,-3.6157,-3.6597,-3.5323,-3.5263,-3.5684,0.0,0.0,0.0,0.0,0.0,0.0,0.0,0.0,0.0,0.0,0.0,0.0,0.0,0.0,0.0,0.0,0.0,0.0,0.0,0.0,-1.0175,-1.0113,-1.0175,-1.0175,-1.0113,-1.0175,-0.9817,-0.9061,-0.9833,-0.9836,-0.9187,-1.0729,-1.1426,-1.1504,-1.3066,-1.3828,-1.4004,-1.4863,-1.4863,-1.4336,-1.5098,-1.4941,-1.4434,0.0,-1.6523,-1.6656,-1.7631,-1.8848,-2.0289,-2.2297,-2.4263,-2.6113,-2.7783,-3.0113,-3.2555,-3.429,-3.6362,-3.8281,-3.9204,-4.1162,-4.2893,-4.2777,-4.2027,-4.0662,-3.8219,-3.6103,-3.3564,-2.9717,-2.8198,-2.7082,-2.5572,-2.5303,-2.5341,-2.5437,-2.5876,-2.7038,-2.9438,-3.0219,-3.1728,-3.4816,-3.5155,-3.5514,-3.6376,-3.645,-3.6743,-3.747,-3.7588,-3.7643,-3.7643,-3.8322,-3.8433,-3.7825,-3.7268,-3.6563,-3.5622,-3.5622,-3.5622,-3.5622,-3.5622,-3.5622,-3.5622,-3.5622,-3.5622,-3.5622,-3.5622,-3.5622,-3.5622,-3.5622,-3.5667,-3.5722,-3.6187,-3.6646,-3.6985,-3.5864,-3.5721,-3.6009,0.0,0.0,0.0,0.0,0.0,0.0,0.0,0.0,0.0,0.0,-1.0251,-1.0253,0.0,0.0,0.0,0.0,0.0,0.0,0.0,0.0,0.0,-1.0175,-1.0194,-1.0194,-1.0175,-1.0194,-1.0094,-0.9894,-1.0092,-1.012,-1.0003,-1.0366,-1.0527,-1.0566,-1.1582,-1.2422,-1.3164,-1.3984,-1.4648,-1.5195,-1.5332,-1.5312,-1.5215,-1.5508,0.0,0.0,-1.7375,-1.76,-1.7768,-2.1624,-2.4945,-2.7773,-2.9459,-3.1731,-3.4282,-3.6666,-3.7666,-3.8358,-3.9873,-4.1143,-4.1854,-4.1123,-3.9796,-3.818,-3.6353,-3.2968,-2.9813,-2.839,-2.6851,-2.5649,-2.536,-2.5303,-2.5534,-2.6255,-2.6917,-2.8108,-3.0358,-3.1734,-3.3395,-3.5781,-3.6064,-3.6395,-3.7202,-3.7276,-3.7331,-3.7477,-3.812,-3.8487,-3.8487,-3.8615,-3.8285,-3.736,-3.6399,-3.5766,-3.5622,-3.5622,-3.5622,-3.5622,-3.5622,-3.5622,-3.5622,-3.5622,-3.5622,-3.5622,-3.5622,-3.5622,-3.5622,-3.5622,-3.5854,-3.6222,-3.6068,-3.6291,-3.6638,-3.5526,-3.5135,-3.5128,0.0,0.0,0.0,0.0,0.0,0.0,0.0,-1.0196,-1.0202,-1.0202,-1.0232,-1.025,-1.0195,-1.0195,-1.0214,0.0,0.0,0.0,0.0,0.0,0.0,0.0,0.0,0.0,-1.0205,-1.0201,-0.9975,-0.9517,0.0,-1.0023,-0.9581,-1.0077,-1.0293,-1.0332,-1.1211,-1.1836,-1.2305,-1.3574,-1.4336,-1.4766,-1.5215,-1.5391,-1.539,0.0,0.0,0.0,-1.6779,-1.7195,-1.7694,-2.1075,-2.4457,-2.7665,-3.0263,-3.2833,-3.5372,-3.793,-3.8969,-3.9585,-4.0835,-4.1489,-4.1585,-4.0719,-3.8584,-3.6142,-3.4007,-3.0891,-2.8102,-2.6813,-2.589,-2.5303,-2.5303,-2.5214,-2.5308,-2.5841,-2.6314,-2.732,-2.9324,-3.0716,-3.2385,-3.4734,-3.5367,-3.5954,-3.678,-3.6872,-3.6872,-3.6872,-3.7221,-3.7826,-3.867,-3.8707,-3.835,-3.7578,-3.6825,-3.6291,-3.6028,-3.5739,-3.5622,-3.5622,-3.5622,-3.5622,-3.5622,-3.5622,-3.5622,-3.5622,-3.5622,-3.5622,-3.5622,-3.5898,-3.6182,-3.6422,-3.6805,-3.711,-3.7187,-3.6072,-3.5679,-3.5569,0.0,0.0,0.0,0.0,0.0,0.0,0.0,-1.0159,-1.0163,-1.0171,-1.0175,-1.0186,-1.0178,-1.0191,-1.0213,0.0,0.0,0.0,0.0,0.0,0.0,0.0,0.0,0.0,-1.019,0.0,0.0,-0.925,-0.9938,0.0,0.0,0.0,0.0,0.0,-1.1187,-1.1578,-1.1678,-1.3182,-1.3827,0.0,0.0,-1.5115,-1.5111,0.0,0.0,0.0,0.0,-1.6856,-1.7656,-2.0392,-2.3072,-2.5851,-2.9256,-3.2449,-3.5353,-3.7334,-3.8642,-3.9662,-4.07,-4.0989,-4.0777,-3.9892,-3.7161,-3.4064,-3.1679,-2.9179,-2.6948,-2.5572,-2.5303,-2.5303,-2.5234,-2.5099,-2.5034,-2.5171,-2.5333,-2.6058,-2.7826,-2.9005,-3.065,-3.3238,-3.4119,-3.4963,-3.6174,-3.6303,-3.6303,-3.6303,-3.645,-3.711,-3.8377,-3.8486,-3.835,-3.7893,-3.7323,-3.6843,-3.6416,-3.5854,-3.5622,-3.5622,-3.5694,-3.5694,-3.5622,-3.5739,-3.5694,-3.5622,-3.5622,-3.5667,-3.581,-3.6224,-3.6539,-3.6786,-3.7596,-3.7871,-3.7697,-3.6662,-3.6174,-3.5899,0.0,0.0,0.0,0.0,0.0,0.0,0.0,-1.0025,-1.0044,-1.0109,-1.0113,-1.0116,-1.0106,-1.0163,-1.0201,0.0,0.0,0.0,0.0,0.0,0.0,0.0,0.0,0.0,0.0,0.0,0.0,-1.0096,-1.0175,0.0,0.0,0.0,0.0,0.0,0.0,-1.1505,-1.1573,-1.2512,0.0,0.0,0.0,0.0,0.0,0.0,0.0,0.0,0.0,-1.6055,-1.5958,-1.9285,-2.0611,-2.1466,-2.4822,-2.9217,-3.3179,-3.341,-3.4661,-3.6315,-3.7911,-3.8354,-3.8142,-3.7276,-3.4526,-3.1564,-2.9756,-2.7371,-2.5495,-2.5322,-2.5303,-2.5234,-2.5057,-2.5022,-2.4962,-2.4855,-2.4711,-2.5184,-2.6823,-2.7608,-2.9182,-3.2357,-3.2797,-3.3752,-3.6064,-3.6303,-3.6303,-3.6303,-3.6964,-3.7441,-3.7588,-3.7816,-3.7946,-3.7893,-3.6981,-3.6457,-3.6374,-3.5854,-3.5622,-3.5622,-3.6097,-3.6054,-3.5622,-3.6097,-3.6054,-3.5622,-3.5622,-3.5854,-3.6333,-3.6374,-3.6943,-3.779,-3.7859,-3.7729,-3.7448,-3.6615,-3.5807,-3.499,0.0,0.0,0.0,0.0,0.0,0.0,-0.9806,-0.9819,-0.9867,-0.9976,-0.9981,-0.999,-0.999,-0.9992,-1.0048,-1.0128,0.0,0.0,0.0,0.0,0.0,0.0,0.0,0.0,0.0,0.0,-1.0197,-1.0198,-1.0198,0.0,0.0,0.0,0.0,0.0,0.0,-1.1501,-1.1551,-1.2436,0.0,0.0,0.0,0.0,0.0,0.0,0.0,0.0,0.0,0.0,-1.5561,-1.7946,-1.9081,-1.9831,-2.1696,-2.4389,-2.7428,-3.0506,-3.2602,-3.4314,-3.6026,-3.7238,-3.7546,-3.5661,-3.3045,-3.0467,-2.8775,-2.6409,-2.4716,-2.5187,-2.5203,-2.5099,-2.5022,-2.4831,-2.4708,-2.479,-2.4528,-2.4764,-2.5987,-2.6703,-2.8099,-3.0834,-3.1586,-3.2651,-3.4614,-3.4798,-3.5,-3.5495,-3.6303,-3.6982,-3.7489,-3.8058,-3.8382,-3.8382,-3.7685,-3.7305,-3.7305,-3.6825,-3.6545,-3.6563,-3.6457,-3.6308,-3.6097,-3.5985,-3.5827,-3.5622,-3.5941,-3.6224,-3.6457,-3.7041,-3.7524,-3.7946,-3.8267,-3.8314,-3.8065,-3.678,-3.6083,-3.5587,0.0,0.0,0.0,0.0,0.0,-0.9482,-0.9599,-0.9636,-0.9703,-0.9825,-0.9881,-0.9887,-0.9882,-0.9857,-0.9886,-0.9992,-1.0073,0.0,0.0,0.0,0.0,0.0,0.0,0.0,0.0,0.0,-1.0183,-1.0194,-1.0175,-1.0175,0.0,0.0,-1.0421,-1.0205,0.0,0.0,0.0,0.0,0.0,0.0,0.0,0.0,0.0,0.0,0.0,0.0,0.0,0.0,0.0,0.0,0.0,-1.878,-1.9638,-2.0908,-2.2851,-2.6948,-2.9525,-3.141,-3.3141,-3.4661,-3.5315,-3.3526,-3.116,-2.8967,-2.7775,-2.5746,-2.4312,-2.507,-2.5099,-2.4974,-2.4872,-2.4648,-2.4528,-2.4607,-2.4393,-2.4449,-2.5153,-2.5814,-2.6961,-2.8906,-2.9843,-3.1146,-3.3238,-3.388,-3.4614,-3.5679,-3.6083,-3.6762,-3.779,-3.8395,-3.8707,-3.8707,-3.8183,-3.7893,-3.7893,-3.7433,-3.7114,-3.696,-3.6724,-3.6457,-3.6139,-3.5941,-3.5739,-3.5622,-3.6182,-3.6498,-3.6684,-3.756,-3.798,-3.8183,-3.8546,-3.8707,-3.8505,-3.689,-3.6303,-3.6064,0.0,0.0,0.0,0.0,0.0,0.0,-0.9384,-0.951,-0.9629,-0.9703,-0.9825,-0.9882,-0.9805,-0.9735,-0.9735,-0.9798,-0.9869,0.0,0.0,0.0,0.0,0.0,0.0,0.0,0.0,0.0,-1.0137,-1.0194,-1.0133,-1.0094,-1.0113,-1.097,-1.0936,-1.0133,0.0,0.0,0.0,0.0,0.0,0.0,0.0,0.0,0.0,0.0,0.0,0.0,0.0,0.0,0.0,0.0,0.0,0.0,0.0,-1.9619,-2.0658,-2.237,-2.4678,-2.7024,-2.8698,-2.9813,-3.0456,-3.0436,-2.8525,-2.664,-2.6621,-2.5313,-2.4265,-2.4893,-2.501,-2.4911,-2.4575,-2.4512,-2.4445,-2.4247,-2.419,-2.419,-2.4208,-2.4925,-2.5713,-2.6539,-2.7346,-2.9108,-3.2302,-3.4037,-3.5697,-3.7331,-3.6725,-3.7,-3.8597,-3.8707,-3.8707,-3.8707,-3.8183,-3.7893,-3.7893,-3.7433,-3.6921,-3.6416,-3.696,-3.6643,-3.5622,-3.6139,-3.6097,-3.5622,-3.6182,-3.6684,-3.721,-3.7685,-3.8216,-3.8707,-3.8707,-3.8707,-3.8505,-3.689,-3.6303,-3.6064,0.0,0.0,0.0,0.0,0.0,0.0,0.0,-0.8947,-0.8967,-0.9064,-0.9113,-0.9178,-0.9242,-0.9233,-0.9287,-0.9447,-0.9651,0.0,0.0,0.0,0.0,0.0,0.0,0.0,0.0,0.0,-0.9965,-0.9984,-0.9965,-0.9965,-0.9984,-1.0808,-1.0751,-1.0003,-1.0827,-1.0732,0.0,0.0,0.0,0.0,0.0,0.0,-1.2866,0.0,0.0,0.0,0.0,0.0,0.0,0.0,0.0,0.0,0.0,0.0,0.0,-2.0718,-2.2796,-2.5111,-2.6094,-2.7393,-2.8192,-2.6956,-2.5657,-2.4648,-2.4505,-2.3721,-2.3362,-2.4612,-2.4752,-2.4636,-2.4528,-2.4393,-2.4266,-2.4209,-2.419,-2.419,-2.419,-2.441,-2.5291,-2.7181,-2.909,-3.087,-3.2467,-3.3073,-3.4045,-3.5679,-3.6101,-3.6607,-3.7297,-3.8204,-3.8707,-3.8707,-3.8546,-3.8465,-3.8465,-3.8318,-3.7964,-3.7415,-3.7285,-3.6825,-3.6139,-3.5941,-3.5985,-3.6182,-3.6724,-3.721,-3.772,-3.8234,-3.8546,-3.8707,-3.8707,-3.8707,-3.8505,-3.689,-3.6303,-3.6064,0.0,0.0,0.0,0.0,0.0,0.0,0.0,-0.8611,-0.8622,-0.8711,-0.8768,-0.8835,-0.8915,-0.8925,-0.9005,-0.9163,-0.9296,0.0,0.0,0.0,0.0,0.0,0.0,0.0,-0.9893,-0.9893,-0.9881,-0.9832,-0.9832,-0.9794,-0.9762,-1.0597,-1.0574,-0.9869,-1.0695,-1.0621,0.0,0.0,0.0,0.0,0.0,0.0,-1.2344,0.0,0.0,0.0,0.0,0.0,0.0,0.0,0.0,0.0,0.0,0.0,0.0,0.0,-2.0909,-2.264,-2.3385,-2.4574,-2.533,-2.42,-2.3347,-2.2833,-2.3012,-2.2729,-2.2767,-2.3978,-2.4369,-2.4478,-2.441,-2.4284,-2.419,-2.419,-2.419,-2.419,-2.419,-2.4447,-2.5309,-2.7126,-2.9219,-3.0815,-3.1623,-3.2247,-3.3275,-3.4862,-3.5807,-3.6419,-3.6702,-3.7526,-3.8041,-3.8117,-3.8318,-3.8318,-3.8135,-3.8135,-3.7861,-3.7342,-3.702,-3.6603,-3.6097,-3.5739,-3.5898,-3.6416,-3.696,-3.747,0.0,-3.8465,-3.8578,-3.8364,-3.8086,-3.7977,-3.7744,-3.617,-3.5692,-3.5624,0.0,0.0,0.0,0.0,0.0,0.0,0.0,-0.846,-0.8526,-0.8555,-0.8641,-0.8717,-0.8717,-0.8717,-0.8784,-0.8936,0.0,0.0,0.0,0.0,0.0,0.0,0.0,0.0,-0.9857,-0.9863,-0.9807,-0.9664,-0.9664,-0.9603,-0.9513,-1.0376,-1.0379,-0.9701,-1.058,-1.0548,0.0,0.0,0.0,0.0,0.0,0.0,0.0,0.0,0.0,0.0,0.0,0.0,0.0,0.0,0.0,0.0,0.0,0.0,0.0,0.0,0.0,0.0,0.0,-2.1538,-2.2098,-2.2086,-2.1538,-2.1199,-2.1991,-2.223,0.0,-2.3148,-2.3919,-2.4409,-2.4228,-2.417,-2.417,-2.417,-2.417,-2.417,-2.417,-2.4904,-2.5711,-2.6429,-2.7967,-2.9263,-3.0118,-3.1604,-3.3183,-3.4789,-3.5734,-3.6279,-3.6456,-3.663,-3.6787,-3.692,-3.7399,-3.7506,-3.721,-3.719,-3.6921,-3.6374,-3.6364,-3.6088,-3.5622,-3.5504,-3.5761,-3.6411,-3.6858,-3.7327,-3.7907,-3.8373,-3.8259,-3.7749,-3.7027,-3.6702,-3.6435,-3.4952,-3.4636,-3.4862,0.0,0.0,0.0,0.0,0.0,0.0,0.0,0.0,0.0,0.0,-0.7968,-0.7923,-0.8019,-0.8032,-0.8113,0.0,0.0,0.0,0.0,0.0,0.0,0.0,0.0,0.0,-0.9429,-0.9429,-0.942,-0.9394,-0.9394,-0.9376,-0.9368,-1.0183,-1.0139,-0.943,-1.0239,-1.0186,0.0,0.0,0.0,0.0,0.0,0.0,0.0,0.0,0.0,0.0,-1.4697,-1.4677,0.0,0.0,0.0,0.0,0.0,0.0,0.0,0.0,-1.9401,-1.9456,-1.9674,0.0,-2.0196,-2.0051,-1.9978,-2.0121,0.0,-2.1525,-2.2263,-2.2937,-2.3713,-2.4266,-2.4209,-2.3996,-2.3816,-2.3816,-2.3816,-2.3816,-2.3816,-2.5009,-2.58,-2.5693,-2.7359,-2.8966,-3.0094,-3.1091,-3.2357,-3.3972,-3.4853,-3.503,-3.4371,-3.5313,-3.5402,-3.4339,-3.4783,-3.5764,-3.7173,-3.719,-3.6921,-3.6374,-3.5827,-3.5572,-3.5588,-3.4438,-3.4672,-3.5993,-3.5542,-3.6213,-3.7564,-3.7275,-3.7127,-3.6991,-3.6434,-3.6055,-3.5742,-3.4767,-3.4636,-3.4862,0.0,0.0,0.0,0.0,0.0,0.0,0.0,0.0,0.0,0.0,0.0,-0.744,-0.7517,-0.7606,0.0,0.0,0.0,0.0,0.0,0.0,0.0,0.0,0.0,-0.9094,-0.9154,-0.9094,-0.9033,-0.8988,-0.8988,-0.8988,-0.9033,-0.9468,-0.9498,-0.9226,-0.9736,-0.9702,0.0,0.0,0.0,0.0,-1.0329,0.0,0.0,0.0,0.0,0.0,-1.4308,-1.4283,0.0,-1.4501,-1.4811,-1.5212,0.0,0.0,0.0,0.0,-1.8808,-1.9305,-1.9305,-1.938,-1.9442,-1.932,-1.938,-1.9553,-1.9856,-2.0968,-2.2013,-2.2372,-2.3382,-2.4151,-2.3996,-2.3816,-2.3649,-2.35,-2.3588,-2.3819,-2.4198,-2.4974,-2.5641,-2.6013,-2.7302,-2.8784,-3.0381,-3.103,-3.1962,-3.3431,-3.4057,-3.41,-3.3353,-3.404,-3.4123,-3.3431,-3.3362,-3.4002,-3.5422,-3.5439,-3.5296,-3.5025,-3.4614,-3.4482,-3.4573,-3.3997,-3.4337,-3.5403,-3.5206,-3.5882,-3.708,-3.6439,-3.6161,-3.6006,-3.5027,-3.457,-3.432,-3.3755,-3.3785,-3.4105,0.0,0.0,0.0,0.0,0.0,0.0,0.0,0.0,0.0,0.0,0.0,0.0,0.0,0.0,0.0,0.0,0.0,0.0,0.0,0.0,0.0,0.0,-0.866,-0.8762,-0.8904,-0.8801,-0.8693,-0.8567,-0.8567,-0.8595,-0.8657,-0.8657,-0.8766,-0.9005,-0.9139,-0.9189,0.0,-0.9208,-0.9261,-0.9407,-1.0184,0.0,0.0,0.0,0.0,0.0,0.0,0.0,0.0,-1.411,-1.4149,-1.4224,-1.4678,0.0,0.0,0.0,0.0,0.0,-1.9212,-1.9227,-1.9259,-1.9289,-1.9381,-1.9473,-1.9473,-2.0776,-2.1969,-2.1969,-2.3125,-2.4054,-2.3735,-2.3628,-2.3437,-2.3165,-2.3522,-2.4122,-2.5041,-2.5167,-2.5584,-2.6721,-2.7497,-2.8699,-3.06,-3.1171,-3.1876,-3.3021,-3.3416,-3.3388,-3.2867,-3.2867,-3.2951,-3.3051,-3.2459,-3.2425,-3.3068,-3.3288,-3.3406,-3.3406,-3.3288,-3.3288,-3.3406,-3.3585,-3.4025,-3.4641,-3.4827,-3.549,-3.6291,-3.554,-3.512,-3.4827,-3.3505,-3.2896,-3.2763,-3.2353,-3.2638,-3.3184,0.0,0.0,0.0,0.0,0.0,0.0,0.0,0.0,0.0,0.0,0.0,0.0,0.0,0.0,0.0,0.0,0.0,0.0,0.0,0.0,0.0,-0.7694,-0.8032,-0.8287,-0.8485,-0.846,-0.845,-0.8425,-0.8425,-0.8425,-0.8454,-0.8454,-0.8463,-0.8513,-0.8651,-0.8639,-0.8547,-0.8785,-0.9138,-0.9636,-1.0538,0.0,0.0,0.0,0.0,0.0,0.0,0.0,0.0,-1.3941,-1.3955,-1.4214,-1.5771,0.0,0.0,0.0,0.0,0.0,-1.8771,-1.8878,-1.9102,-1.9259,-1.9803,-2.0319,-2.0319,-2.162,-2.2832,-2.2832,-2.3338,-2.3774,-2.3714,-2.3253,-2.2848,-2.2797,-2.3633,-2.4771,-2.6155,-2.6393,-2.657,-2.7,-2.7813,-2.8827,-3.0097,-3.1231,-3.2079,-3.2563,-3.3028,-3.2891,-3.2034,-3.1998,-3.1863,-3.1529,-3.1427,-3.141,-3.1529,-3.278,-3.3406,-3.3406,-3.2763,-3.2797,-3.3372,-3.2184,-3.2421,-3.3723,-3.2792,-3.3262,-3.4673,-3.3776,-3.3415,-3.337,-3.2701,-3.2226,-3.1912,-3.1237,-3.1933,-3.3136,0.0,0.0,0.0,0.0,0.0,0.0,0.0,0.0,0.0,0.0,0.0,0.0,0.0,0.0,0.0,0.0,0.0,0.0,0.0,0.0,-0.6907,-0.716,-0.7349,-0.7606,-0.7895,-0.781,-0.7752,-0.7752,-0.7896,-0.7996,-0.8079,-0.8296,-0.8403,-0.8415,-0.8476,-0.8463,-0.8431,-0.8916,-0.9257,-0.9592,0.0,0.0,0.0,0.0,0.0,0.0,0.0,0.0,0.0,0.0,-1.4033,-1.4537,-1.5442,0.0,0.0,0.0,0.0,0.0,-1.8623,-1.8697,-1.8807,-1.8913,-1.9388,-1.9827,-1.9696,-2.0624,-2.1552,-2.1817,-2.2378,-2.2892,-2.3118,-2.2923,-2.2911,-2.3533,-2.4244,-2.5033,-2.5865,-2.5888,-2.5911,-2.6266,-2.7353,-2.8543,-2.9717,-3.0869,-3.1567,-3.1548,-3.1532,-3.1168,-3.0326,-3.0309,-3.0216,-3.0027,-3.0006,-3.0192,-3.0598,-3.1292,-3.1816,-3.2205,-3.1867,-3.1867,-3.2188,-3.1718,-3.1923,-3.2599,-3.2319,-3.2756,-3.3599,-3.2718,-3.2472,-3.2603,-3.1953,-3.138,-3.0822,-3.03,-3.0587,-3.1211,0.0,0.0,0.0,0.0,0.0,0.0,0.0,0.0,0.0,0.0,0.0,0.0,0.0,0.0,0.0,0.0,0.0,0.0,0.0,0.0,-0.6359,-0.6714,-0.6907,-0.716,-0.7426,-0.7273,-0.714,-0.7017,-0.7353,-0.7561,-0.7665,-0.798,-0.8118,-0.8118,-0.8118,-0.8224,-0.8454,-0.897,-0.939,-0.9812,0.0,0.0,0.0,0.0,0.0,0.0,0.0,0.0,0.0,0.0,0.0,0.0,0.0,0.0,0.0,-1.7486,-1.8014,-1.8489,-1.843,-1.845,-1.8508,-1.8508,-1.8968,-1.9408,-1.9435,-2.0082,-2.0797,-2.1341,-2.1852,-2.2335,-2.2642,-2.266,-2.2972,-2.4126,-2.4706,-2.5227,-2.572,-2.5642,-2.5717,-2.6209,-2.7165,-2.8235,-2.9334,-3.0272,-3.068,-3.0334,-3.0101,-2.9678,-2.9045,-2.9011,-2.9011,-2.9011,-2.9011,-2.9262,-2.9837,-2.9837,-3.0209,-3.0937,-3.0937,-3.0852,-3.0722,-3.1165,-3.1457,-3.1565,-3.2004,-3.2388,-3.2637,-3.1938,-3.1709,-3.1715,-3.1157,-3.0378,-2.9553,-2.9592,-2.9418,-2.923,0.0,0.0,0.0,0.0,0.0,0.0,0.0,0.0,0.0,0.0,0.0,0.0,0.0,0.0,0.0,0.0,0.0,0.0,0.0,0.0,-0.6206,-0.6242,-0.697,-0.7307,-0.7225,-0.7195,-0.6962,-0.645,-0.6977,-0.7241,-0.7242,-0.7273,-0.7289,-0.7289,-0.7289,-0.7737,-0.8506,-0.8549,-0.9387,-1.0702,-1.0812,0.0,0.0,0.0,0.0,0.0,0.0,0.0,0.0,0.0,0.0,0.0,0.0,0.0,-1.6376,-1.7726,-1.8177,-1.8166,-1.7927,-1.8035,-1.8229,-1.8229,-1.8997,-1.9943,-2.0593,-2.1395,-2.2176,-2.2893,-2.2825,-2.2651,-2.2678,-2.25,-2.2698,-2.384,-2.4632,-2.5474,-2.6543,-2.6965,-2.7393,-2.809,-2.7981,-2.8129,-2.8963,-2.9454,-2.9558,-2.9151,-2.9437,-2.9455,-2.9011,-2.9011,-2.9011,-2.9011,-2.9011,-2.9008,-2.9059,-2.9059,-2.9448,-3.0192,-3.0192,-2.982,-2.9161,-2.9892,-3.0407,-3.0803,-3.1141,-3.1504,-3.1875,-3.1445,-3.0857,-3.026,-3.0209,-2.9279,-2.8096,-2.9196,-2.8905,-2.8082,0.0,0.0,0.0,0.0,0.0,0.0,0.0,0.0,0.0,0.0,0.0,0.0,0.0,0.0,0.0,0.0,0.0,0.0,0.0,-0.5973,-0.607,-0.6189,-0.6761,-0.7062,-0.7019,-0.6894,-0.6558,-0.6026,-0.6355,-0.6583,-0.6713,-0.7045,-0.7195,-0.7195,-0.7195,-0.7587,-0.8282,-0.8706,-0.941,-1.0285,-1.0879,-1.1315,0.0,0.0,0.0,0.0,0.0,0.0,0.0,0.0,-1.3221,-1.4026,-1.5163,-1.5942,-1.6641,-1.7642,-1.7949,-1.7927,-1.7833,-1.7861,-1.7949,-1.7949,-1.8263,-1.8789,-1.9708,-2.0136,-2.0528,-2.1081,-2.1524,-2.19,-2.2378,-2.2734,-2.3215,-2.3873,-2.4775,-2.5657,-2.6347,-2.6713,-2.7041,-2.7299,-2.7623,-2.7943,-2.823,-2.8832,-2.8952,-2.8298,-2.8406,-2.822,-2.7622,-2.7554,-2.7554,-2.7554,-2.7554,-2.7791,-2.8247,-2.8264,-2.8399,-2.8687,-2.9178,-2.9262,-2.8991,-2.9279,-2.9491,-2.9672,-3.0251,-3.0611,-3.0728,-3.0573,-3.0362,-3.0006,-2.9059,-2.8296,-2.7791,-2.7794,-2.7504,-2.7199,0.0,0.0,0.0,0.0,0.0,0.0,0.0,0.0,0.0,0.0,0.0,0.0,0.0,0.0,0.0,0.0,0.0,0.0,-0.5641,-0.5726,-0.5826,-0.5968,-0.665,-0.6957,-0.6776,-0.6528,-0.6193,-0.5836,-0.5654,-0.5878,-0.6467,-0.6827,-0.7093,-0.7267,-0.7267,-0.7757,-0.8615,-0.9056,-0.9637,-1.0266,-1.0911,-1.1173,0.0,0.0,0.0,0.0,0.0,0.0,0.0,0.0,-1.299,-1.3809,-1.4879,-1.5671,-1.6442,-1.7501,-1.7811,-1.7811,-1.7811,-1.7811,-1.7811,-1.7811,-1.7811,-1.8042,-1.8961,-1.935,-1.9675,-2.0255,-2.1008,-2.1701,-2.2226,-2.2716,-2.3124,-2.3416,-2.4249,-2.4992,-2.5279,-2.5715,-2.5998,-2.5998,-2.6454,-2.6776,-2.6776,-2.7249,-2.7334,-2.681,-2.6776,-2.6539,-2.6015,-2.5998,-2.5998,-2.5998,-2.6218,-2.6607,-2.708,-2.7131,-2.7131,-2.7131,-2.7418,-2.7842,-2.8264,-2.8501,-2.8619,-2.8653,-2.9414,-2.9753,-2.9753,-2.9753,-2.96,-2.9262,-2.7977,-2.7469,-2.7402,-2.6894,-2.6539,-2.6353,0.0,0.0,0.0,0.0,0.0,0.0,0.0,0.0,0.0,0.0,0.0,0.0,0.0,0.0,0.0,0.0,0.0,0.0,-0.5108,-0.5349,-0.5492,-0.5492,-0.6651,-0.7036,-0.6517,-0.6101,-0.5895,-0.5888,-0.4885,-0.5154,-0.6599,-0.6599,-0.6881,-0.7406,-0.7406,-0.8226,-0.9599,-0.9599,-1.0106,-1.0897,-1.0897,-1.0897,-1.0897,0.0,0.0,0.0,0.0,0.0,0.0,0.0,-1.2372,-1.2906,-1.4648,-1.5213,-1.5536,-1.7283,-1.7811,-1.7811,-1.7811,-1.7811,-1.7811,-1.7811,-1.7811,-1.7997,-1.8724,-1.9486,-2.0204,-2.1025,-2.1786,-2.2293,-2.231,-2.231,-2.231,-2.231,-2.2919,-2.3393,-2.3393,-2.4019,-2.4506,-2.4506,-2.4506,-2.4506,-2.4506,-2.4506,-2.4506,-2.4506,-2.4506,-2.4506,-2.4506,-2.4506,-2.4506,-2.4506,-2.5203,-2.5592,-2.5592,-2.5592,-2.5592,-2.5592,-2.4831,-2.5285,-2.6691,-2.7452,-2.7772,-2.7806,-2.8636,-2.8958,-2.8958,-2.8958,-2.8501,-2.7688,-2.6979,-2.6691,-2.6691,-2.6691,-2.6234,-2.5609,0.0,0.0,0.0,0.0,0.0,0.0,0.0,0.0,0.0,0.0,0.0,0.0,0.0,0.0,0.0,0.0,0.0,0.0,-0.5088,-0.5349,-0.5425,-0.5223,-0.6325,-0.6774,-0.6444,-0.612,-0.548,-0.4495,-0.4715,-0.5316,-0.626,-0.6728,-0.7195,-0.7626,-0.7896,-0.8502,-0.9241,-0.9241,-0.9609,-1.0223,-1.0458,-1.0556,-1.0581,0.0,0.0,0.0,0.0,0.0,0.0,0.0,0.0,0.0,-1.4798,-1.5256,-1.5494,-1.7001,-1.7635,-1.7811,-1.7811,-1.7811,-1.7811,-1.7811,-1.7811,-1.7997,-1.8724,-1.9063,-1.9604,-2.095,-2.1363,-2.1684,-2.2209,-2.231,-2.231,-2.231,-2.2919,-2.3393,-2.3393,-2.4019,-2.4506,-2.4506,-2.4506,-2.4506,-2.4506,-2.4506,-2.4506,-2.4506,-2.4506,-2.4506,-2.4506,-2.4506,-2.4506,-2.4506,-2.4695,-2.4814,-2.4814,-2.4814,-2.4814,-2.4814,-2.4594,-2.4743,-2.52,-2.593,-2.6268,-2.6336,-2.7604,-2.7858,-2.7368,-2.7368,-2.6945,-2.6285,-2.6573,-2.6691,-2.664,-2.6116,-2.5795,-2.5541,0.0,0.0,0.0,0.0,0.0,0.0,0.0,0.0,0.0,0.0,0.0,0.0,0.0,0.0,0.0,0.0,0.0,0.0,0.0,-0.5062,-0.5092,-0.4796,-0.5716,-0.6232,-0.6152,-0.6498,-0.6052,-0.4816,-0.5544,-0.6128,-0.6547,-0.6966,-0.7391,-0.7841,-0.8213,-0.8608,-0.8994,-0.9305,-0.9517,-0.9738,-1.0059,-1.021,-1.021,0.0,0.0,0.0,0.0,0.0,0.0,0.0,0.0,0.0,-1.4679,-1.5142,-1.5482,-1.6751,-1.7224,-1.7432,-1.7566,-1.7595,-1.7702,-1.812,-1.8251,-1.8437,-1.9181,-1.957,-2.0145,-2.138,-2.1634,-2.1769,-2.2226,-2.231,-2.231,-2.231,-2.2682,-2.297,-2.297,-2.3342,-2.3613,-2.3613,-2.3613,-2.3613,-2.3613,-2.3613,-2.3613,-2.3613,-2.3613,-2.3613,-2.3613,-2.3613,-2.3613,-2.3613,-2.39,-2.4052,-2.4052,-2.4052,-2.4052,-2.4052,-2.3765,-2.3613,-2.3646,-2.4695,-2.5152,-2.5203,-2.6099,-2.6234,-2.5812,-2.5812,-2.5558,-2.5203,-2.5642,-2.5812,-2.5761,-2.5321,-2.4983,-2.4661,0.0,0.0,0.0,0.0,0.0,0.0,0.0,0.0,0.0,0.0,0.0,0.0,0.0,0.0,0.0,0.0,0.0,0.0,0.0,0.0,-0.4673,-0.4338,-0.4994,-0.5537,-0.5876,-0.7052,-0.7215,-0.6334,-0.6957,-0.7248,-0.7207,-0.723,-0.7462,-0.7921,-0.835,-0.8592,-0.8747,-0.948,-0.9633,-0.9422,-0.9686,-0.9816,-0.9854,-0.9904,0.0,0.0,0.0,0.0,0.0,0.0,0.0,0.0,-1.4411,-1.4966,-1.5428,-1.6453,-1.6789,-1.6866,-1.7175,-1.7321,-1.7616,-1.8605,-1.8971,-1.9283,-1.9951,-2.0737,-2.1465,-2.209,-2.226,-2.231,-2.231,-2.231,-2.231,-2.231,-2.231,-2.231,-2.231,-2.231,-2.231,-2.231,-2.231,-2.231,-2.231,-2.231,-2.231,-2.231,-2.231,-2.231,-2.231,-2.231,-2.231,-2.231,-2.2953,-2.3291,-2.3291,-2.3291,-2.3291,-2.3291,-2.2632,-2.231,-2.2361,-2.3748,-2.4455,-2.4506,-2.4438,-2.4421,-2.4421,-2.4421,-2.4421,-2.4421,-2.4489,-2.4506,-2.4506,-2.4438,-2.3968,-2.3376,0.0,0.0,0.0,0.0,0.0,0.0,0.0,0.0,0.0,0.0,0.0,0.0,0.0,0.0,0.0,0.0,0.0,0.0,0.0,0.0,-0.4901,-0.4403,-0.4845,-0.5533,-0.6484,-0.6998,-0.7291,-0.737,-0.7116,-0.7129,-0.7353,-0.7455,-0.7404,-0.7252,-0.8286,-0.8393,-0.7838,-0.8676,-0.917,-0.9369,-0.9143,-0.9224,-0.955,-0.9972,-1.0173,0.0,0.0,0.0,0.0,0.0,0.0,0.0,-1.4687,-1.4931,-1.5042,-1.6111,-1.6581,-1.6815,-1.6892,-1.7525,-1.8227,-1.8452,-1.9613,-2.0737,-2.0906,-2.1515,-2.1938,-2.1515,-2.1904,-2.231,-2.231,-2.231,-2.231,-2.231,-2.231,-2.231,-2.231,-2.231,-2.231,-2.231,-2.231,-2.231,-2.231,-2.231,-2.231,-2.231,-2.231,-2.231,-2.231,-2.231,-2.231,-2.231,-2.2462,-2.2547,-2.2547,-2.2547,-2.2547,-2.2547,-2.2395,-2.231,-2.2344,-2.3224,-2.3934,-2.4472,-2.3883,-2.363,-2.363,-2.363,-2.363,-2.368,-2.4255,-2.4506,-2.4438,-2.3849,-2.3528,-2.3308,0.0,0.0,0.0,0.0,0.0,0.0,0.0,0.0,0.0,0.0,0.0,0.0,0.0,0.0,0.0,0.0,0.0,0.0,0.0,0.0,-0.4895,-0.4598,-0.4963,-0.5537,-0.6311,-0.6823,-0.7216,-0.7412,-0.732,-0.7378,-0.754,-0.7622,-0.7528,-0.7362,-0.8197,-0.8198,-0.7639,-0.8469,-0.8816,-0.8855,-0.8816,-0.9035,-0.9429,-0.9753,-1.0084,-1.0567,-1.1516,0.0,0.0,0.0,0.0,0.0,0.0,0.0,-1.4992,-1.5548,-1.6009,-1.6355,-1.6501,-1.6966,-1.7636,-1.8661,-2.0063,-2.1305,-2.1634,-2.2023,-2.2192,-2.1803,-2.204,-2.231,-2.231,-2.231,-2.231,-2.231,-2.231,-2.231,-2.231,-2.231,-2.231,-2.231,-2.231,-2.231,-2.231,-2.231,-2.231,-2.231,-2.231,-2.231,-2.231,-2.231,-2.231,-2.231,-2.231,-2.231,-2.231,-2.231,-2.231,-2.231,-2.231,-2.231,-2.2327,-2.2699,-2.3088,-2.3427,-2.3038,-2.2868,-2.2868,-2.2868,-2.2868,-2.2919,-2.3291,-2.3444,-2.3393,-2.3021,-2.2868,-2.2789,0.0,0.0,0.0,0.0,0.0,0.0,0.0,0.0,0.0,0.0,0.0,0.0,0.0,0.0,0.0,0.0,0.0,0.0,0.0,0.0,0.0,-0.4796,-0.5108,-0.5446,-0.5812,-0.6541,-0.694,-0.699,-0.7314,-0.748,-0.748,-0.7637,-0.7618,-0.75,-0.7991,-0.7913,-0.7538,-0.828,-0.8495,-0.8319,-0.8609,-0.8979,-0.9325,-0.956,-1.0087,-1.0743,-1.1542,-1.2101,-1.2519,-1.3014,0.0,0.0,0.0,0.0,-1.4907,-1.4968,-1.5329,-1.5726,-1.6009,-1.6296,-1.6972,-1.9001,-2.0204,-2.1123,-2.1938,-2.2124,-2.2158,-2.2276,-2.231,-2.231,-2.231,-2.231,-2.231,-2.231,-2.231,-2.231,-2.231,-2.231,-2.231,-2.231,-2.231,-2.231,-2.231,-2.231,-2.231,-2.231,-2.231,-2.231,-2.231,-2.231,-2.231,-2.231,-2.231,-2.231,-2.231,-2.231,-2.231,-2.231,-2.231,-2.231,-2.231,-2.231,-2.231,-2.231,-2.231,-2.231,-2.231,-2.231,-2.231,-2.231,-2.231,-2.231,-2.231,-2.231,-2.2254,-2.2106,0.0,0.0,0.0,0.0,0.0,0.0,0.0,0.0,0.0,0.0,-0.2972,0.0,0.0,0.0,0.0,0.0,0.0,0.0,-0.5164,0.0,0.0,-0.4805,-0.4845,-0.5054,-0.5446,-0.586,-0.6244,-0.6579,-0.6639,-0.6669,-0.6669,-0.7383,-0.7287,-0.6611,-0.7411,-0.7322,-0.6631,-0.7476,-0.8033,-0.8322,-0.84,-0.8674,-0.9043,-0.9957,-1.0366,-1.0603,-1.1931,-1.2436,-1.2554,-1.3035,-1.3232,0.0,0.0,0.0,-1.4117,-1.447,-1.4876,-1.5195,-1.5255,-1.6231,-1.7609,-1.9116,-1.9601,-2.0017,-2.109,-2.1356,-2.1515,-2.2175,-2.231,-2.231,-2.231,-2.231,-2.231,-2.231,-2.231,-2.231,-2.231,-2.231,-2.231,-2.231,-2.231,-2.231,-2.231,-2.231,-2.231,-2.231,-2.231,-2.231,-2.231,-2.231,-2.231,-2.231,-2.231,-2.231,-2.231,-2.231,-2.231,-2.231,-2.231,-2.231,-2.231,-2.231,-2.231,-2.231,-2.231,-2.231,-2.231,-2.231,-2.231,-2.231,-2.231,-2.231,-2.231,-2.231,-2.2032,-2.1688,0.0,0.0,0.0,0.0,0.0,0.0,0.0,0.0,0.0,0.0,0.0,-0.3119,0.0,0.0,0.0,-0.4558,-0.4794,-0.5017,-0.5277,-0.5157,-0.5084,-0.5084,-0.5084,-0.5175,-0.535,-0.5723,-0.5975,-0.6152,-0.6397,-0.6488,-0.6518,-0.6859,-0.6937,-0.6803,-0.7425,-0.7481,-0.7141,-0.753,-0.795,-0.8349,-0.8395,-0.8762,-0.9327,-0.9782,-1.0422,-1.1144,-1.181,-1.2598,-1.3302,-1.3179,-1.3385,-1.367,-1.3548,0.0,0.0,0.0,-1.4596,-1.5165,-1.5418,-1.6137,-1.703,-1.8055,-1.8453,-1.8892,-2.0,-2.0555,-2.1011,-2.1573,-2.2023,-2.231,-2.231,-2.231,-2.231,-2.231,-2.231,-2.231,-2.231,-2.231,-2.231,-2.231,-2.231,-2.231,-2.231,-2.231,-2.231,-2.231,-2.231,-2.231,-2.231,-2.231,-2.231,-2.231,-2.231,-2.231,-2.231,-2.231,-2.231,-2.231,-2.231,-2.231,-2.231,-2.231,-2.231,-2.231,-2.231,-2.231,-2.231,-2.231,-2.231,-2.231,-2.231,-2.231,-2.2282,-2.2003,-2.1794,-2.1521,0.0,0.0,0.0,0.0,0.0,0.0,0.0,0.0,0.0,0.0,0.0,0.0,0.0,0.0,0.0,0.0,-0.4441,-0.4602,-0.496,-0.496,-0.496,-0.496,-0.5055,-0.5119,-0.5119,-0.5515,-0.5734,-0.5734,-0.6037,-0.6183,-0.6183,-0.6305,-0.6518,-0.6811,-0.7314,-0.7663,-0.7824,-0.7879,-0.8145,-0.8545,-0.8652,-0.9077,-0.9623,-0.9856,-1.0555,-1.148,-1.1752,-1.2593,-1.3512,-1.32,-1.3509,-1.4001,-1.3556,-1.3674,0.0,0.0,0.0,-1.4876,-1.5359,-1.5667,-1.6015,-1.6761,-1.7124,-1.7629,-1.8833,-1.9651,-2.0327,-2.0794,-2.1473,-2.202,-2.2106,-2.2209,-2.231,-2.231,-2.231,-2.231,-2.231,-2.231,-2.231,-2.231,-2.231,-2.231,-2.231,-2.231,-2.231,-2.231,-2.231,-2.231,-2.231,-2.231,-2.231,-2.231,-2.231,-2.231,-2.231,-2.231,-2.231,-2.231,-2.231,-2.231,-2.231,-2.231,-2.231,-2.231,-2.231,-2.231,-2.231,-2.231,-2.231,-2.2282,-2.218,-2.2106,-2.2077,-2.1598,-2.1368,-2.1165,0.0,0.0,0.0,0.0,0.0,0.0,0.0,0.0,0.0,0.0,0.0,0.0,-0.2746,-0.3101,-0.3523,-0.3993,-0.4026,-0.4026,-0.4058,-0.4058,-0.4058,-0.4058,-0.4441,0.0,-0.4634,-0.5081,-0.534,-0.534,-0.534,-0.5372,-0.5372,-0.5765,-0.5944,-0.6006,-0.6781,-0.7521,-0.8181,-0.8312,-0.8584,-0.9004,-0.9369,-0.958,-0.9687,-1.0527,-1.09,-1.1051,-1.1943,-1.232,-1.2468,-1.2855,-1.3431,-1.399,-1.3966,-1.3996,-1.4083,0.0,0.0,0.0,-1.447,-1.4596,-1.4769,-1.5521,-1.5722,-1.6131,-1.7629,-1.8487,-1.9193,-1.9897,-2.0604,-2.1181,-2.1568,-2.2003,-2.231,-2.231,-2.231,-2.231,-2.231,-2.231,-2.231,-2.231,-2.231,-2.231,-2.231,-2.231,-2.231,-2.231,-2.231,-2.231,-2.231,-2.231,-2.231,-2.231,-2.231,-2.231,-2.231,-2.231,-2.231,-2.231,-2.231,-2.231,-2.231,-2.231,-2.231,-2.231,-2.231,-2.231,-2.231,-2.231,-2.231,-2.2254,-2.1794,-2.1658,-2.1598,-2.1181,-2.0764,-2.0348,0.0,0.0,0.0,0.0,0.0,0.0,0.0,0.0,0.0,0.0,0.0,0.0,0.0,-0.2973,-0.3298,-0.4312,-0.4377,-0.428,-0.4026,-0.3993,-0.3993,-0.3993,-0.4151,-0.4215,-0.4215,-0.4634,-0.4858,-0.4858,-0.5151,-0.5309,-0.5309,-0.5435,-0.5595,-0.5802,-0.6432,-0.7146,-0.7876,-0.7936,-0.8494,-0.9408,-0.9873,-1.0215,-1.0518,-1.1103,-1.1504,-1.1777,-1.2104,-1.2685,-1.3233,-1.3061,-1.34,-1.3895,-1.3521,-1.3424,-1.3533,-1.3877,-1.3939,-1.4,-1.4406,-1.469,-1.4876,-1.4895,-1.5301,-1.5841,-1.6307,-1.7192,-1.8187,-1.9119,-1.9853,-2.0525,-2.1101,-2.1568,-2.1957,-2.2237,-2.231,-2.231,-2.231,-2.231,-2.231,-2.231,-2.231,-2.231,-2.231,-2.231,-2.231,-2.231,-2.231,-2.231,-2.231,-2.231,-2.231,-2.231,-2.231,-2.231,-2.231,-2.231,-2.231,-2.231,-2.231,-2.231,-2.231,-2.231,-2.231,-2.2282,-2.1974,-2.2032,-2.231,-2.231,-2.2106,-2.1823,-2.1658,-2.143,-2.115,-2.0715,-2.0449,-2.0246,0.0,0.0,0.0,0.0,0.0,0.0,0.0,0.0,0.0,-0.2757,0.0,0.0,0.0,0.0,-0.3233,-0.4075,-0.4307,-0.4151,-0.3597,-0.3565,-0.3565,-0.3565,-0.3695,-0.3756,-0.3756,-0.4422,-0.4722,-0.4602,-0.5145,-0.5371,-0.5309,-0.5309,-0.5438,-0.5705,-0.6079,-0.6746,-0.7594,-0.7653,-0.8468,-0.981,-1.0096,-1.0579,-1.1172,-1.1611,-1.1973,-1.22,-1.2393,-1.2892,-1.3464,-1.3073,-1.3373,-1.3784,-1.3432,-1.3368,-1.3438,-1.3616,-1.3682,-1.3788,-1.4239,-1.4395,-1.4493,-1.4555,-1.4875,-1.521,-1.5389,-1.6233,-1.7195,-1.8014,-1.8904,-1.9751,-2.0352,-2.0863,-2.1337,-2.1781,-2.184,-2.184,-2.184,-2.1974,-2.2077,-2.2077,-2.2209,-2.231,-2.231,-2.231,-2.231,-2.231,-2.231,-2.231,-2.231,-2.231,-2.231,-2.231,-2.231,-2.231,-2.231,-2.231,-2.231,-2.231,-2.231,-2.2209,-2.2077,-2.2077,-2.2003,-2.1857,-2.1538,-2.1628,-2.2032,-2.1915,-2.1675,-2.1368,-2.1228,-2.1007,-2.0731,-2.0261,-2.0089,-2.0054,0.0,0.0,0.0,0.0,0.0,0.0,0.0,0.0,-0.291,-0.2913,0.0,0.0,0.0,0.0,0.0,-0.3307,-0.3742,-0.3649,-0.276,-0.2726,-0.2726,-0.2726,-0.3084,-0.3307,-0.3307,-0.4445,-0.4898,-0.4593,-0.533,-0.5558,-0.5329,-0.5329,-0.5444,-0.5711,-0.5718,-0.632,-0.7402,-0.7533,-0.8536,-1.0056,-1.0116,-1.0704,-1.1621,-1.208,-1.22,-1.2258,-1.2725,-1.2881,-1.2881,-1.2881,-1.3286,-1.3768,-1.3758,-1.3883,-1.3875,-1.3335,-1.3213,-1.3361,0.0,0.0,0.0,-1.4454,-1.4303,-1.4117,-1.4876,-1.5578,-1.6184,-1.6604,-1.7727,-1.8778,-1.9258,-1.9849,-2.0385,-2.0862,-2.0975,-2.0991,-2.0991,-2.1337,-2.1582,-2.1582,-2.1974,-2.2254,-2.2254,-2.2254,-2.2282,-2.2282,-2.2282,-2.2282,-2.231,-2.231,-2.231,-2.231,-2.231,-2.231,-2.231,-2.2282,-2.2282,-2.2282,-2.2282,-2.2032,-2.1582,-2.1582,-2.1368,-2.0991,-2.1007,-2.1213,-2.1521,-2.115,-2.0991,-2.0926,-2.0483,-2.028,-2.0212,-1.9839,-1.969,-1.969,0.0,0.0,0.0,0.0,0.0,-0.2717,-0.2829,-0.2883,-0.2947,0.0,0.0,0.0,-0.3813,-0.4391,-0.45,-0.388,-0.4204,-0.4017,-0.3035,-0.2998,-0.2998,-0.2998,-0.3106,-0.3143,-0.3143,-0.3724,-0.422,-0.4598,-0.4813,-0.5129,-0.5591,-0.5591,-0.5638,-0.5725,-0.5939,-0.6351,-0.6848,-0.7258,-0.8206,-0.9444,-1.0284,-1.0902,-1.1408,-1.233,-1.2705,-1.2715,-1.2842,-1.2881,-1.2881,-1.2881,-1.3017,-1.314,-1.3207,-1.326,-1.3245,-1.3094,-1.338,-1.384,-1.3973,0.0,0.0,0.0,0.0,0.0,-1.4246,-1.4594,-1.5195,-1.6079,-1.6553,-1.7111,-1.7992,-1.8709,-1.9197,-1.9333,-2.0285,-2.0991,-2.0991,-2.1103,-2.115,-2.115,-2.1291,-2.1354,-2.1354,-2.1354,-2.1477,-2.1764,-2.1794,-2.1928,-2.2282,-2.231,-2.231,-2.231,-2.231,-2.231,-2.231,-2.1957,-2.1794,-2.1794,-2.1507,-2.1291,-2.115,-2.115,-2.1118,-2.0991,-2.0649,-2.055,-2.0667,-2.0926,-2.0797,-2.0483,-2.0348,-2.0124,-1.9839,-1.9747,-1.969,-1.969,0.0,0.0,0.0,0.0,0.0,-0.2805,-0.2896,-0.3198,-0.3467,0.0,0.0,0.0,-0.4471,-0.5307,-0.54,-0.4347,-0.4446,-0.4181,-0.3159,-0.3082,-0.3082,-0.3082,-0.3352,-0.3348,-0.312,-0.404,-0.4568,-0.4598,-0.5168,-0.5599,-0.5898,-0.5898,-0.5965,-0.6086,-0.6297,-0.65,-0.6767,-0.7117,-0.7938,-0.9059,-0.9748,-1.042,-1.116,-1.2104,-1.2246,-1.2098,-1.2676,-1.2715,-1.2501,-1.2774,-1.2881,-1.289,-1.297,-1.2985,-1.3011,-1.3015,-1.3301,-1.3645,-1.3875,-1.418,-1.4412,-1.4395,0.0,0.0,-1.3377,-1.3202,-1.3258,-1.3392,-1.4155,-1.5005,-1.5698,-1.6881,-1.7777,-1.7777,-1.8538,-1.9341,-1.9964,-2.0223,-2.032,-2.032,-2.0735,-2.0991,-2.0991,-2.0991,-2.1086,-2.1337,-2.1337,-2.1538,-2.1974,-2.2003,-2.2003,-2.2003,-2.1857,-2.1751,-2.1751,-2.1658,-2.1538,-2.1337,-2.1275,-2.1055,-2.0731,-2.0731,-2.0632,-2.0431,-2.0158,-2.007,-2.007,-2.033,-2.0311,-2.007,-2.007,-1.9909,-1.969,-1.969,-1.969,-1.969,0.0,0.0,-0.2706,-0.2706,-0.2832,-0.2937,-0.3027,-0.3649,-0.4135,0.0,-0.4683,-0.5174,-0.5547,-0.6168,-0.6049,-0.4803,-0.4668,-0.4245,-0.321,-0.3171,-0.3171,-0.3171,-0.3676,-0.3715,-0.3171,-0.4759,-0.528,-0.4591,-0.5767,-0.6304,-0.6131,-0.6206,-0.6377,-0.6587,-0.662,-0.678,-0.6979,-0.6979,-0.7713,-0.8788,-0.8881,-0.9579,-1.0713,-1.1399,-1.1316,-1.0965,-1.2206,-1.2246,-1.1774,-1.2461,-1.2676,-1.2696,-1.2838,-1.2888,-1.2896,-1.2958,-1.3041,-1.3224,-1.3751,-1.3956,-1.4093,-1.4535,-1.4256,0.0,-1.2466,-1.1854,-1.1255,-1.0328,-1.1731,-1.315,-1.3329,-1.5026,-1.6376,-1.6376,-1.6376,-1.688,-1.8322,-1.8946,-1.9288,-1.9336,-2.0223,-2.0878,-2.0878,-2.0878,-2.0862,-2.0926,-2.0959,-2.115,-2.1521,-2.1521,-2.1552,-2.1582,-2.1213,-2.1023,-2.1055,-2.1337,-2.1275,-2.0926,-2.1244,-2.0959,-2.0212,-2.0212,-2.0035,-1.969,-1.969,-1.969,-1.9675,-1.9615,-1.9615,-1.969,-1.969,-1.969,-1.969,-1.969,-1.969,-1.969,0.0,-0.2778,-0.2866,-0.2866,-0.2985,-0.3275,-0.3842,-0.3678,-0.3681,-0.4277,-0.4466,-0.4924,-0.5948,-0.6199,-0.5995,-0.5219,-0.5171,-0.4669,-0.3576,-0.349,-0.349,-0.349,-0.3619,-0.3619,-0.349,-0.3772,-0.4053,-0.4448,-0.4813,-0.5281,-0.5794,-0.6305,-0.6533,-0.66,-0.6834,-0.6967,-0.6979,-0.6979,-0.7412,-0.816,-0.8702,-0.9217,-0.9795,-1.0656,-1.0914,-1.0864,-1.1124,-1.1124,-1.1015,-1.1174,-1.1225,-1.1316,-1.1871,-1.2039,-1.2127,-1.276,-1.3248,-1.3655,-1.3797,-1.3883,-1.3842,-1.3569,-1.3128,0.0,-1.2422,-1.2319,-1.2442,-1.2885,-1.3383,-1.3844,-1.4187,-1.5027,-1.5714,-1.5714,-1.5714,-1.6107,-1.7243,-1.7954,-1.8451,-1.8789,-1.9515,-1.9945,-1.9945,-1.9945,-2.007,-2.0416,-2.0797,-2.1023,-2.1118,-2.1118,-2.1275,-2.1582,-2.1213,-2.115,-2.1491,-2.0862,-2.0501,-2.0449,-2.0208,-1.998,-1.9818,-1.9818,-1.9782,-1.969,-1.969,-1.969,-1.9645,-1.9106,-1.9211,-1.969,-1.969,-1.969,-1.969,-1.969,-1.969,-1.969,-0.2712,-0.2805,-0.291,-0.291,-0.3315,-0.3778,-0.4155,-0.4494,-0.4886,-0.525,-0.5513,-0.5942,-0.6513,-0.6605,-0.6252,-0.5389,-0.5303,-0.4831,-0.3667,-0.3581,-0.3581,-0.3581,-0.3836,-0.388,-0.3626,-0.4101,-0.4346,-0.4387,-0.508,-0.5566,-0.5943,-0.6521,-0.688,-0.7076,-0.7181,-0.7328,-0.743,-0.743,-0.7603,-0.7929,-0.8247,-0.8665,-0.9198,-1.0003,-1.0115,-0.9909,-1.0568,-1.0813,-1.0813,-1.0813,-1.0813,-1.0864,-1.1216,-1.1316,-1.1366,-1.1742,-1.2316,-1.2793,-1.2793,-1.3309,-1.3725,-1.3282,-1.2971,0.0,0.0,-1.1371,-1.1114,-1.0778,-1.1339,-1.1996,-1.2285,-1.3259,-1.4093,-1.4324,-1.4358,-1.4634,-1.5391,-1.6233,-1.6984,-1.7438,-1.8344,-1.9015,-1.9303,-1.953,-1.9782,-2.0,-2.0382,-2.0649,-2.0649,-2.0649,-2.0748,-2.0943,-2.0565,-2.0431,-2.0649,-2.0416,-2.0023,-1.9497,-1.9512,-1.9258,-1.8717,-1.9046,-1.9196,-1.9196,-1.9196,-1.9196,-1.9151,-1.8493,-1.8403,-1.8747,-1.9076,-1.9196,-1.9206,-1.9287,-1.9479,-1.9639,-0.2764,-0.289,-0.2995,-0.2995,-0.3608,-0.414,-0.4385,-0.5159,-0.5793,-0.6007,-0.6513,-0.6914,-0.7058,-0.7108,-0.6692,-0.5738,-0.5655,-0.5129,-0.3976,-0.3886,-0.3844,-0.3666,-0.4104,-0.4085,-0.3667,-0.4542,-0.478,-0.4264,-0.5437,-0.6073,-0.6119,-0.6766,-0.7268,-0.7542,-0.7358,-0.7482,-0.7868,-0.7682,-0.7756,-0.8016,-0.8016,-0.8303,-0.8783,-0.9392,-0.9256,-0.8962,-1.0012,-1.0415,-1.0415,-1.0415,-1.0415,-1.0415,-1.0568,-1.0618,-1.061,-1.0762,-1.1166,-1.1616,-1.1616,-1.2338,-1.306,-1.2797,-1.2762,-1.2429,0.0,0.0,0.0,-0.877,-0.9509,-1.041,-1.0487,-1.1541,-1.2472,-1.2761,-1.292,-1.3146,-1.3467,-1.4504,-1.5467,-1.6206,-1.727,-1.8165,-1.8707,-1.9244,-1.9566,-1.9566,-1.9949,-2.0177,-2.0177,-2.0177,-2.0212,-2.0314,-1.9909,-1.9747,-1.9803,-1.9932,-1.9577,-1.8702,-1.9091,-1.8783,-1.7891,-1.8463,-1.8702,-1.8687,-1.8568,-1.8523,-1.8463,-1.7706,-1.7439,-1.7563,-1.8268,-1.8514,-1.856,-1.8535,-1.8841,-1.9163,-0.3073,-0.3195,-0.3341,-0.3259,-0.3482,-0.4029,-0.501,-0.4434,-0.4272,-0.5265,-0.5916,-0.6569,-0.7344,-0.7459,-0.7296,-0.6937,-0.6907,-0.633,-0.503,-0.4933,-0.4646,-0.3968,-0.4017,-0.3952,-0.3771,-0.3904,-0.3883,-0.3711,-0.4836,-0.5536,-0.5778,-0.6911,-0.7582,-0.7836,-0.6814,-0.6907,-0.7815,-0.6807,-0.7164,-0.8323,-0.8323,-0.8363,-0.8501,-0.8808,-0.8857,-0.8804,-0.8956,-0.9008,-0.9008,-0.9008,-0.9008,-0.9106,-0.9718,-0.9909,-1.0012,-1.0618,-1.0864,-1.0914,-1.0914,-1.0829,-1.0902,-1.1293,-1.1259,-1.1249,-1.1865,0.0,-1.1985,-1.1787,0.0,-1.2023,-1.1689,0.0,0.0,-1.1388,-1.1988,-1.237,-1.2087,-1.3264,-1.4701,-1.614,-1.6945,-1.758,-1.8154,-1.8688,-1.9006,-1.9006,-1.9479,-1.9782,-1.9782,-1.9782,-1.9929,-2.028,-1.9909,-1.9874,-2.0212,-1.9318,-1.8811,-1.8702,-1.8736,-1.8691,-1.8597,-1.8672,-1.8702,-1.8672,-1.8056,-1.7802,-1.7709,-1.672,-1.6488,-1.6891,-1.7548,-1.7895,-1.7935,-1.7479,-1.7427,-1.7497,-0.3154,-0.3242,-0.3351,-0.3306,-0.3723,-0.4224,-0.4696,-0.511,-0.5639,-0.6478,-0.6943,-0.7321,-0.7676,-0.7344,-0.7101,-0.7086,-0.6707,-0.6072,-0.514,-0.5091,-0.4751,-0.4019,-0.4019,-0.3988,-0.3924,-0.3924,-0.3894,-0.3836,-0.5092,-0.5743,-0.5881,-0.7164,-0.7896,-0.817,-0.7708,-0.7816,-0.8404,-0.7909,-0.8056,-0.8624,-0.8624,-0.8624,-0.8637,-0.8758,-0.8804,-0.8804,-0.8804,-0.8804,-0.8804,-0.8804,-0.8804,-0.8857,-0.9106,-0.9211,-0.9256,-0.9562,-0.9917,-1.0218,-1.0218,-1.0706,-1.1129,-1.072,-1.112,-1.1618,-1.1603,-1.196,-1.2248,-1.2248,0.0,0.0,0.0,0.0,0.0,0.0,-1.2005,-1.2346,-1.2184,-1.2862,-1.3935,-1.5281,-1.6283,-1.7038,-1.7592,-1.7847,-1.796,-1.796,-1.8198,-1.8578,-1.9192,-1.9244,-1.9464,-1.9929,-1.9406,-1.9211,-1.9353,-1.8549,-1.7906,-1.7533,-1.7921,-1.773,-1.7026,-1.779,-1.7891,-1.7518,-1.7234,-1.713,-1.707,-1.6261,-1.5844,-1.5782,-1.6076,-1.6445,-1.6809,-1.6445,-1.6534,-1.675,-0.329,-0.3334,-0.337,-0.337,-0.3839,-0.4192,-0.424,-0.5575,-0.6726,-0.7067,-0.7549,-0.7915,-0.8043,-0.7546,-0.7322,-0.7555,-0.706,-0.6407,-0.5553,-0.5498,-0.52,-0.4441,-0.4244,-0.4223,-0.4332,-0.4181,-0.4063,-0.4019,-0.5148,-0.5864,-0.6115,-0.7206,-0.8006,-0.8477,-0.815,-0.8303,-0.8784,-0.8457,-0.851,-0.8804,-0.8804,-0.8804,-0.8804,-0.8804,-0.8804,-0.8804,-0.8804,-0.8804,-0.8804,-0.8804,-0.8804,-0.8804,-0.8804,-0.8804,-0.8804,-0.8804,-0.9256,-0.9762,-0.9562,-1.0292,-1.0978,-1.0278,-1.0754,-1.1433,-1.1372,-1.1517,-1.1761,-1.1979,-1.1601,0.0,0.0,0.0,-1.0954,-1.133,0.0,-1.213,-1.1991,-1.2687,-1.353,-1.4433,-1.5439,-1.614,-1.6407,-1.6685,-1.6848,-1.6848,-1.6996,-1.7483,-1.8403,-1.8596,-1.8819,-1.9191,-1.8872,-1.8612,-1.8433,-1.7757,-1.7189,-1.6681,-1.7094,-1.6812,-1.6069,-1.6886,-1.7065,-1.6666,-1.6395,-1.6245,-1.6216,-1.5549,-1.5134,-1.4907,-1.4658,-1.497,-1.5469,-1.5267,-1.5466,-1.5752,-0.3568,-0.3568,-0.3571,-0.3571,-0.3622,-0.367,-0.3808,-0.5402,-0.6464,-0.6085,-0.714,-0.8043,-0.833,-0.8363,-0.847,-0.8698,-0.8725,-0.8078,-0.6622,-0.6568,-0.6239,-0.5467,-0.4827,-0.4703,-0.5271,-0.455,-0.4117,-0.4019,-0.461,-0.5444,-0.6396,-0.7019,-0.7832,-0.8744,-0.7582,-0.7715,-0.8731,-0.7569,-0.7749,-0.8804,-0.8804,-0.8804,-0.8804,-0.8804,-0.8804,-0.8804,-0.8804,-0.8804,-0.8804,-0.8804,-0.8804,-0.8804,-0.8804,-0.8804,-0.8804,-0.8804,-0.9256,-0.9666,-0.9008,-0.914,-0.9517,-0.9775,-0.966,-0.9896,-1.1411,-1.1071,-1.066,-1.1439,-1.0837,-1.0206,-1.0342,-1.0332,-1.0322,-1.0361,-1.1069,0.0,0.0,-1.2566,-1.379,-1.3938,-1.4499,-1.4678,-1.4249,-1.5133,-1.5758,-1.5758,-1.6217,-1.678,-1.7306,-1.7827,-1.8057,-1.7949,-1.8446,-1.8403,-1.7727,-1.707,-1.6726,-1.6712,-1.6323,-1.6308,-1.6651,-1.6323,-1.6354,-1.6636,-1.559,-1.5163,-1.5102,-1.4292,-1.4181,-1.4438,-1.3581,-1.356,-1.396,-1.3941,-1.405,-1.4107,-0.3721,-0.3802,-0.3839,-0.3737,-0.3802,-0.4031,-0.4465,-0.5643,-0.6558,-0.6845,-0.7822,-0.855,-0.8651,-0.8235,-0.8162,-0.8745,-0.8374,-0.7883,-0.7343,-0.6858,-0.6475,-0.6258,-0.5117,-0.4816,-0.54,-0.4761,-0.4365,-0.4311,-0.4994,-0.5712,-0.6526,-0.722,-0.8016,-0.8791,-0.8383,-0.843,-0.8784,-0.8377,-0.8437,-0.8804,-0.8804,-0.8804,-0.8804,-0.8804,-0.8804,-0.8804,-0.8804,-0.8804,-0.8804,-0.8804,-0.8804,-0.8804,-0.8804,-0.8804,-0.8804,-0.8804,-0.8956,-0.9113,-0.8857,-0.9238,-0.9577,-0.9235,-0.9731,-1.0372,-1.0434,-1.0442,-1.0491,-1.074,-1.0161,-0.9597,-0.9635,-0.9406,-0.9239,-0.9239,-0.9872,-1.0285,0.0,-1.1087,-1.1803,-1.1727,-1.3281,-1.412,-1.3614,-1.2887,-1.3048,-1.4518,-1.376,-1.4133,-1.614,-1.6763,-1.7157,-1.7506,-1.7579,-1.7553,-1.7305,-1.6662,-1.6275,-1.6245,-1.6222,-1.6014,-1.5619,-1.5677,-1.5552,-1.5205,-1.485,-1.469,-1.469,-1.4406,-1.4214,-1.4052,-1.3769,-1.3581,-1.3459,-1.3459,-1.3484,-1.3483,-0.3863,-0.3995,-0.4053,-0.3897,-0.3955,-0.4236,-0.4939,-0.5812,-0.6643,-0.7361,-0.826,-0.8804,-0.8804,-0.8374,-0.8262,-0.8752,-0.8374,-0.7883,-0.7343,-0.7128,-0.6858,-0.6588,-0.5719,-0.555,-0.6249,-0.5328,-0.5007,-0.5226,-0.5167,-0.5764,-0.702,-0.7235,-0.783,-0.8804,-0.8804,-0.8804,-0.8804,-0.8804,-0.8804,-0.8804,-0.8804,-0.8804,-0.8804,-0.8804,-0.8804,-0.8804,-0.8804,-0.8804,-0.8804,-0.8804,-0.8804,-0.8804,-0.8804,-0.8804,-0.8804,-0.8804,-0.8962,-0.9113,-0.8857,-0.9316,-0.9666,-0.8962,-0.9465,-1.0064,-0.9865,-0.9761,-0.977,-1.0072,-0.9489,-0.8955,-0.9089,-0.8931,-0.8906,-0.9038,-0.9505,-0.9933,0.0,-1.0368,-1.0506,-1.0317,-1.1969,-1.2922,-1.2514,-1.1687,-1.1766,-1.318,-1.2454,-1.2789,-1.4736,-1.5708,-1.6367,-1.6654,-1.6934,-1.6985,-1.6742,-1.6309,-1.5993,-1.5745,-1.573,-1.542,-1.489,-1.4902,-1.4763,-1.4501,-1.4342,-1.4278,-1.4278,-1.4117,-1.3868,-1.3648,-1.3648,-1.3459,-1.3198,-1.3198,-1.3198,-1.3198,-0.4002,-0.4103,-0.416,-0.4066,-0.4039,-0.4339,-0.5159,-0.5958,-0.6712,-0.7581,-0.8315,-0.8804,-0.8804,-0.8804,-0.8804,-0.8804,-0.8791,-0.819,-0.6789,-0.7326,-0.7379,-0.6735,-0.6637,-0.6966,-0.767,-0.6249,-0.5869,-0.6588,-0.5226,-0.5605,-0.767,-0.6966,-0.7402,-0.8804,-0.8804,-0.8804,-0.8804,-0.8804,-0.8804,-0.8804,-0.8804,-0.8804,-0.8804,-0.8804,-0.8804,-0.8804,-0.8804,-0.8804,-0.8804,-0.8804,-0.8804,-0.8804,-0.8804,-0.8804,-0.8804,-0.8804,-0.9256,-0.9614,-0.8956,-0.9263,-0.9614,-0.8956,-0.8804,-0.8956,-0.9592,-0.9054,-0.8602,-0.9422,-0.8857,-0.8323,-0.8602,-0.8854,-0.9152,-0.9546,-0.9904,-1.0262,-1.0671,-1.0376,-1.0026,-0.9698,-1.057,-1.112,-1.0978,-1.1365,-1.1696,-1.1799,-1.2164,-1.2639,-1.3257,-1.4814,-1.5623,-1.5524,-1.6521,-1.6736,-1.6141,-1.6105,-1.5864,-1.5305,-1.4905,-1.462,-1.447,-1.4052,-1.4052,-1.4406,-1.4019,-1.3868,-1.3835,-1.3391,-1.3198,-1.3198,-1.3198,-1.3198,-1.3198,-1.3198,-1.3198,-1.3198,-0.411,-0.4307,-0.4395,-0.4355,-0.4348,-0.4628,-0.5358,-0.6065,-0.6844,-0.7605,-0.8315,-0.8804,-0.8804,-0.8804,-0.8804,-0.8804,-0.8611,-0.8331,-0.7961,-0.7596,-0.7544,-0.7909,-0.7089,-0.6966,-0.767,-0.6249,-0.5869,-0.6588,-0.571,-0.6086,-0.7723,-0.7503,-0.7937,-0.8804,-0.8804,-0.8804,-0.8804,-0.8804,-0.8804,-0.8804,-0.8804,-0.8804,-0.8804,-0.8804,-0.8804,-0.8804,-0.8804,-0.8804,-0.8804,-0.8804,-0.8804,-0.8804,-0.8804,-0.8804,-0.8804,-0.8804,-0.891,-0.9008,-0.8857,-0.891,-0.9008,-0.8857,-0.8804,-0.8803,-0.8786,-0.8398,-0.8051,-0.8046,-0.7685,-0.7439,-0.7758,-0.785,-0.8006,-0.8332,-0.865,-0.8962,-0.9266,-0.9245,-0.9091,-0.8996,-0.919,-0.9655,-1.0342,-0.9772,-1.0029,-1.1696,-1.1034,-1.1365,-1.321,-1.4377,-1.5212,-1.564,-1.6284,-1.6555,-1.6401,-1.6401,-1.6061,-1.5432,-1.5053,-1.4572,-1.4019,-1.3581,-1.3459,-1.3514,-1.3425,-1.3391,-1.3357,-1.3267,-1.3198,-1.3198,-1.3198,-1.3198,-1.3198,-1.3198,-1.3198,-1.3248,-0.4314,-0.4406,-0.4519,-0.4519,-0.4732,-0.5167,-0.5873,-0.6312,-0.6966,-0.8049,-0.8533,-0.8804,-0.8804,-0.8804,-0.8804,-0.8804,-0.8657,-0.8454,-0.8139,-0.7872,-0.786,-0.8081,-0.7645,-0.7658,-0.815,-0.7063,-0.6848,-0.7563,-0.6524,-0.674,-0.8156,-0.783,-0.8103,-0.8804,-0.8804,-0.8804,-0.8771,-0.825,-0.8473,-0.9162,-0.8335,-0.8672,0.0,-0.9361,-0.9263,-0.9263,-0.9263,-0.9061,-0.8804,-0.8804,-0.8804,-0.8804,-0.8804,-0.8804,-0.8804,-0.8804,-0.8804,-0.8804,-0.8804,-0.8804,-0.8804,-0.8804,-0.8804,-0.8764,-0.8604,-0.843,-0.819,-0.7756,-0.7535,-0.7428,-0.7506,-0.7575,-0.7809,-0.8243,-0.8457,-0.8617,-0.8784,-0.8697,-0.8545,-0.835,-0.8446,-0.8725,-0.9145,-0.905,-0.9554,-1.1041,-1.0871,-1.1155,-1.2257,-1.3443,-1.437,-1.4983,-1.5553,-1.5934,-1.6158,-1.6158,-1.5727,-1.4898,-1.4651,-1.4194,-1.3581,-1.3323,-1.3198,-1.3198,-1.3198,-1.3198,-1.3198,-1.3198,-1.3198,-1.3198,-1.3198,-1.3198,-1.3223,-1.3509,-1.3584,-1.3672,-0.4433,-0.4519,-0.4519,-0.4519,-0.5054,-0.576,-0.6475,-0.6696,-0.7235,-0.8646,-0.8804,-0.8804,-0.8804,-0.8804,-0.8804,-0.8804,-0.8771,-0.8482,-0.7835,-0.8146,-0.8222,-0.7823,-0.8229,-0.855,-0.8798,-0.8103,-0.8049,-0.8804,-0.7402,-0.7456,-0.8804,-0.8156,-0.8209,-0.8804,-0.8804,-0.8804,-0.8738,-0.7695,-0.8171,-0.9511,-0.7891,-0.8597,-1.0618,-1.0012,-0.9865,-0.9917,-0.9814,-0.9361,-0.8804,-0.8804,-0.8804,-0.8804,-0.8804,-0.8804,-0.8804,-0.8804,-0.8804,-0.8804,-0.8804,-0.8804,-0.8804,-0.8804,-0.8804,-0.8798,-0.8758,-0.8751,-0.8597,-0.7995,-0.7882,-0.7862,-0.7674,-0.7836,-0.8161,-0.8567,-0.8752,-0.8752,-0.8533,-0.8448,-0.8263,-0.7813,-0.8021,0.0,-0.7908,-0.8797,-0.9597,-1.004,-1.0895,-1.1285,-1.0999,-1.2276,-1.329,-1.3978,-1.4523,-1.4994,-1.5377,-1.5458,-1.4987,-1.4012,-1.4085,-1.3795,-1.3198,-1.3198,-1.3198,-1.3198,-1.3198,-1.3198,-1.3198,-1.3198,-1.3198,-1.3198,-1.3198,-1.3198,-1.3273,-1.3972,-1.4186,-1.4274,-0.4433,-0.4519,-0.4519,-0.4519,-0.5054,-0.576,-0.6475,-0.7128,-0.783,-0.8699,-0.8804,-0.8804,-0.8804,-0.8804,-0.8804,-0.8804,-0.8591,-0.84,-0.8292,-0.8353,-0.8346,-0.8292,-0.8579,-0.8758,-0.8804,-0.8103,-0.8049,-0.8804,-0.7943,-0.7937,-0.8804,-0.8646,-0.8699,-0.8804,-0.8804,-0.8804,-0.8791,-0.8584,-0.8662,-0.8942,-0.8629,-0.9066,-0.9969,-0.9865,-1.0167,-1.0559,-1.0012,-0.9361,-0.8804,-0.8804,-0.8804,-0.8804,-0.8804,-0.8804,-0.8804,-0.8804,-0.8804,-0.8804,-0.8804,-0.8804,-0.8804,-0.8804,-0.8804,-0.8744,-0.8504,-0.845,-0.835,-0.8003,-0.7882,-0.7989,-0.8183,-0.8457,-0.8476,-0.7978,-0.8427,-0.8374,-0.7182,-0.7817,-0.8052,-0.711,-0.736,-0.7706,-0.79,-0.848,-0.8878,-0.8958,-0.9416,-1.0085,-1.0944,-1.16,-1.2447,-1.3477,-1.3609,-1.3737,-1.3778,-1.4213,-1.406,-1.3444,-1.3889,-1.3795,-1.3198,-1.3198,-1.3198,-1.3198,-1.3198,-1.3198,-1.3198,-1.3198,-1.3198,-1.3198,-1.3198,-1.3198,-1.3323,-1.4362,-1.4765,-1.484,-0.4501,-0.4519,-0.4519,-0.4519,-0.5054,-0.576,-0.6475,-0.7235,-0.7894,-0.8494,-0.8711,-0.8751,-0.8597,-0.8717,-0.8804,-0.8804,-0.8684,-0.8597,-0.8597,-0.8457,-0.8444,-0.8591,-0.8591,-0.8651,-0.8804,-0.8427,-0.8427,-0.8804,-0.8427,-0.8427,-0.8804,-0.8804,-0.8804,-0.8804,-0.8804,-0.8804,-0.8764,-0.8143,-0.8616,-0.9754,-0.8801,-0.9643,-1.1392,-1.0973,-1.1065,-1.1216,-1.0568,-0.9865,-0.9263,-0.891,-0.8804,-0.8804,-0.8804,-0.8804,-0.8804,-0.8804,-0.8804,-0.8804,-0.8804,-0.8804,-0.8804,-0.8804,-0.8804,-0.8771,-0.8631,-0.8597,-0.8517,-0.8223,-0.8163,-0.8105,-0.7885,-0.7709,-0.7557,-0.7182,-0.745,-0.7405,-0.6586,-0.689,-0.6939,-0.6291,-0.6597,-0.6879,-0.6999,-0.7266,-0.7758,-0.8635,-0.909,-0.9579,-1.0196,-1.0615,-1.1392,-1.2579,-1.2619,-1.274,-1.2981,-1.3207,-1.307,-1.2545,-1.3023,-1.3117,-1.2838,-1.3094,-1.3198,-1.3198,-1.3198,-1.3198,-1.3198,-1.3198,-1.3198,-1.3223,-1.3546,-1.3659,-1.3797,-1.489,-1.5291,-1.5379,-0.4519,-0.4519,-0.4519,-0.4519,-0.5054,-0.576,-0.6475,-0.7191,-0.7786,-0.8353,-0.8571,-0.8604,-0.831,-0.8537,-0.8711,-0.8711,-0.8771,-0.8804,-0.8804,-0.8597,-0.8571,-0.8798,-0.8591,-0.8571,-0.8804,-0.8804,-0.8804,-0.8804,-0.8804,-0.8804,-0.8804,-0.8804,-0.8804,-0.8804,-0.8804,-0.8804,-0.8744,-0.7802,-0.8537,-1.0269,-0.883,-0.9868,-1.2157,-1.1575,-1.1466,-1.1516,-1.0813,-1.0269,-0.971,-0.9008,-0.8804,-0.8804,-0.8804,-0.8804,-0.8804,-0.8804,-0.8804,-0.8804,-0.8804,-0.8804,-0.8804,-0.8804,-0.8804,-0.8804,-0.8804,-0.8699,-0.8528,-0.8306,-0.8152,-0.784,-0.7269,-0.6844,-0.6534,-0.6367,-0.648,-0.646,-0.5977,-0.5967,-0.5889,-0.5523,-0.5798,-0.605,-0.6179,-0.6093,-0.6592,-0.8054,-0.8461,-0.8796,-0.9136,-0.9479,-1.0137,-1.1206,-1.1326,-1.1565,-1.1947,-1.2152,-1.2041,-1.1627,-1.2102,-1.2389,-1.2508,-1.2873,-1.3094,-1.3198,-1.3198,-1.3198,-1.3198,-1.3198,-1.3198,-1.3248,-1.3871,-1.4085,-1.4223,-1.5291,-1.5693,-1.5781,-0.4519,-0.4519,-0.4519,-0.4519,-0.5054,-0.576,-0.6475,-0.7001,-0.7575,-0.8327,-0.8397,-0.8303,-0.8003,-0.8237,-0.8417,-0.8417,-0.8657,-0.8804,-0.8804,-0.8784,-0.8778,-0.8804,-0.8784,-0.8778,-0.8804,-0.8804,-0.8804,-0.8804,-0.8804,-0.8804,-0.8804,-0.8804,-0.8804,-0.8804,-0.8804,-0.8804,-0.8798,-0.8684,-0.875,-0.8949,-0.8788,-0.9261,-1.0072,-1.002,-1.0364,-1.0813,-1.0115,-0.9865,-0.971,-0.9008,-0.8804,-0.8804,-0.8804,-0.8804,-0.8804,-0.8804,-0.8804,-0.8804,-0.8804,-0.8804,-0.8804,-0.8804,-0.8804,-0.8804,-0.8804,-0.8262,-0.7771,-0.7747,-0.7256,-0.6773,-0.6666,-0.6627,-0.6367,-0.5706,-0.6145,-0.6079,-0.4632,-0.5321,-0.5702,-0.4879,-0.5133,-0.561,-0.6136,-0.5701,-0.5696,-0.6386,-0.6453,-0.697,-0.7995,-0.8108,-0.8364,-0.8969,-0.9453,-0.9732,-0.9802,-1.069,-1.1136,-1.1094,-1.1616,-1.2102,-1.2508,-1.2544,-1.2803,-1.3198,-1.3198,-1.3198,-1.3198,-1.3198,-1.3198,-1.3248,-1.3871,-1.4085,-1.4223,-1.5291,-1.5693,-1.5781,-0.4519,-0.4519,-0.4519,-0.4519,-0.4732,-0.5113,-0.5819,-0.6455,-0.7039,-0.7382,-0.7798,-0.7989,-0.7682,-0.7923,-0.8176,-0.8357,-0.8477,-0.8617,-0.8798,-0.8804,-0.8804,-0.8804,-0.8804,-0.8804,-0.8804,-0.8804,-0.8804,-0.8804,-0.8804,-0.8804,-0.8804,-0.8804,-0.8804,-0.8804,-0.8804,-0.8804,-0.8804,-0.8804,-0.9008,-0.9413,-0.9413,-0.9814,-1.0415,-1.0415,-1.0568,-1.0712,-1.0064,-0.9814,-0.971,-0.9008,-0.8804,-0.8804,-0.8804,-0.8804,-0.8804,-0.8804,-0.8804,-0.8771,-0.8597,-0.8671,-0.8764,-0.8591,-0.8677,-0.8699,-0.8262,-0.7937,-0.7557,-0.7128,-0.6475,-0.5928,-0.5928,-0.5605,-0.5226,-0.4948,-0.5171,-0.5023,-0.4196,-0.4503,-0.4602,-0.41,-0.4485,-0.487,-0.5087,-0.4913,-0.5,-0.561,-0.5653,-0.6161,-0.7301,-0.7342,-0.7758,-0.8675,-0.8918,-0.9159,-0.9478,-0.9903,-1.0254,-1.0582,-1.1094,-1.1431,-1.1605,-1.1909,-1.233,-1.2791,-1.2791,-1.3163,-1.3722,-1.3722,-1.3923,-1.4274,-1.4827,-1.5079,-1.5167,-1.5906,-1.6183,-1.622,-0.4406,-0.4433,-0.4519,-0.4519,-0.4519,-0.4732,-0.5378,-0.5878,-0.6373,-0.6898,-0.7333,-0.7562,-0.7502,-0.7742,-0.8049,-0.835,-0.8457,-0.8591,-0.8791,-0.8804,-0.8804,-0.8804,-0.8804,-0.8804,-0.8804,-0.8804,-0.8804,-0.8804,-0.8804,-0.8804,-0.8804,-0.8804,-0.8804,-0.8804,-0.8804,-0.8804,-0.8804,-0.8804,-0.9061,-0.9517,-0.9517,-0.9762,-1.021,-1.021,-1.021,-1.0167,-0.9666,-0.9517,-0.9413,-0.8956,-0.8804,-0.8804,-0.8804,-0.8804,-0.8804,-0.8804,-0.8804,-0.8764,-0.8557,-0.8591,-0.8651,-0.853,-0.8591,-0.8489,-0.7865,-0.7509,-0.7128,-0.615,-0.5546,-0.5218,-0.5218,-0.4842,-0.4519,-0.4519,-0.4426,-0.4311,-0.4056,-0.3982,-0.386,-0.3609,-0.3962,-0.4272,-0.4395,-0.4308,-0.4449,-0.5005,-0.4874,-0.5384,-0.6706,-0.6748,-0.721,-0.8177,-0.8349,-0.8643,-0.9039,-0.9359,-0.9677,-1.0079,-1.0572,-1.0867,-1.1019,-1.1542,-1.1993,-1.2282,-1.2282,-1.2902,-1.3853,-1.3853,-1.425,-1.4966,-1.548,-1.5693,-1.5756,-1.6308,-1.6522,-1.6522,-0.4224,-0.4365,-0.4519,-0.4519,-0.4519,-0.4732,-0.5378,-0.528,-0.5634,-0.7081,-0.6997,-0.6972,-0.745,-0.7742,-0.8049,-0.835,-0.8637,-0.8804,-0.8804,-0.8804,-0.8804,-0.8804,-0.8804,-0.8804,-0.8804,-0.8804,-0.8804,-0.8804,-0.8804,-0.8804,-0.8804,-0.8804,-0.8804,-0.8804,-0.8804,-0.8804,-0.8804,-0.8804,-0.8811,-0.8804,-0.8804,-0.8804,-0.8804,-0.8804,-0.8804,-0.8804,-0.8804,-0.8804,-0.8804,-0.8804,-0.8804,-0.8804,-0.8804,-0.8804,-0.8804,-0.8804,-0.8804,-0.8804,-0.8804,-0.8597,-0.8444,-0.8731,-0.8591,-0.8298,-0.7823,-0.7128,-0.6209,-0.4791,-0.4519,-0.4519,-0.4519,-0.4519,-0.4519,-0.4519,-0.4341,-0.4147,-0.4039,-0.389,-0.3741,-0.3598,-0.3704,-0.3958,-0.4364,-0.4062,-0.3954,-0.436,-0.3924,-0.4364,-0.6136,-0.6227,-0.6477,-0.7021,-0.7614,-0.7912,-0.7912,-0.8958,-0.9518,-0.9518,-1.004,-1.0534,-1.1019,-1.1542,-1.1811,-1.1811,-1.1811,-1.239,-1.3319,-1.3319,-1.3947,-1.4966,-1.548,-1.5693,-1.5756,-1.6308,-1.6522,-1.6522,-0.4204,-0.4365,-0.4519,-0.4519,-0.4519,-0.457,-0.4787,-0.5116,-0.5672,-0.6473,-0.6901,-0.7381,-0.8041,-0.7989,-0.8049,-0.835,-0.8457,-0.8597,-0.8791,-0.8804,-0.8804,-0.8804,-0.8804,-0.8804,-0.8804,-0.8804,-0.8804,-0.8804,-0.8804,-0.8804,-0.8804,-0.8804,-0.8804,-0.8804,-0.8804,-0.8804,-0.8804,-0.8804,-0.8804,-0.8804,-0.8804,-0.8804,-0.8804,-0.8804,-0.8804,-0.8804,-0.8804,-0.8804,-0.8804,-0.8804,-0.8804,-0.8804,-0.8804,-0.8804,-0.8804,-0.8804,-0.8804,-0.8764,-0.8564,-0.8177,-0.7765,-0.7756,-0.74,-0.6881,-0.6308,-0.5655,-0.5062,-0.4574,-0.4519,-0.4519,-0.4519,-0.4519,-0.4519,-0.4519,-0.4426,-0.4307,-0.4056,-0.4034,-0.3962,-0.3653,-0.3622,-0.3764,-0.4028,-0.3798,-0.3757,-0.3989,-0.3813,-0.4262,-0.5534,-0.5567,-0.6119,-0.7315,-0.7547,-0.7809,-0.8164,-0.8877,-0.933,-0.9518,-1.004,-1.039,-1.0544,-1.0697,-1.0954,-1.1244,-1.1244,-1.2004,-1.3237,-1.3237,-1.4058,-1.5368,-1.555,-1.588,-1.6283,-1.6459,-1.6522,-1.6522,-0.4036,-0.4347,-0.4665,-0.4665,-0.482,-0.4975,-0.4975,-0.5447,-0.5976,-0.6519,-0.7109,-0.7747,-0.8486,-0.837,-0.8337,-0.8524,-0.8537,-0.8611,-0.8798,-0.8804,-0.8804,-0.8804,-0.8804,-0.8804,-0.8804,-0.8804,-0.8804,-0.8804,-0.8804,-0.8804,-0.8804,-0.8804,-0.8804,-0.8804,-0.8804,-0.8804,-0.8804,-0.8804,-0.8804,-0.8804,-0.8804,-0.8804,-0.8804,-0.8804,-0.8804,-0.8804,-0.8804,-0.8804,-0.8804,-0.8804,-0.8804,-0.8804,-0.8804,-0.8593,-0.8427,-0.8699,-0.8586,-0.8364,-0.8133,-0.7538,-0.7019,-0.6974,-0.6662,-0.6199,-0.5608,-0.5003,-0.4519,-0.4519,-0.4519,-0.4519,-0.4519,-0.4519,-0.4519,-0.4519,-0.4419,-0.4317,-0.408,-0.4065,-0.3972,-0.3683,-0.3659,-0.3684,-0.3769,-0.3719,-0.3673,-0.3707,-0.3714,-0.4074,-0.4923,-0.5032,-0.5718,-0.7096,-0.7148,-0.7417,-0.8003,-0.8524,-0.8818,-0.8918,-0.9637,-1.0,-1.0,-1.0205,-1.0467,-1.0725,-1.0725,-1.1583,-1.294,-1.294,-1.3845,-1.5276,-1.5499,-1.582,-1.6194,-1.6423,-1.6522,-1.6522,-0.3819,-0.4345,-0.4857,-0.4907,-0.5398,-0.579,-0.5839,-0.6072,-0.6473,-0.7212,-0.7524,-0.799,-0.8699,-0.8804,-0.8804,-0.8804,-0.8804,-0.8804,-0.8804,-0.8804,-0.8804,-0.8804,-0.8804,-0.8804,-0.8804,-0.8804,-0.8804,-0.8804,-0.8804,-0.8804,-0.8804,-0.8804,-0.8804,-0.8804,-0.8804,-0.8804,-0.8804,-0.8804,-0.8804,-0.8804,-0.8804,-0.8804,-0.8804,-0.8804,-0.8804,-0.8804,-0.8804,-0.8804,-0.8804,-0.8804,-0.8804,-0.8804,-0.8752,-0.8262,-0.783,-0.8533,-0.8209,-0.7611,-0.7475,-0.6821,-0.6191,-0.6319,-0.6216,-0.5954,-0.5554,-0.4948,-0.4519,-0.4519,-0.4519,-0.4519,-0.4519,-0.4519,-0.4519,-0.4519,-0.4351,-0.4207,-0.4197,-0.4002,-0.3819,-0.3809,-0.3809,-0.3758,-0.3626,-0.3721,-0.3741,-0.3619,-0.3602,-0.3854,-0.432,-0.4575,-0.5273,-0.656,-0.6606,-0.6877,-0.7513,-0.8047,-0.8192,-0.7953,-0.8958,-0.9478,-0.9518,-1.0,-1.0244,-1.0283,-1.0283,-1.1115,-1.2446,-1.2446,-1.3336,-1.4755,-1.532,-1.5588,-1.572,-1.6281,-1.6522,-1.6522,-0.3799,-0.4011,-0.4363,-0.4808,-0.517,-0.5562,-0.601,-0.6358,-0.6775,-0.7524,-0.7682,-0.799,-0.8699,-0.8804,-0.8804,-0.8804,-0.8804,-0.8804,-0.8804,-0.8804,-0.8804,-0.8804,-0.8804,-0.8804,-0.8804,-0.8804,-0.8804,-0.8804,-0.8804,-0.8804,-0.8804,-0.8804,-0.8804,-0.8804,-0.8804,-0.8804,-0.8804,-0.8804,-0.8804,-0.8804,-0.8804,-0.8804,-0.8804,-0.8804,-0.8804,-0.8804,-0.8804,-0.8804,-0.8804,-0.8804,-0.8804,-0.8699,-0.8156,-0.783,-0.7723,-0.7883,-0.745,-0.6843,-0.6844,-0.6173,-0.5566,-0.5655,-0.5317,-0.4848,-0.478,-0.4625,-0.4519,-0.4519,-0.4519,-0.4519,-0.4519,-0.4519,-0.4519,-0.4519,-0.4433,-0.4372,-0.421,-0.4292,-0.4205,-0.389,-0.4031,-0.407,-0.3896,-0.3849,-0.3731,-0.3623,-0.3714,-0.3787,-0.3919,-0.4419,-0.5273,-0.656,-0.6606,-0.6877,-0.7513,-0.8047,-0.8356,-0.8521,-0.8756,-0.9119,-0.9518,-0.9637,-0.9922,-1.0283,-1.0283,-1.0883,-1.1814,-1.1814,-1.2939,-1.4698,-1.488,-1.5466,-1.6281,-1.6436,-1.6522,-1.6522,-0.3693,-0.3986,-0.4275,-0.4603,-0.5328,-0.6,-0.6336,-0.6991,-0.7553,-0.797,-0.8134,-0.8374,-0.8752,-0.8804,-0.8804,-0.8804,-0.8804,-0.8804,-0.8804,-0.8804,-0.8804,-0.8804,-0.8804,-0.8804,-0.8804,-0.8804,-0.8804,-0.8804,-0.8804,-0.8804,-0.8804,-0.8804,-0.8804,-0.8804,-0.8804,-0.8804,-0.8804,-0.8804,-0.8804,-0.8804,-0.8804,-0.8804,-0.8804,-0.8804,-0.8804,-0.8804,-0.8804,-0.8804,-0.8752,-0.8427,-0.8321,-0.8156,-0.745,-0.6961,-0.6686,-0.6686,-0.6416,-0.6072,-0.6037,-0.5468,-0.4946,-0.5035,-0.4787,-0.4519,-0.4519,-0.4519,-0.4519,-0.4519,-0.4519,-0.4519,-0.4519,-0.4519,-0.4519,-0.4519,-0.4519,-0.4436,-0.4358,-0.4343,-0.4275,-0.4039,-0.4073,-0.4055,-0.3941,-0.3846,-0.3752,-0.363,-0.3652,-0.3693,-0.3693,-0.4233,-0.5079,-0.614,-0.6469,-0.6877,-0.7513,-0.7642,-0.778,-0.7931,-0.8472,-0.8837,-0.9159,-0.9637,-1.0105,-1.0566,-1.0566,-1.1064,-1.191,-1.2158,-1.3083,-1.4329,-1.4926,-1.5511,-1.6139,-1.638,-1.6522,-1.6522,-0.3581,-0.3965,-0.4303,-0.4391,-0.5485,-0.6424,-0.656,-0.7513,-0.8254,-0.831,-0.8524,-0.8677,-0.8677,-0.8677,-0.8691,-0.8738,-0.8744,-0.8758,-0.8804,-0.8804,-0.8804,-0.8804,-0.8804,-0.8804,-0.8804,-0.8804,-0.8804,-0.8804,-0.8804,-0.8804,-0.8804,-0.8804,-0.8804,-0.8804,-0.8758,-0.8764,-0.8798,-0.8711,-0.8724,-0.8804,-0.8758,-0.8764,-0.8804,-0.8804,-0.8804,-0.8804,-0.8804,-0.8752,-0.8533,-0.7883,-0.7616,-0.7396,-0.6637,-0.5982,-0.5487,-0.5378,-0.5324,-0.535,-0.5202,-0.4846,-0.4519,-0.4519,-0.4519,-0.4519,-0.4519,-0.4519,-0.4519,-0.4519,-0.4519,-0.4519,-0.4519,-0.4519,-0.4519,-0.4519,-0.4519,-0.4519,-0.4519,-0.4358,-0.4227,-0.4227,-0.4097,-0.4005,-0.3877,-0.3819,-0.3741,-0.3622,-0.3592,-0.3581,-0.3581,-0.4092,-0.4768,-0.5621,-0.6225,-0.6816,-0.7402,-0.7148,-0.6979,-0.7021,-0.8062,-0.8667,-0.884,-0.9808,-1.0525,-1.1006,-1.1006,-1.1475,-1.2227,-1.2736,-1.3303,-1.3909,-1.4903,-1.5454,-1.5676,-1.6194,-1.6423,-1.6522,-0.3581,-0.3667,-0.388,-0.4303,-0.4812,-0.5494,-0.6469,-0.7007,-0.7454,-0.79,-0.8036,-0.8014,-0.8014,-0.8014,-0.817,-0.8424,-0.8444,-0.8544,-0.8791,-0.8804,-0.8804,-0.8804,-0.8804,-0.8804,-0.8804,-0.8804,-0.8804,-0.8804,-0.8804,-0.8804,-0.8804,-0.8804,-0.8804,-0.8798,-0.855,-0.8577,-0.8778,-0.8277,-0.8357,-0.8784,-0.8537,-0.8591,-0.8804,-0.8804,-0.8804,-0.8804,-0.8804,-0.8374,-0.783,-0.7723,-0.7289,-0.6642,-0.5923,-0.5597,-0.5378,-0.4842,-0.468,-0.4677,-0.4652,-0.4553,-0.4519,-0.4519,-0.4519,-0.4519,-0.4519,-0.4519,-0.4519,-0.4519,-0.4519,-0.4519,-0.4519,-0.4519,-0.4519,-0.4519,-0.4519,-0.4519,-0.4519,-0.4498,-0.4429,-0.4429,-0.43,-0.4157,-0.414,-0.3948,-0.3738,-0.3628,-0.3608,-0.3581,-0.3581,-0.4092,-0.4709,-0.5353,-0.5929,-0.6539,-0.7094,-0.7041,-0.6979,-0.7021,-0.7697,-0.8425,-0.9206,-0.984,-1.0616,-1.1498,-1.1498,-1.1748,-1.2227,-1.2309,-1.2919,-1.3815,-1.4003,-1.4675,-1.5632,-1.572,-1.6051,-1.6522,-0.3581,-0.3581,-0.3667,-0.3924,-0.45,-0.5079,-0.5585,-0.6496,-0.7194,-0.744,-0.7732,-0.7882,-0.7882,-0.7882,-0.8049,-0.835,-0.8427,-0.8497,-0.8791,-0.8804,-0.8804,-0.8804,-0.8804,-0.8804,-0.8804,-0.8804,-0.8804,-0.8804,-0.8804,-0.8804,-0.8804,-0.8804,-0.8804,-0.8798,-0.8664,-0.8597,-0.8557,-0.7922,-0.781,-0.7984,-0.7955,-0.8017,-0.8209,-0.8209,-0.8209,-0.8156,-0.7777,-0.7396,-0.7074,-0.6632,-0.6303,-0.5873,-0.5167,-0.4948,-0.4893,-0.457,-0.4519,-0.4519,-0.4519,-0.4519,-0.4519,-0.4519,-0.4519,-0.4519,-0.4519,-0.4519,-0.4519,-0.4519,-0.4519,-0.4519,-0.4519,-0.4519,-0.4519,-0.4519,-0.4519,-0.4519,-0.4519,-0.4519,-0.4519,-0.4519,-0.4334,-0.4167,-0.409,-0.3927,-0.3761,-0.3595,-0.3619,-0.3612,-0.369,-0.4139,-0.4697,-0.5395,-0.6378,-0.6929,-0.6985,-0.7181,-0.7261,-0.7261,-0.7831,-0.8601,-0.9537,-1.0118,-1.096,-1.1924,-1.1924,-1.2168,-1.2578,-1.2926,-1.3543,-1.4329,-1.4641,-1.532,-1.6095,-1.6095,-1.6238,-1.6522,-0.3581,-0.3581,-0.3581,-0.3581,-0.416,-0.465,-0.4783,-0.5749,-0.6526,-0.6672,-0.7152,-0.749,-0.749,-0.763,-0.7869,-0.8237,-0.827,-0.8424,-0.8784,-0.8804,-0.8804,-0.8804,-0.8804,-0.8804,-0.8804,-0.8744,-0.8738,-0.8804,-0.8738,-0.8744,-0.8804,-0.8804,-0.8699,-0.8533,-0.8469,-0.83,-0.7942,-0.728,-0.7052,-0.7161,-0.7137,-0.7275,-0.745,-0.745,-0.745,-0.7343,-0.6804,-0.648,-0.6258,-0.5706,-0.5378,-0.5164,-0.468,-0.4519,-0.4512,-0.4423,-0.4412,-0.4419,-0.4508,-0.4519,-0.4519,-0.4519,-0.4519,-0.4519,-0.4519,-0.4519,-0.4519,-0.4519,-0.4519,-0.4519,-0.4519,-0.4519,-0.4519,-0.4519,-0.4519,-0.4519,-0.4519,-0.4519,-0.4505,-0.4416,-0.4284,-0.4083,-0.3982,-0.3829,-0.371,-0.3636,-0.3629,-0.3676,-0.3785,-0.4085,-0.4638,-0.5425,-0.6789,-0.7355,-0.7128,-0.7422,-0.7575,-0.7621,-0.8155,-0.8905,-0.9864,-1.0468,-1.1343,-1.2383,-1.2383,-1.2578,-1.2929,-1.342,-1.3967,-1.456,-1.5005,-1.5644,-1.6281,-1.6281,-1.638,-1.6522,-0.3581,-0.3581,-0.3581,-0.3581,-0.3633,-0.3854,-0.4368,-0.4508,-0.478,-0.5353,-0.5972,-0.6324,-0.6324,-0.6753,-0.7277,-0.7868,-0.7915,-0.8203,-0.8771,-0.8804,-0.8804,-0.8804,-0.8804,-0.8804,-0.8804,-0.8544,-0.8537,-0.8804,-0.8537,-0.8544,-0.8804,-0.8804,-0.8427,-0.7771,-0.7528,-0.7177,-0.6684,-0.5955,-0.6051,-0.6635,-0.6268,-0.636,-0.6696,-0.6696,-0.6696,-0.6696,-0.6642,-0.6145,-0.5597,-0.5542,-0.5109,-0.457,-0.4519,-0.4519,-0.4491,-0.4304,-0.421,-0.4241,-0.4426,-0.4519,-0.4519,-0.4519,-0.4519,-0.4519,-0.4519,-0.4519,-0.4519,-0.4519,-0.4519,-0.4519,-0.4519,-0.4519,-0.4519,-0.4519,-0.4519,-0.4519,-0.4519,-0.4519,-0.4412,-0.4227,-0.4076,-0.3975,-0.3822,-0.368,-0.3646,-0.3768,-0.3775,-0.3782,-0.3792,-0.3828,-0.4306,-0.5295,-0.6742,-0.75,-0.7479,-0.7742,-0.7848,-0.7896,-0.8393,-0.9244,-1.0387,-1.091,-1.177,-1.2832,-1.2832,-1.2852,-1.2881,-1.2978,-1.3324,-1.3862,-1.3909,-1.463,-1.5676,-1.5676,-1.6008,-1.6522,-0.3585,-0.3581,-0.3581,-0.3581,-0.3581,-0.3667,-0.388,-0.4176,-0.4474,-0.4696,-0.561,-0.6184,-0.6184,-0.6842,-0.7468,-0.7848,-0.8103,-0.8377,-0.8784,-0.8804,-0.8804,-0.8804,-0.8804,-0.8804,-0.8804,-0.8697,-0.8611,-0.8537,-0.8056,-0.7816,-0.7753,-0.7342,-0.7029,-0.6778,-0.6743,-0.6534,-0.6172,-0.5608,-0.5493,-0.5681,-0.5584,-0.5688,-0.5923,-0.5923,-0.5923,-0.586,-0.5317,-0.4911,-0.4695,-0.4695,-0.4538,-0.4345,-0.4433,-0.4519,-0.4508,-0.4395,-0.425,-0.4086,-0.429,-0.4331,-0.4331,-0.4331,-0.4331,-0.4355,-0.4498,-0.4519,-0.4519,-0.4525,-0.4522,-0.4519,-0.4525,-0.4473,-0.4525,-0.4519,-0.4522,-0.444,-0.4341,-0.4331,-0.4273,-0.4073,-0.3972,-0.3856,-0.3795,-0.3741,-0.3734,-0.3788,-0.388,-0.3934,-0.3934,-0.4219,-0.4496,-0.4744,-0.639,-0.7327,-0.7513,-0.7956,-0.8203,-0.8203,-0.8393,-0.9025,-1.0023,-1.0224,-1.1038,-1.2236,-1.2236,-1.2501,-1.2881,-1.2881,-1.3238,-1.3815,-1.3815,-1.4549,-1.5588,-1.5588,-1.5964,-1.6522,-0.3265,-0.3448,-0.3588,-0.3581,-0.3581,-0.3581,-0.3581,-0.3921,-0.4132,-0.4132,-0.5005,-0.5658,-0.5658,-0.6579,-0.7315,-0.7611,-0.8098,-0.8497,-0.8791,-0.8717,-0.8711,-0.8804,-0.8804,-0.8804,-0.8804,-0.8624,-0.8375,-0.8112,-0.7554,-0.7112,-0.6804,-0.6433,-0.6134,-0.5878,-0.5927,-0.5767,-0.5349,-0.5035,-0.4833,-0.4782,-0.4892,-0.4983,-0.5089,-0.5144,-0.5164,-0.5089,-0.4457,-0.4197,-0.4197,-0.4197,-0.4197,-0.422,-0.4419,-0.4453,-0.4321,-0.4321,-0.4144,-0.3972,-0.4026,-0.4107,-0.4121,-0.4113,-0.4123,-0.4164,-0.4362,-0.4399,-0.4416,-0.447,-0.4132,-0.3904,-0.4421,-0.4484,-0.448,-0.4525,-0.4473,-0.4426,-0.422,-0.4197,-0.4123,-0.3972,-0.3856,-0.3775,-0.3731,-0.3765,-0.3812,-0.386,-0.4005,-0.402,-0.4022,-0.4392,-0.4525,-0.4395,-0.5924,-0.6955,-0.738,-0.8154,-0.851,-0.851,-0.851,-0.8957,-0.9814,-0.9814,-1.0415,-1.1516,-1.1715,-1.208,-1.2559,-1.2822,-1.3238,-1.3815,-1.4003,-1.4687,-1.5632,-1.582,-1.6139,-1.6522,-0.2544,-0.3051,-0.3609,-0.3581,-0.3581,-0.3581,-0.3581,-0.3581,-0.3581,-0.3581,-0.4049,-0.4387,-0.4387,-0.5729,-0.6712,-0.7074,-0.7895,-0.8497,-0.8784,-0.853,-0.8504,-0.8791,-0.8798,-0.8798,-0.8798,-0.823,-0.7772,-0.7476,-0.7005,-0.6588,-0.6207,-0.6344,-0.5925,-0.5086,-0.5091,-0.4701,-0.4019,-0.4019,-0.4022,-0.4036,-0.4133,-0.4197,-0.421,-0.4406,-0.4515,-0.4494,-0.4244,-0.4194,-0.4197,-0.4194,-0.4194,-0.422,-0.4416,-0.4256,-0.4019,-0.4019,-0.391,-0.3788,-0.3792,-0.3849,-0.3938,-0.3982,-0.4019,-0.4009,-0.416,-0.4204,-0.4254,-0.445,-0.3294,-0.2679,-0.4196,-0.4487,-0.449,-0.448,-0.4477,-0.4426,-0.4231,-0.42,-0.408,-0.3826,-0.3792,-0.3737,-0.3595,-0.371,-0.386,-0.4012,-0.411,-0.4127,-0.4026,-0.423,-0.4391,-0.4391,-0.541,-0.6369,-0.7098,-0.8197,-0.8804,-0.8804,-0.8804,-0.9159,-0.9814,-0.9814,-1.0167,-1.0813,-1.1516,-1.1814,-1.1864,-1.2608,-1.3238,-1.3862,-1.4468,-1.505,-1.5676,-1.6281,-1.6522,-1.6522,-0.1875,-0.2873,-0.3334,-0.2504,-0.3037,-0.3581,-0.3581,-0.3581,-0.3581,-0.3581,-0.4049,-0.4387,-0.4387,-0.5321,-0.6285,-0.7026,-0.7487,-0.7987,-0.8497,-0.8424,-0.8323,-0.8196,-0.8147,-0.8147,-0.8147,-0.7975,-0.7768,-0.7497,-0.651,-0.5881,-0.555,-0.4805,-0.4303,-0.4031,-0.4142,-0.4047,-0.3873,-0.4036,-0.4127,-0.413,-0.4177,-0.4197,-0.4187,-0.4178,-0.4219,-0.428,-0.4019,-0.4016,-0.418,-0.4073,-0.4107,-0.4204,-0.4244,-0.4178,-0.4022,-0.4132,-0.3897,-0.3715,-0.3882,-0.3833,-0.3739,-0.3887,-0.3829,-0.3775,-0.4026,-0.4247,-0.4446,-0.4499,-0.3247,-0.2007,-0.1451,-0.3078,-0.4155,-0.306,-0.2038,-0.2073,-0.4128,-0.4228,-0.3979,-0.368,-0.3791,-0.3835,-0.3794,-0.3965,-0.408,-0.4123,-0.4073,-0.4022,-0.3866,-0.3858,-0.3887,-0.3993,-0.487,-0.5507,-0.5853,-0.7291,-0.8262,-0.8804,-0.8804,-0.891,-0.9113,-0.9113,-0.9465,-1.0167,-1.0813,-1.1366,-1.1864,-1.2608,-1.3017,-1.3248,-1.3826,-1.4422,-1.5062,-1.5644,-1.6139,-1.6522,-0.0938,-0.1658,-0.2111,-0.1832,-0.241,-0.304,-0.3541,-0.3585,-0.3581,-0.3581,-0.388,-0.4092,-0.4092,-0.487,-0.5594,-0.616,-0.6927,-0.7536,-0.8023,-0.8064,-0.7882,-0.7543,-0.7523,-0.7636,-0.7882,-0.7809,-0.7564,-0.7148,-0.6367,-0.5745,-0.5265,-0.443,-0.3988,-0.3928,-0.3757,-0.3707,-0.3724,-0.3965,-0.4036,-0.3992,-0.406,-0.407,-0.4063,-0.4033,-0.4063,-0.4157,-0.39,-0.3988,-0.4174,-0.402,-0.407,-0.4174,-0.4111,-0.4012,-0.3976,-0.3976,-0.3447,-0.2921,-0.3095,-0.3345,-0.3626,-0.3756,-0.3355,-0.2913,-0.3083,-0.3674,-0.4189,-0.4474,-0.2815,-0.1044,-0.0167,-0.1486,-0.2793,-0.307,-0.135,-0.0627,-0.2481,-0.3039,-0.3297,-0.326,-0.3357,-0.355,-0.3894,-0.4107,-0.4217,-0.4328,-0.4195,-0.407,-0.3978,-0.3832,-0.3792,-0.388,-0.442,-0.4911,-0.5276,-0.6308,-0.7337,-0.8374,-0.8646,-0.8804,-0.8811,-0.9061,-0.9413,-0.9865,-1.0762,-1.1416,-1.1864,-1.2608,-1.3065,-1.3334,-1.392,-1.4503,-1.5152,-1.5732,-1.6194,-1.6522,0.0,0.0,-0.0359,-0.1429,-0.165,-0.2099,-0.3414,-0.3544,-0.3534,-0.3578,-0.3581,-0.3581,-0.3581,-0.4323,-0.4831,-0.4894,-0.6271,-0.7173,-0.7392,-0.7468,-0.7335,-0.6992,-0.6979,-0.7238,-0.7789,-0.7569,-0.7199,-0.6621,-0.6468,-0.6035,-0.5351,-0.4884,-0.4554,-0.4391,-0.3836,-0.3581,-0.3588,-0.3731,-0.3717,-0.3622,-0.389,-0.3917,-0.3805,-0.3931,-0.4023,-0.4117,-0.3877,-0.3968,-0.4153,-0.4016,-0.4114,-0.4182,-0.3949,-0.3809,-0.3735,-0.3639,-0.2823,-0.1921,-0.1832,-0.2695,-0.3615,-0.3615,-0.2603,-0.1624,-0.1639,-0.2474,-0.3426,-0.3994,-0.1912,0.0,0.0,0.0,-0.0894,-0.3655,-0.1782,0.0,0.0,-0.1167,-0.2195,-0.2775,-0.2873,-0.3179,-0.3989,-0.4178,-0.4317,-0.4433,-0.4321,-0.419,-0.4177,-0.4043,-0.4026,-0.4039,-0.4123,-0.4512,-0.5201,-0.5408,-0.6195,-0.7616,-0.8374,-0.8699,-0.8699,-0.9406,-0.9762,-0.9865,-1.1166,-1.1765,-1.1864,-1.2608,-1.3238,-1.3779,-1.4376,-1.496,-1.5499,-1.6107,-1.638,-1.6423,0.0,0.0,-0.009,-0.0359,-0.0403,-0.1118,-0.3289,-0.3046,-0.2898,-0.3534,-0.3581,-0.3581,-0.3581,-0.3784,-0.416,-0.4835,-0.6271,-0.7031,-0.6805,-0.7238,-0.7335,-0.6992,-0.6979,-0.7038,-0.7171,-0.7154,-0.7029,-0.6907,-0.6471,-0.6145,-0.5964,-0.496,-0.4428,-0.4391,-0.3836,-0.3581,-0.3588,-0.3731,-0.3775,-0.3751,-0.3816,-0.3822,-0.3782,-0.3704,-0.3765,-0.3866,-0.369,-0.3819,-0.4063,-0.4029,-0.41,-0.4157,-0.3965,-0.3283,-0.2689,-0.342,-0.3427,-0.3015,-0.2068,-0.2663,-0.3584,-0.3584,-0.1981,-0.0405,-0.0408,-0.0606,-0.0822,-0.0961,-0.0469,0.0,0.0,0.0,-0.0217,-0.0893,-0.0428,0.0,0.0,-0.026,-0.1373,-0.3811,-0.4103,-0.416,-0.4362,-0.4442,-0.4382,-0.43,-0.4214,-0.4143,-0.4026,-0.4036,-0.4023,-0.4143,-0.4177,-0.4354,-0.4685,-0.5198,-0.5923,-0.6858,-0.7563,-0.7937,-0.7943,-0.8685,-0.9309,-0.9865,-1.0661,-1.1316,-1.1864,-1.2608,-1.2968,-1.3152,-1.3779,-1.4097,-1.4272,-1.488,-1.5377,-1.5864,0.0,0.0,0.0,0.0,0.0,-0.0447,-0.1706,-0.2012,-0.2455,-0.3452,-0.3585,-0.3581,-0.3581,-0.3581,-0.3873,-0.4615,-0.5353,-0.5874,-0.598,-0.6278,-0.6482,-0.6605,-0.6598,-0.6598,-0.6598,-0.6852,-0.6979,-0.6979,-0.6732,-0.6562,-0.6556,-0.5389,-0.4822,-0.4783,-0.3968,-0.3581,-0.3585,-0.3659,-0.369,-0.369,-0.369,-0.369,-0.3683,-0.3609,-0.367,-0.3771,-0.3632,-0.3724,-0.391,-0.3917,-0.4021,-0.4004,-0.3808,-0.3343,-0.2725,-0.208,-0.1889,-0.1753,-0.1124,-0.1395,-0.162,-0.0449,-0.009,0.0,0.0,0.0868,0.1368,0.025,0.0,0.0,0.0,0.116,0.1703,0.0224,0.0,0.0,0.0,0.0,-0.1115,-0.4121,-0.4509,-0.4494,-0.448,-0.4488,-0.444,-0.4365,-0.4355,-0.4314,-0.4236,-0.4229,-0.4267,-0.4348,-0.4351,-0.4385,-0.4519,-0.4842,-0.5222,-0.5605,-0.7015,-0.7723,-0.7723,-0.8784,-0.9666,-1.0312,-1.0965,-1.1674,-1.2344,-1.2725,-1.3065,-1.3372,-1.3684,-1.3956,-1.4283,-1.456,-1.4926,-1.5276,0.0443,0.0312,0.0224,0.0045,0.0,0.0,0.0,-0.0851,-0.2012,-0.3417,-0.3588,-0.3581,-0.3581,-0.3581,-0.3796,-0.422,-0.4347,-0.4604,-0.513,-0.526,-0.5524,-0.6007,-0.605,-0.605,-0.605,-0.6598,-0.6852,-0.6852,-0.6937,-0.6937,-0.6852,-0.5776,-0.526,-0.5087,-0.4056,-0.3581,-0.3581,-0.3581,-0.3581,-0.3581,-0.3581,-0.3581,-0.3581,-0.3581,-0.3653,-0.3741,-0.3622,-0.3656,-0.3761,-0.3818,-0.3868,-0.3804,-0.3649,-0.3296,-0.261,-0.0584,0.0314,0.0629,0.0629,0.0314,0.0539,0.2744,0.2033,0.0681,0.0454,0.2135,0.3167,0.1096,0.0507,0.0363,0.0387,0.2411,0.337,0.112,0.0559,0.0279,0.0056,0.0,-0.0952,-0.3429,-0.394,-0.4104,-0.4098,-0.4089,-0.4196,-0.448,-0.4525,-0.4519,-0.4519,-0.4519,-0.4519,-0.4519,-0.4519,-0.4519,-0.4519,-0.4519,-0.4519,-0.4515,-0.6416,-0.7396,-0.7557,-0.8981,-1.0012,-1.0661,-1.1216,-1.1931,-1.2715,-1.2715,-1.3084,-1.3637,-1.3637,-1.3967,-1.4387,-1.4514,-1.456,-1.4652,0.2167,0.1548,0.1242,0.0179,0.0,0.0,0.0,-0.0134,-0.1029,-0.3293,-0.3595,-0.3581,-0.3581,-0.3581,-0.3622,-0.3707,-0.4136,-0.443,-0.4517,-0.5,-0.5346,-0.5437,-0.5437,-0.5437,-0.5437,-0.6002,-0.6307,-0.6307,-0.6774,-0.6768,-0.6307,-0.561,-0.5043,-0.4478,-0.388,-0.3581,-0.3581,-0.3581,-0.3581,-0.3581,-0.3581,-0.3581,-0.3581,-0.3581,-0.3592,-0.3605,-0.3588,-0.3598,-0.3622,-0.3626,-0.3632,-0.3639,-0.3619,-0.2158,-0.0404,-0.009,0.1482,0.3111,0.3111,0.1569,0.0313,0.1698,0.2955,0.3523,0.2219,0.3178,0.4204,0.3565,0.2633,0.1917,0.1883,0.2233,0.2796,0.3758,0.2794,0.1451,0.0168,0.0,-0.0168,-0.0559,-0.173,-0.2512,-0.2512,-0.251,-0.307,-0.4421,-0.4477,-0.4473,-0.4519,-0.4519,-0.4519,-0.4519,-0.4519,-0.4519,-0.4519,-0.4519,-0.4519,-0.4519,-0.5382,-0.614,-0.6804,-0.8256,-0.9309,-0.9969,-1.0012,-1.0771,-1.1972,-1.1972,-1.2384,-1.3017,-1.3017,-1.3065,-1.32,-1.3732,-1.3909,-1.4097,0.4328,0.3385,0.2632,0.2103,0.0895,0.0,0.0,0.0,-0.0403,-0.1433,-0.2784,-0.3595,-0.3581,-0.3581,-0.3581,-0.3581,-0.3796,-0.3965,-0.3965,-0.4184,-0.4487,-0.4783,-0.4783,-0.4783,-0.4783,-0.5394,-0.5524,-0.5173,-0.6124,-0.6435,-0.6179,-0.5216,-0.471,-0.4546,-0.388,-0.3673,-0.3816,-0.3649,-0.3626,-0.369,-0.3612,-0.3581,-0.3581,-0.3581,-0.3585,-0.3499,-0.2818,-0.2591,-0.2687,-0.3376,-0.3612,-0.3385,-0.2024,-0.0854,0.0,0.0,0.1708,0.3615,0.3615,0.2831,0.2158,0.2807,0.3585,0.4047,0.3371,0.3795,0.4277,0.4043,0.364,0.3364,0.3479,0.3481,0.3691,0.4379,0.3919,0.3241,0.2633,0.1788,0.0949,0.0112,-0.0559,-0.095,-0.095,-0.0949,-0.1618,-0.3125,-0.4027,-0.4473,-0.4519,-0.4519,-0.4519,-0.4519,-0.4519,-0.4519,-0.4519,-0.4519,-0.4519,-0.4519,-0.5164,-0.5873,-0.6642,-0.7723,-0.8778,-0.9814,-0.9814,-1.0364,-1.1266,-1.1266,-1.1674,-1.2295,-1.2295,-1.2559,-1.292,-1.32,-1.3505,-1.3909]}]]